[[{"header":{"parameterUnit":"m.s-1","parameterCategory":1,"la1":31.0,"la2":29.5877,"lo1":-88.7671,"lo2":-86.6584,"dx":0.0162,"dy":0.0185,"nx":115,"ny":88,"refTime":"2022-11-29T06:00:00:Z","depth":0,"parameterNumber":2,"parameterNumberName":"U-component_of_WINDS"},"data":[0.0,0.0,0.0,0.0,0.0,0.0,0.0,0.0,0.0,0.0,0.0,0.0,0.0,0.0,0.0,0.0,0.0,0.0,0.0,0.0,0.0,0.0,0.0,0.0,0.0,0.0,0.0,0.0,0.0,0.0,0.0,0.0,0.0,0.0,0.0,0.0,0.0,0.0,0.0,0.0,0.0,0.0,0.0,0.0,0.0,0.0,0.0,0.0,0.0,0.0,0.0,0.0,0.0,0.0,0.0,0.0,0.0,0.0,0.0,0.0,0.0,0.0,0.0,0.0,0.0,0.0,0.0,0.0,0.0,0.0,0.0,0.0,0.0,0.0,0.0,0.0,0.0,0.0,0.0,0.0,0.0,0.0,0.0,0.0,0.0,0.0,0.0,0.0,0.0,0.0,0.0,0.0,0.0,0.0,0.0,0.0,0.0,0.0,0.0,0.0,0.0,0.0,0.0,0.0,0.0,0.0,0.0,0.0,0.0,0.0,0.0,0.0,0.0,0.0,0.0,0.0,0.0,0.0,0.0,0.0,0.0,0.0,0.0,0.0,0.0,0.0,0.0,0.0,0.0,0.0,0.0,0.0,0.0,0.0,0.0,0.0,0.0,0.0,0.0,0.0,0.0,0.0,0.0,0.0,0.0,0.0,0.0,0.0,0.0,0.0,0.0,0.0,0.0,0.0,0.0,0.0,0.0,0.0,0.0,0.0,0.0,0.0,0.0,0.0,0.0,0.0,0.0,0.0,0.0,0.0,0.0,0.0,0.0,0.0,0.0,0.0,0.0,0.0,0.0,0.0,0.0,0.0,0.0,0.0,0.0,0.0,0.0,0.0,0.0,0.0,0.0,0.0,0.0,0.0,0.0,0.0,0.0,0.0,0.0,0.0,0.0,0.0,0.0,0.0,0.0,0.0,0.0,0.0,0.0,0.0,0.0,0.0,0.0,0.0,0.0,0.0,0.0,0.0,0.0,0.0,0.0,0.0,0.0,0.0,0.0,0.0,0.0,0.0,0.0,0.0,0.0,0.0,0.0,0.0,0.0,0.0,0.0,0.0,0.0,0.0,0.0,0.0,0.0,0.0,0.0,0.0,0.0,0.0,0.0,0.0,0.0,0.0,0.0,0.0,0.0,0.0,0.0,0.0,0.0,0.0,0.0,0.0,0.0,0.0,0.0,0.0,0.0,0.0,0.0,0.0,0.0,0.0,0.0,0.0,0.0,0.0,0.0,0.0,0.0,0.0,0.0,0.0,0.0,0.0,0.0,0.0,0.0,0.0,0.0,0.0,0.0,0.0,0.0,0.0,0.0,0.0,0.0,0.0,0.0,0.0,0.0,0.0,0.0,0.0,0.0,0.0,0.0,0.0,0.0,0.0,0.0,0.0,0.0,0.0,0.0,0.0,0.0,0.0,0.0,0.0,0.0,0.0,0.0,0.0,0.0,0.0,0.0,0.0,0.0,0.0,0.0,0.0,0.0,0.0,0.0,0.0,0.0,0.0,0.0,0.0,0.0,0.0,0.0,0.0,0.0,0.0,0.0,0.0,0.0,0.0,0.0,0.0,0.0,0.0,0.0,0.0,0.0,0.0,0.0,0.0,0.0,0.0,0.0,0.0,0.0,0.0,0.0,0.0,0.0,0.0,0.0,0.0,0.0,0.0,0.0,0.0,0.0,0.0,0.0,0.0,0.0,0.0,0.0,0.0,0.0,0.0,0.0,0.0,0.0,0.0,0.0,0.0,0.0,0.0,0.0,0.0,0.0,0.0,0.0,0.0,0.0,0.0,0.0,0.0,0.0,0.0,0.0,0.0,0.0,0.0,0.0,0.0,0.0,0.0,0.0,0.0,0.0,0.0,0.0,0.0,0.0,0.0,0.0,0.0,0.0,0.0,0.0,0.0,0.0,0.0,0.0,0.0,0.0,0.0,0.0,0.0,0.0,0.0,0.0,0.0,0.0,0.0,0.0,0.0,0.0,0.0,0.0,0.0,0.0,0.0,0.0,0.0,0.0,0.0,0.0,0.0,0.0,0.0,0.0,0.0,0.0,0.0,0.0,0.0,0.0,0.0,0.0,0.0,0.0,0.0,0.0,0.0,0.0,0.0,0.0,0.0,0.0,0.0,0.0,0.0,0.0,0.0,0.0,0.0,0.0,0.0,0.0,0.0,0.0,0.0,0.0,0.0,0.0,0.0,0.0,0.0,0.0,0.0,0.0,0.0,0.0,0.0,0.0,0.0,0.0,0.0,0.0,0.0,0.0,0.0,0.0,0.0,0.0,0.0,0.0,0.0,0.0,0.0,0.0,0.0,0.0,0.0,0.0,0.0,0.0,0.0,0.0,0.0,0.0,0.0,0.0,0.0,0.0,0.0,0.0,0.0,0.0,0.0,0.0,0.0,0.0,0.0,0.0,0.0,0.0,0.0,0.0,0.0,0.0,0.0,0.0,0.0,0.0,0.0,0.0,0.0,0.0,0.0,0.0,0.0,0.0,0.0,0.0,0.0,0.0,0.0,0.0,0.0,0.0,0.0,0.0,0.0,0.0,0.0,0.0,0.0,0.0,0.0,0.0,0.0,0.0,0.0,0.0,0.0,0.0,0.0,0.0,0.0,0.0,0.0,0.0,0.0,0.0,0.0,0.0,0.0,0.0,0.0,0.0,0.0,0.0,0.0,0.0,0.0,0.0,0.0,0.0,0.0,0.0,0.0,0.0,0.0,0.0,0.0,0.0,0.0,0.0,0.0,0.0,0.0,0.0,0.0,0.0,0.0,0.0,0.0,0.0,0.0,0.0,0.0,0.0,0.0,0.0,0.0,0.0,0.0,0.0,0.0,0.0,0.0,0.0,0.0,0.0,0.0,0.0,0.0,0.0,0.0,0.0,0.0,0.0,0.0,0.0,0.0,0.0,0.0,0.0,0.0,0.0,0.0,0.0,0.0,0.0,0.0,0.0,0.0,0.0,0.0,0.0,0.0,0.0,0.0,0.0,0.0,0.0,0.0,0.0,0.0,0.0,0.0,0.0,0.0,0.0,0.0,0.0,0.0,0.0,0.0,0.0,0.0,0.0,0.0,0.0,0.0,0.0,0.0,0.0,0.0,0.0,0.0,0.0,0.0,0.0,0.0,0.0,0.0,0.0,0.0,0.0,0.0,0.0,0.0,0.0,0.0,0.0,0.0,0.0,0.0,0.0,0.0,0.0,0.0,0.0,0.0,0.0,0.0,0.0,0.0,0.0,0.0,0.0,0.0,0.0,0.0,0.0,0.0,0.0,0.0,0.0,0.0,0.0,0.0,0.0,0.0,0.0,0.0,0.0,0.0,0.0,0.0,0.0,0.0,0.0,0.0,0.0,0.0,0.0,0.0,0.0,0.0,0.0,0.0,0.0,0.0,0.0,0.0,0.0,0.0,0.0,0.0,0.0,0.0,0.0,0.0,0.0,0.0,0.0,0.0,0.0,0.0,0.0,0.0,0.0,0.0,0.0,0.0,0.0,0.0,0.0,0.0,0.0,0.0,0.0,0.0,0.0,0.0,0.0,0.0,0.0,0.0,0.0,0.0,0.0,0.0,0.0,0.0,0.0,0.0,0.0,0.0,0.0,0.0,0.0,0.0,0.0,0.0,0.0,0.0,0.0,0.0,0.0,0.0,0.0,0.0,0.0,0.0,0.0,0.0,0.0,0.0,0.0,0.0,0.0,0.0,0.0,0.0,0.0,0.0,0.0,0.0,0.0,0.0,0.0,0.0,0.0,0.0,0.0,0.0,0.0,0.0,0.0,0.0,0.0,0.0,0.0,0.0,0.0,0.0,0.0,0.0,0.0,0.0,0.0,0.0,0.0,0.0,0.0,0.0,0.0,0.0,0.0,0.0,0.0,0.0,0.0,0.0,0.0,0.0,0.0,0.0,0.0,0.0,0.0,0.0,0.0,0.0,0.0,0.0,0.0,0.0,0.0,0.0,0.0,0.0,0.0,0.0,0.0,0.0,0.0,0.0,0.0,0.0,0.0,0.0,0.0,0.0,0.0,0.0,0.0,0.0,0.0,0.0,0.0,0.0,0.0,0.0,0.0,0.0,0.0,0.0,0.0,0.0,0.0,0.0,0.0,0.0,0.0,0.0,0.0,0.0,0.0,0.0,0.0,0.0,0.0,0.0,0.0,0.0,0.0,0.0,0.0,0.0,0.0,0.0,0.0,0.0,0.0,0.0,0.0,0.0,0.0,0.0,0.0,0.0,0.0,0.0,0.0,0.0,0.0,0.0,0.0,0.0,-1.4922,0.0,0.0,0.0,-1.4604,0.0,0.0,0.0,0.0,0.0,0.0,0.0,0.0,0.0,0.0,0.0,0.0,0.0,0.0,0.0,0.0,0.0,0.0,0.0,0.0,0.0,0.0,0.0,0.0,0.0,0.0,0.0,0.0,0.0,0.0,0.0,0.0,0.0,0.0,0.0,0.0,0.0,0.0,0.0,0.0,0.0,0.0,0.0,0.0,0.0,0.0,0.0,0.0,0.0,0.0,0.0,0.0,0.0,0.0,0.0,0.0,0.0,0.0,0.0,0.0,0.0,0.0,0.0,0.0,0.0,0.0,0.0,0.0,0.0,0.0,0.0,0.0,0.0,0.0,0.0,0.0,0.0,0.0,0.0,0.0,0.0,0.0,0.0,0.0,0.0,0.0,0.0,0.0,0.0,0.0,0.0,0.0,0.0,0.0,0.0,0.0,0.0,0.0,0.0,0.0,0.0,0.0,0.0,0.0,0.0,0.0,0.0,0.0,0.0,0.0,-1.5215,-1.5376,-1.4721,-1.4474,-1.4662,0.0,0.0,0.0,0.0,0.0,0.0,0.0,0.0,0.0,0.0,0.0,0.0,0.0,0.0,0.0,0.0,0.0,0.0,0.0,0.0,0.0,0.0,0.0,0.0,0.0,0.0,0.0,0.0,0.0,0.0,0.0,0.0,0.0,0.0,0.0,0.0,0.0,0.0,0.0,0.0,0.0,0.0,0.0,0.0,0.0,0.0,0.0,0.0,0.0,0.0,0.0,0.0,0.0,0.0,0.0,0.0,0.0,0.0,0.0,0.0,0.0,0.0,0.0,0.0,0.0,0.0,0.0,0.0,0.0,0.0,0.0,0.0,0.0,0.0,0.0,0.0,0.0,0.0,0.0,0.0,0.0,0.0,0.0,0.0,0.0,0.0,0.0,0.0,0.0,0.0,0.0,0.0,0.0,0.0,0.0,0.0,0.0,0.0,0.0,0.0,0.0,0.0,0.0,0.0,0.0,0.0,0.0,0.0,0.0,0.0,0.0,0.0,-1.484,-1.4611,-1.4563,0.0,0.0,0.0,0.0,0.0,0.0,0.0,0.0,0.0,0.0,0.0,0.0,0.0,0.0,0.0,0.0,0.0,0.0,0.0,0.0,0.0,0.0,0.0,0.0,0.0,0.0,0.0,0.0,0.0,0.0,0.0,0.0,0.0,0.0,0.0,0.0,0.0,0.0,0.0,0.0,0.0,0.0,0.0,0.0,0.0,0.0,0.0,0.0,0.0,0.0,0.0,0.0,0.0,0.0,0.0,0.0,0.0,0.0,0.0,0.0,0.0,0.0,0.0,0.0,0.0,0.0,0.0,0.0,0.0,0.0,0.0,0.0,0.0,0.0,0.0,0.0,0.0,0.0,0.0,0.0,0.0,0.0,0.0,0.0,0.0,0.0,0.0,0.0,0.0,0.0,0.0,0.0,0.0,0.0,0.0,0.0,0.0,0.0,0.0,0.0,0.0,0.0,0.0,0.0,0.0,0.0,0.0,0.0,0.0,0.0,-1.5064,-1.478,-1.4713,0.0,-1.4481,0.0,0.0,0.0,0.0,0.0,0.0,0.0,0.0,0.0,0.0,0.0,0.0,0.0,0.0,0.0,0.0,0.0,0.0,0.0,0.0,0.0,0.0,0.0,0.0,0.0,0.0,0.0,0.0,0.0,0.0,0.0,0.0,0.0,0.0,0.0,0.0,0.0,0.0,0.0,0.0,0.0,0.0,0.0,0.0,0.0,0.0,0.0,0.0,0.0,0.0,0.0,0.0,0.0,0.0,0.0,0.0,0.0,0.0,0.0,0.0,0.0,0.0,0.0,0.0,0.0,0.0,0.0,0.0,0.0,0.0,0.0,0.0,0.0,0.0,0.0,0.0,0.0,0.0,0.0,0.0,0.0,0.0,0.0,0.0,0.0,0.0,0.0,0.0,0.0,0.0,0.0,0.0,0.0,0.0,0.0,0.0,0.0,0.0,0.0,0.0,0.0,0.0,0.0,0.0,0.0,0.0,0.0,0.0,0.0,0.0,-1.468,-1.4413,-1.4264,-1.4145,0.0,0.0,0.0,0.0,0.0,0.0,0.0,0.0,0.0,0.0,0.0,0.0,0.0,0.0,0.0,0.0,0.0,0.0,0.0,0.0,0.0,0.0,0.0,0.0,0.0,0.0,0.0,0.0,0.0,0.0,0.0,0.0,0.0,0.0,0.0,0.0,0.0,0.0,0.0,0.0,0.0,0.0,0.0,0.0,0.0,0.0,0.0,0.0,0.0,0.0,0.0,0.0,0.0,0.0,0.0,0.0,0.0,0.0,0.0,0.0,0.0,0.0,0.0,0.0,0.0,0.0,0.0,0.0,0.0,0.0,0.0,0.0,0.0,0.0,0.0,0.0,0.0,0.0,0.0,0.0,0.0,0.0,0.0,0.0,0.0,0.0,0.0,0.0,0.0,0.0,0.0,0.0,0.0,0.0,0.0,0.0,0.0,0.0,0.0,0.0,0.0,0.0,0.0,0.0,0.0,0.0,0.0,0.0,0.0,0.0,-1.4469,-1.4152,-1.388,-1.3636,-1.3493,-1.3452,0.0,0.0,0.0,0.0,0.0,0.0,0.0,0.0,0.0,0.0,0.0,0.0,0.0,0.0,0.0,0.0,0.0,0.0,0.0,0.0,0.0,0.0,0.0,0.0,0.0,0.0,0.0,0.0,0.0,0.0,0.0,0.0,0.0,0.0,0.0,0.0,0.0,0.0,0.0,0.0,0.0,0.0,0.0,0.0,0.0,0.0,0.0,0.0,0.0,0.0,0.0,0.0,0.0,0.0,0.0,0.0,0.0,0.0,0.0,0.0,0.0,0.0,0.0,0.0,0.0,0.0,0.0,0.0,0.0,0.0,0.0,0.0,0.0,0.0,0.0,0.0,0.0,0.0,0.0,0.0,0.0,0.0,0.0,0.0,0.0,0.0,0.0,0.0,0.0,0.0,0.0,0.0,0.0,0.0,0.0,0.0,0.0,0.0,0.0,0.0,0.0,0.0,0.0,0.0,0.0,0.0,0.0,0.0,-1.4513,-1.3994,-1.3505,-1.3076,-1.2852,-1.2696,0.0,0.0,0.0,0.0,0.0,0.0,0.0,0.0,0.0,0.0,0.0,0.0,0.0,0.0,0.0,0.0,0.0,0.0,0.0,0.0,0.0,0.0,0.0,0.0,0.0,0.0,0.0,0.0,0.0,0.0,0.0,0.0,0.0,0.0,0.0,0.0,0.0,0.0,0.0,0.0,0.0,0.0,0.0,0.0,0.0,0.0,0.0,0.0,0.0,0.0,0.0,0.0,0.0,0.0,0.0,0.0,0.0,0.0,0.0,0.0,0.0,0.0,0.0,0.0,0.0,0.0,0.0,0.0,0.0,0.0,0.0,0.0,0.0,0.0,0.0,0.0,0.0,0.0,0.0,0.0,0.0,0.0,0.0,0.0,0.0,0.0,0.0,0.0,0.0,0.0,0.0,0.0,0.0,0.0,0.0,0.0,0.0,0.0,0.0,0.0,0.0,0.0,0.0,0.0,0.0,0.0,0.0,0.0,0.0,-1.4338,-1.3639,-1.2956,-1.2384,-1.2288,-1.2154,0.0,0.0,0.0,0.0,0.0,0.0,0.0,0.0,0.0,0.0,0.0,0.0,0.0,0.0,0.0,0.0,0.0,0.0,0.0,0.0,0.0,0.0,0.0,0.0,0.0,0.0,0.0,0.0,0.0,0.0,0.0,0.0,0.0,0.0,0.0,0.0,0.0,0.0,0.0,0.0,0.0,0.0,0.0,0.0,0.0,0.0,0.0,0.0,0.0,0.0,0.0,0.0,0.0,0.0,0.0,0.0,0.0,0.0,0.0,0.0,0.0,0.0,0.0,0.0,0.0,0.0,0.0,0.0,0.0,0.0,0.0,0.0,0.0,0.0,0.0,0.0,0.0,0.0,0.0,0.0,0.0,0.0,0.0,0.0,0.0,0.0,0.0,0.0,0.0,0.0,0.0,0.0,0.0,0.0,0.0,0.0,0.0,0.0,0.0,0.0,0.0,0.0,0.0,0.0,0.0,0.0,0.0,0.0,0.0,-1.3676,-1.3222,-1.2672,-1.2064,-1.195,-1.1799,0.0,0.0,0.0,0.0,0.0,0.0,0.0,0.0,0.0,0.0,0.0,0.0,0.0,0.0,0.0,0.0,0.0,0.0,0.0,0.0,0.0,0.0,0.0,0.0,0.0,0.0,0.0,0.0,0.0,0.0,0.0,0.0,0.0,0.0,0.0,0.0,0.0,0.0,0.0,0.0,0.0,0.0,0.0,0.0,0.0,0.0,0.0,0.0,0.0,0.0,0.0,0.0,0.0,0.0,0.0,0.0,0.0,0.0,0.0,0.0,0.0,0.0,0.0,0.0,0.0,0.0,0.0,0.0,0.0,0.0,0.0,0.0,0.0,0.0,0.0,0.0,0.0,0.0,0.0,0.0,0.0,0.0,0.0,0.0,0.0,0.0,0.0,0.0,0.0,0.0,0.0,0.0,0.0,0.0,0.0,0.0,0.0,0.0,0.0,0.0,0.0,0.0,0.0,0.0,0.0,0.0,0.0,0.0,-1.2758,-1.2449,-1.2725,-1.2639,-1.2112,-1.1847,-1.1644,0.0,0.0,0.0,0.0,0.0,0.0,0.0,0.0,0.0,0.0,0.0,0.0,0.0,0.0,0.0,0.0,0.0,0.0,0.0,0.0,0.0,0.0,0.0,0.0,0.0,0.0,0.0,0.0,0.0,0.0,0.0,0.0,0.0,0.0,0.0,0.0,0.0,0.0,0.0,0.0,0.0,0.0,0.0,0.0,0.0,0.0,0.0,0.0,0.0,0.0,0.0,0.0,0.0,0.0,0.0,0.0,0.0,0.0,0.0,0.0,0.0,0.0,0.0,0.0,0.0,0.0,0.0,0.0,0.0,0.0,0.0,0.0,0.0,0.0,0.0,0.0,0.0,0.0,0.0,0.0,0.0,0.0,0.0,0.0,0.0,0.0,0.0,0.0,0.0,0.0,0.0,0.0,0.0,0.0,0.0,0.0,0.0,0.0,0.0,0.0,0.0,0.0,0.0,0.0,0.0,0.0,0.0,0.0,0.0,-1.2535,-1.265,-1.2462,-1.1984,-1.189,-1.1624,0.0,0.0,0.0,0.0,0.0,0.0,0.0,0.0,0.0,0.0,0.0,0.0,0.0,0.0,0.0,0.0,0.0,0.0,0.0,0.0,0.0,0.0,0.0,0.0,0.0,0.0,0.0,0.0,0.0,0.0,0.0,0.0,0.0,0.0,0.0,0.0,0.0,0.0,0.0,0.0,0.0,0.0,0.0,0.0,0.0,0.0,0.0,0.0,0.0,0.0,0.0,0.0,0.0,0.0,0.0,0.0,0.0,0.0,0.0,0.0,0.0,0.0,0.0,0.0,0.0,0.0,0.0,0.0,0.0,0.0,0.0,0.0,0.0,0.0,0.0,0.0,0.0,0.0,0.0,0.0,0.0,0.0,0.0,0.0,0.0,0.0,0.0,0.0,0.0,0.0,0.0,0.0,0.0,0.0,0.0,0.0,0.0,0.0,0.0,0.0,0.0,0.0,0.0,0.0,0.0,0.0,0.0,0.0,0.0,-1.267,-1.2562,-1.2339,-1.2056,-1.1948,-1.1667,-1.1169,0.0,0.0,0.0,0.0,0.0,0.0,0.0,0.0,0.0,0.0,0.0,0.0,0.0,0.0,0.0,0.0,0.0,0.0,0.0,0.0,0.0,0.0,0.0,0.0,0.0,0.0,0.0,0.0,0.0,0.0,0.0,0.0,0.0,0.0,0.0,0.0,0.0,0.0,0.0,0.0,0.0,0.0,0.0,0.0,0.0,0.0,0.0,0.0,0.0,0.0,0.0,0.0,0.0,0.0,0.0,0.0,0.0,0.0,0.0,0.0,0.0,0.0,0.0,0.0,0.0,0.0,0.0,0.0,0.0,0.0,0.0,0.0,0.0,0.0,0.0,0.0,0.0,0.0,0.0,0.0,0.0,0.0,0.0,0.0,0.0,0.0,0.0,0.0,0.0,0.0,0.0,0.0,0.0,0.0,0.0,0.0,0.0,0.0,0.0,0.0,0.0,0.0,0.0,0.0,0.0,0.0,0.0,0.0,-1.2837,-1.2524,-1.2358,-1.2318,-1.2082,-1.1757,0.0,0.0,0.0,0.0,0.0,0.0,0.0,0.0,0.0,0.0,0.0,0.0,0.0,0.0,0.0,0.0,0.0,0.0,0.0,0.0,0.0,0.0,0.0,0.0,0.0,0.0,0.0,0.0,0.0,0.0,0.0,0.0,0.0,0.0,0.0,0.0,0.0,0.0,0.0,0.0,0.0,0.0,0.0,0.0,0.0,0.0,0.0,0.0,0.0,0.0,0.0,0.0,0.0,0.0,0.0,0.0,0.0,0.0,0.0,0.0,0.0,0.0,0.0,0.0,0.0,0.0,0.0,0.0,0.0,0.0,0.0,0.0,0.0,0.0,0.0,0.0,0.0,0.0,0.0,0.0,0.0,0.0,0.0,0.0,0.0,0.0,0.0,0.0,0.0,0.0,0.0,0.0,0.0,0.0,0.0,0.0,0.0,0.0,0.0,0.0,0.0,0.0,0.0,0.0,0.0,0.0,0.0,0.0,0.0,-1.3353,-1.31,-1.2885,-1.2677,-1.2596,-1.2208,0.0,0.0,0.0,0.0,0.0,0.0,0.0,0.0,0.0,0.0,0.0,0.0,0.0,0.0,0.0,0.0,0.0,0.0,0.0,0.0,0.0,0.0,0.0,0.0,0.0,0.0,0.0,0.0,0.0,0.0,0.0,0.0,0.0,0.0,0.0,0.0,0.0,0.0,0.0,0.0,0.0,0.0,0.0,0.0,0.0,0.0,0.0,0.0,0.0,0.0,0.0,0.0,0.0,0.0,0.0,0.0,0.0,0.0,0.0,0.0,0.0,0.0,0.0,0.0,0.0,0.0,0.0,0.0,0.0,0.0,0.0,0.0,0.0,0.0,0.0,0.0,0.0,0.0,0.0,0.0,0.0,0.0,0.0,0.0,0.0,0.0,0.0,0.0,0.0,0.0,0.0,0.0,0.0,0.0,0.0,0.0,0.0,0.0,0.0,0.0,0.0,0.0,0.0,0.0,0.0,0.0,0.0,0.0,-1.3501,-1.3807,-1.3908,-1.3768,-1.336,-1.3004,-1.247,0.0,0.0,0.0,0.0,0.0,0.0,0.0,0.0,0.0,0.0,0.0,0.0,0.0,0.0,0.0,0.0,0.0,0.0,0.0,0.0,0.0,0.0,0.0,0.0,0.0,0.0,0.0,0.0,0.0,0.0,0.0,0.0,0.0,0.0,0.0,0.0,0.0,0.0,0.0,0.0,0.0,0.0,0.0,0.0,0.0,0.0,0.0,0.0,0.0,0.0,0.0,0.0,0.0,0.0,0.0,0.0,0.0,0.0,0.0,0.0,0.0,0.0,0.0,0.0,0.0,0.0,0.0,0.0,0.0,0.0,0.0,0.0,0.0,0.0,0.0,0.0,0.0,0.0,0.0,0.0,0.0,0.0,0.0,0.0,0.0,0.0,0.0,0.0,0.0,0.0,0.0,0.0,0.0,0.0,0.0,0.0,0.0,0.0,0.0,0.0,0.0,0.0,0.0,0.0,0.0,0.0,0.0,0.0,-1.4148,-1.4269,-1.4767,-1.4745,-1.425,-1.338,-1.2711,0.0,0.0,0.0,0.0,0.0,0.0,0.0,0.0,0.0,0.0,0.0,0.0,0.0,0.0,0.0,0.0,0.0,0.0,0.0,0.0,0.0,0.0,0.0,0.0,0.0,0.0,0.0,0.0,0.0,0.0,0.0,0.0,0.0,0.0,0.0,0.0,0.0,0.0,0.0,0.0,0.0,0.0,0.0,0.0,0.0,0.0,0.0,0.0,0.0,0.0,0.0,0.0,0.0,0.0,0.0,0.0,0.0,0.0,0.0,0.0,0.0,0.0,0.0,0.0,0.0,0.0,0.0,0.0,0.0,0.0,0.0,0.0,0.0,0.0,0.0,0.0,0.0,0.0,0.0,0.0,0.0,0.0,0.0,0.0,0.0,0.0,0.0,0.0,0.0,0.0,0.0,0.0,0.0,0.0,0.0,0.0,0.0,0.0,0.0,0.0,0.0,0.0,0.0,0.0,0.0,0.0,0.0,0.0,-1.4536,-1.5394,-1.5137,-1.5039,-1.5133,-1.4269,-1.3353,0.0,0.0,0.0,0.0,0.0,0.0,0.0,0.0,0.0,0.0,0.0,0.0,0.0,0.0,0.0,0.0,0.0,0.0,0.0,0.0,0.0,0.0,0.0,0.0,0.0,0.0,0.0,0.0,0.0,0.0,0.0,0.0,0.0,0.0,0.0,0.0,0.0,0.0,0.0,0.0,0.0,0.0,0.0,0.0,0.0,0.0,0.0,0.0,-0.8599,0.0,0.0,0.0,0.0,0.0,0.0,0.0,0.0,0.0,0.0,0.0,0.0,0.0,0.0,0.0,0.0,0.0,0.0,0.0,0.0,0.0,0.0,0.0,0.0,0.0,0.0,0.0,0.0,0.0,0.0,0.0,0.0,0.0,0.0,0.0,0.0,0.0,0.0,0.0,0.0,0.0,0.0,0.0,0.0,0.0,0.0,0.0,0.0,0.0,0.0,0.0,0.0,0.0,0.0,0.0,0.0,0.0,0.0,0.0,-1.5048,-1.5768,-1.5805,-1.5725,-1.5591,-1.515,-1.4215,0.0,0.0,0.0,0.0,0.0,0.0,0.0,0.0,0.0,0.0,0.0,0.0,0.0,0.0,0.0,0.0,0.0,0.0,0.0,0.0,0.0,0.0,0.0,0.0,0.0,0.0,0.0,0.0,0.0,0.0,0.0,0.0,0.0,0.0,0.0,0.0,0.0,0.0,0.0,0.0,0.0,0.0,0.0,0.0,0.0,0.0,0.0,0.0,0.0,0.0,0.0,0.0,0.0,0.0,0.0,0.0,0.0,0.0,0.0,0.0,0.0,0.0,0.0,0.0,0.0,0.0,0.0,0.0,0.0,0.0,0.0,0.0,0.0,0.0,0.0,0.0,0.0,0.0,0.0,0.0,0.0,0.0,0.0,0.0,0.0,0.0,0.0,0.0,0.0,0.0,0.0,0.0,0.0,0.0,0.0,0.0,0.0,0.0,0.0,0.0,0.0,0.0,0.0,0.0,0.0,0.0,0.0,-1.5017,-1.5645,-1.6008,-1.6473,-1.6435,-1.5955,-1.5848,-1.5008,-1.3327,0.0,0.0,0.0,0.0,0.0,0.0,0.0,0.0,0.0,0.0,0.0,0.0,0.0,0.0,0.0,0.0,0.0,0.0,0.0,0.0,0.0,0.0,0.0,0.0,0.0,0.0,0.0,0.0,0.0,0.0,0.0,0.0,0.0,0.0,0.0,0.0,0.0,0.0,-0.9095,-0.9406,0.0,0.0,0.0,0.0,0.0,0.0,0.0,0.0,-0.9576,0.0,0.0,0.0,0.0,0.0,0.0,0.0,0.0,0.0,0.0,0.0,0.0,0.0,0.0,0.0,0.0,0.0,0.0,0.0,0.0,0.0,0.0,0.0,0.0,0.0,0.0,0.0,0.0,0.0,0.0,0.0,0.0,0.0,0.0,0.0,0.0,0.0,0.0,0.0,0.0,0.0,0.0,0.0,0.0,0.0,0.0,0.0,0.0,0.0,0.0,0.0,0.0,0.0,0.0,0.0,0.0,-1.4434,-1.5288,-1.6115,-1.6951,-1.6805,-1.666,-1.6528,-1.6061,-1.5078,-1.3613,0.0,0.0,0.0,0.0,0.0,0.0,0.0,0.0,0.0,0.0,0.0,0.0,0.0,0.0,0.0,0.0,0.0,0.0,0.0,0.0,0.0,0.0,0.0,0.0,0.0,0.0,0.0,0.0,0.0,0.0,0.0,0.0,0.0,0.0,0.0,0.0,0.0,0.0,0.0,-0.999,-1.0346,0.0,0.0,0.0,0.0,0.0,0.0,0.0,0.0,-0.9925,0.0,0.0,0.0,0.0,0.0,0.0,0.0,0.0,0.0,0.0,0.0,0.0,0.0,0.0,0.0,0.0,0.0,0.0,0.0,0.0,0.0,0.0,0.0,0.0,0.0,0.0,0.0,0.0,0.0,0.0,0.0,0.0,0.0,0.0,0.0,0.0,0.0,0.0,0.0,0.0,0.0,0.0,0.0,0.0,0.0,0.0,0.0,0.0,0.0,0.0,0.0,0.0,0.0,0.0,0.0,-1.4954,-1.6016,-1.6819,-1.7381,-1.7395,-1.7248,-1.6966,-1.6243,-1.5236,0.0,0.0,0.0,0.0,0.0,0.0,0.0,0.0,0.0,0.0,0.0,0.0,0.0,0.0,0.0,0.0,0.0,0.0,0.0,0.0,0.0,0.0,0.0,0.0,0.0,0.0,0.0,0.0,0.0,0.0,0.0,0.0,0.0,0.0,0.0,0.0,0.0,0.0,0.0,0.0,-1.0641,-1.0961,-1.1628,0.0,0.0,0.0,0.0,0.0,0.0,-1.0809,-1.0581,0.0,0.0,0.0,0.0,0.0,0.0,0.0,0.0,0.0,0.0,0.0,0.0,0.0,0.0,0.0,0.0,0.0,0.0,0.0,0.0,0.0,0.0,0.0,0.0,0.0,0.0,0.0,0.0,0.0,0.0,0.0,0.0,0.0,0.0,0.0,0.0,0.0,0.0,0.0,0.0,0.0,0.0,0.0,0.0,0.0,0.0,0.0,0.0,0.0,0.0,0.0,0.0,0.0,0.0,0.0,-1.5404,-1.6632,-1.7434,-1.7662,-1.7956,-1.7849,-1.7367,-1.6475,-1.5449,0.0,0.0,0.0,0.0,0.0,0.0,0.0,0.0,0.0,0.0,0.0,0.0,0.0,0.0,0.0,0.0,0.0,0.0,0.0,0.0,0.0,0.0,0.0,0.0,0.0,0.0,0.0,0.0,0.0,0.0,0.0,0.0,0.0,0.0,0.0,0.0,0.0,0.0,0.0,0.0,0.0,-1.1489,-1.2334,-1.2192,0.0,0.0,0.0,0.0,-1.1701,-1.1388,0.0,0.0,0.0,0.0,0.0,0.0,0.0,0.0,0.0,0.0,0.0,0.0,0.0,0.0,0.0,0.0,0.0,0.0,0.0,0.0,0.0,0.0,0.0,0.0,0.0,0.0,0.0,0.0,0.0,0.0,0.0,0.0,0.0,0.0,0.0,0.0,0.0,0.0,0.0,0.0,0.0,0.0,0.0,0.0,0.0,0.0,0.0,0.0,0.0,0.0,0.0,0.0,0.0,0.0,0.0,0.0,-1.5418,-1.6807,-1.7675,-1.7956,-1.8277,-1.8249,-1.7889,-1.6832,-1.5725,0.0,0.0,0.0,0.0,0.0,0.0,0.0,0.0,0.0,0.0,0.0,0.0,0.0,0.0,0.0,0.0,0.0,0.0,0.0,0.0,0.0,0.0,0.0,0.0,0.0,0.0,0.0,0.0,0.0,0.0,0.0,0.0,0.0,0.0,0.0,0.0,0.0,0.0,0.0,0.0,0.0,-1.1834,-1.2865,-1.2566,-1.2433,0.0,0.0,-1.2231,-1.2207,-1.1786,0.0,0.0,0.0,0.0,0.0,0.0,0.0,0.0,0.0,0.0,0.0,0.0,0.0,0.0,0.0,0.0,0.0,0.0,0.0,0.0,0.0,0.0,0.0,0.0,0.0,0.0,0.0,0.0,0.0,0.0,0.0,0.0,0.0,0.0,0.0,0.0,0.0,0.0,0.0,0.0,0.0,0.0,0.0,0.0,0.0,0.0,0.0,0.0,0.0,0.0,0.0,0.0,0.0,0.0,0.0,-1.5311,-1.5925,-1.7355,-1.783,-1.7234,-1.7497,-1.7393,-1.6938,-1.5709,-1.4871,0.0,0.0,0.0,0.0,0.0,0.0,0.0,0.0,0.0,0.0,0.0,0.0,0.0,0.0,0.0,0.0,0.0,0.0,0.0,0.0,0.0,0.0,0.0,0.0,0.0,0.0,0.0,0.0,0.0,0.0,0.0,0.0,0.0,0.0,0.0,0.0,0.0,0.0,0.0,0.0,0.0,0.0,-1.3806,-1.3542,0.0,0.0,0.0,-1.3157,-1.2998,0.0,0.0,0.0,0.0,0.0,0.0,0.0,0.0,0.0,0.0,0.0,0.0,0.0,0.0,0.0,0.0,0.0,0.0,0.0,0.0,0.0,0.0,0.0,0.0,0.0,0.0,0.0,0.0,0.0,0.0,0.0,0.0,0.0,0.0,0.0,0.0,0.0,0.0,0.0,0.0,0.0,0.0,0.0,0.0,0.0,0.0,0.0,0.0,0.0,0.0,0.0,0.0,0.0,0.0,0.0,0.0,0.0,-1.6417,-1.7796,-1.8072,-1.7229,-1.7448,-1.7333,-1.6781,-1.534,0.0,0.0,0.0,0.0,0.0,0.0,0.0,0.0,0.0,0.0,0.0,0.0,0.0,0.0,0.0,0.0,0.0,0.0,0.0,0.0,0.0,0.0,0.0,0.0,0.0,0.0,0.0,-0.9078,0.0,0.0,0.0,0.0,0.0,0.0,0.0,0.0,0.0,0.0,0.0,0.0,0.0,0.0,-1.3899,-1.4631,-1.4511,-1.4488,0.0,0.0,-1.4256,-1.4065,-1.3655,-1.3317,0.0,0.0,0.0,0.0,0.0,0.0,0.0,0.0,0.0,0.0,0.0,0.0,0.0,0.0,0.0,0.0,0.0,0.0,0.0,0.0,0.0,0.0,0.0,0.0,0.0,0.0,0.0,0.0,0.0,0.0,0.0,0.0,0.0,0.0,0.0,0.0,0.0,0.0,0.0,0.0,0.0,0.0,0.0,0.0,0.0,0.0,0.0,0.0,0.0,0.0,0.0,0.0,0.0,0.0,-1.5818,-1.6687,-1.7876,-1.854,-1.8721,-1.907,-1.907,-1.8695,-1.6805,-1.5916,0.0,0.0,0.0,0.0,0.0,0.0,0.0,0.0,0.0,0.0,0.0,0.0,0.0,0.0,0.0,0.0,0.0,0.0,0.0,0.0,0.0,0.0,0.0,0.0,0.0,0.0,0.0,0.0,0.0,0.0,0.0,0.0,0.0,0.0,0.0,0.0,0.0,0.0,0.0,0.0,0.0,-1.4416,-1.499,-1.5309,-1.5589,0.0,-1.5678,-1.5462,-1.5461,-1.4771,-1.4122,-1.3873,0.0,0.0,0.0,0.0,0.0,0.0,0.0,0.0,0.0,0.0,0.0,0.0,0.0,0.0,0.0,0.0,0.0,0.0,0.0,0.0,0.0,0.0,0.0,0.0,0.0,0.0,0.0,0.0,0.0,0.0,0.0,0.0,0.0,0.0,0.0,0.0,0.0,0.0,0.0,0.0,0.0,0.0,0.0,0.0,0.0,0.0,0.0,0.0,0.0,0.0,0.0,0.0,0.0,-1.5769,-1.7209,-1.6673,-1.6958,-1.7964,-1.7406,-1.736,-1.8047,-1.676,-1.6026,0.0,0.0,0.0,0.0,0.0,0.0,0.0,0.0,0.0,0.0,0.0,0.0,0.0,0.0,0.0,0.0,0.0,0.0,0.0,0.0,0.0,0.0,0.0,0.0,0.0,0.0,0.0,0.0,-1.1918,-1.2281,-1.2337,0.0,0.0,0.0,0.0,0.0,0.0,0.0,0.0,0.0,0.0,-1.5739,-1.6318,-1.6376,0.0,0.0,-1.6795,-1.6523,-1.638,-1.5912,-1.5486,-1.5186,-1.4317,0.0,0.0,0.0,0.0,0.0,0.0,0.0,0.0,0.0,0.0,0.0,0.0,0.0,0.0,0.0,0.0,0.0,0.0,0.0,0.0,0.0,0.0,0.0,0.0,0.0,0.0,0.0,0.0,0.0,0.0,0.0,0.0,0.0,0.0,0.0,0.0,0.0,0.0,0.0,0.0,0.0,0.0,0.0,0.0,0.0,0.0,0.0,0.0,0.0,0.0,0.0,0.0,-1.6083,-1.7568,-1.6787,-1.699,-1.8164,-1.7393,-1.7399,-1.823,-1.6833,-1.604,0.0,0.0,0.0,0.0,0.0,0.0,0.0,0.0,0.0,0.0,0.0,0.0,0.0,0.0,0.0,0.0,0.0,0.0,0.0,0.0,0.0,0.0,0.0,0.0,0.0,0.0,0.0,0.0,-1.2828,-1.3052,-1.3032,0.0,0.0,0.0,0.0,0.0,0.0,0.0,0.0,0.0,0.0,-1.6872,-1.7341,-1.7371,-1.745,-1.7872,-1.7739,-1.7529,-1.7331,-1.7068,-1.6752,-1.6349,0.0,0.0,0.0,0.0,0.0,0.0,0.0,0.0,0.0,0.0,0.0,0.0,0.0,0.0,0.0,0.0,0.0,0.0,0.0,0.0,0.0,0.0,0.0,0.0,0.0,0.0,0.0,-1.1117,0.0,0.0,-1.0224,0.0,0.0,0.0,0.0,0.0,0.0,0.0,0.0,0.0,0.0,0.0,0.0,0.0,0.0,0.0,0.0,0.0,0.0,0.0,0.0,0.0,0.0,-1.6882,-1.7507,-1.8508,-1.933,-1.9681,-1.9947,-2.0032,-2.0049,-1.7291,-1.6127,-1.6926,0.0,0.0,0.0,0.0,0.0,0.0,0.0,0.0,0.0,0.0,0.0,0.0,0.0,0.0,0.0,0.0,0.0,0.0,0.0,0.0,0.0,0.0,0.0,0.0,0.0,0.0,-1.2529,-1.316,-1.36,0.0,0.0,0.0,0.0,0.0,0.0,0.0,0.0,0.0,-1.6553,-1.7207,-1.7675,-1.7969,-1.8263,-1.8477,-1.8504,-1.849,-1.8477,-1.8477,-1.8196,-1.7782,0.0,0.0,0.0,0.0,0.0,0.0,0.0,0.0,0.0,0.0,0.0,0.0,0.0,0.0,0.0,0.0,0.0,0.0,0.0,0.0,0.0,0.0,0.0,0.0,0.0,0.0,0.0,-1.1273,-1.1089,0.0,0.0,0.0,0.0,0.0,0.0,0.0,0.0,0.0,0.0,0.0,-1.2406,-1.231,0.0,0.0,0.0,0.0,0.0,0.0,0.0,0.0,0.0,0.0,0.0,0.0,-1.5812,-1.6958,-1.6395,-1.7119,-1.9187,-1.928,-1.9753,-2.0771,-1.9437,-1.8311,-1.7471,0.0,0.0,0.0,0.0,0.0,0.0,0.0,0.0,0.0,0.0,0.0,0.0,0.0,0.0,0.0,0.0,0.0,0.0,0.0,0.0,0.0,0.0,0.0,0.0,0.0,-1.3532,0.0,0.0,0.0,0.0,0.0,0.0,0.0,0.0,0.0,0.0,0.0,-1.7034,-1.7502,-1.8103,-1.8651,-1.9145,-1.9305,-1.9426,0.0,0.0,0.0,0.0,0.0,0.0,0.0,0.0,0.0,0.0,0.0,0.0,0.0,0.0,-1.4756,-1.3913,-1.3474,-1.3187,-1.3119,0.0,0.0,0.0,0.0,0.0,0.0,0.0,0.0,0.0,0.0,0.0,0.0,0.0,0.0,-1.1266,-1.1236,-1.1672,0.0,0.0,0.0,0.0,0.0,0.0,0.0,0.0,-1.1509,-1.2035,-1.2577,-1.2435,-1.2606,0.0,-1.3256,-1.3155,0.0,0.0,0.0,0.0,0.0,0.0,0.0,0.0,-1.6319,-1.7267,-1.6929,-1.7711,-1.963,-1.9858,-2.0393,-2.1325,-1.9908,-1.8756,-1.7943,-1.6632,-1.5865,0.0,0.0,0.0,0.0,0.0,0.0,0.0,0.0,0.0,0.0,0.0,0.0,0.0,0.0,0.0,0.0,0.0,0.0,0.0,0.0,0.0,0.0,0.0,-1.4963,0.0,0.0,0.0,0.0,0.0,0.0,0.0,0.0,0.0,-1.6551,-1.7288,-1.805,-1.845,-1.889,-1.9439,-2.0027,0.0,0.0,0.0,0.0,0.0,0.0,0.0,-1.9573,-1.925,-1.8824,-1.8382,-1.8045,-1.7657,-1.7327,-1.7145,0.0,0.0,-1.5368,-1.4783,-1.4417,-1.4361,-1.4121,-1.399,-1.4135,-1.4268,-1.4401,0.0,0.0,0.0,0.0,-1.1508,0.0,0.0,0.0,-1.1517,-1.1517,0.0,-1.1818,0.0,0.0,0.0,0.0,-1.0886,-1.1126,0.0,0.0,-1.1792,-1.267,-1.3748,-1.2917,-1.3172,-1.4269,-1.325,-1.2821,-1.2958,-1.3922,0.0,0.0,0.0,0.0,0.0,0.0,-1.8197,-1.8134,-1.9889,-2.0946,-2.0967,-2.1672,-2.2017,-2.1944,-1.8968,-1.7707,-1.8251,-1.6399,-1.61,-1.7983,-1.6818,0.0,0.0,0.0,0.0,0.0,0.0,0.0,0.0,0.0,0.0,0.0,0.0,0.0,0.0,0.0,0.0,0.0,0.0,0.0,0.0,-1.5852,0.0,0.0,0.0,0.0,0.0,0.0,0.0,0.0,0.0,0.0,-1.7996,-1.8305,-1.8827,-1.939,0.0,0.0,0.0,0.0,-2.0766,-2.0779,-2.0766,-2.0641,-2.033,-2.0264,-2.0157,-1.9907,0.0,0.0,-1.8651,-1.8544,-1.8557,-1.8531,-1.8262,-1.7635,-1.6356,-1.5872,-1.5557,-1.5283,-1.5084,-1.4873,-1.4835,-1.5164,-1.5369,-1.2194,0.0,0.0,0.0,0.0,-1.1703,-1.1732,-1.1711,-1.1827,-1.1908,-1.1997,-1.2243,0.0,0.0,0.0,0.0,0.0,0.0,-1.1996,-1.202,-1.2386,-1.2865,-1.3308,-1.3046,-1.3186,-1.3677,-1.4101,-1.4428,-1.4665,-1.4766,-1.5174,-1.5893,0.0,0.0,0.0,0.0,-1.5988,-1.5621,-1.7664,-1.8986,-1.9322,-2.1667,-2.2726,-2.2298,-2.1187,-2.0406,-2.0037,-1.916,-1.8694,-1.8648,-1.8101,0.0,0.0,0.0,0.0,0.0,0.0,0.0,0.0,0.0,0.0,0.0,0.0,0.0,0.0,0.0,0.0,0.0,0.0,0.0,-1.7159,-1.761,-1.7918,0.0,0.0,0.0,0.0,0.0,0.0,0.0,0.0,0.0,-2.0863,-2.0817,-2.0858,0.0,0.0,-2.157,-2.1937,-2.1954,-2.1924,-2.1911,-2.1924,0.0,-2.1771,-2.1443,-2.1181,-2.1087,-2.0659,-2.0174,-1.977,-1.9703,-1.9666,-1.9466,-1.9359,-1.9088,-1.8536,-1.7839,-1.7359,-1.7258,-1.7338,-1.7325,-1.7114,-1.712,-1.7113,-1.3003,-1.2596,-1.2312,-1.215,-1.2132,-1.2166,-1.2158,-1.2132,-1.2272,-1.2351,-1.2449,-1.2557,-1.2576,-1.2561,-1.264,0.0,0.0,0.0,-1.2661,-1.2743,-1.2994,-1.3212,-1.3409,-1.3417,-1.3474,-1.3641,-1.4251,-1.4971,-1.5649,-1.5714,-1.6242,-1.7151,0.0,-1.6119,-1.7174,-1.6878,-1.6852,-1.7189,-1.8923,-2.0078,-2.0472,-2.2451,-2.3327,-2.2966,-2.2031,-2.1191,-2.0509,-2.013,-1.9596,-1.8938,-1.8975,-1.8523,0.0,0.0,0.0,0.0,0.0,0.0,0.0,0.0,0.0,0.0,0.0,-1.4115,-1.4621,0.0,0.0,0.0,-1.7823,-1.8476,-1.914,-1.9333,0.0,0.0,0.0,0.0,0.0,0.0,0.0,-2.1281,-2.1683,-2.21,-2.2672,-2.28,-2.2691,-2.2311,-2.2396,-2.2614,-2.2871,0.0,-2.2787,-2.2653,-2.262,-2.2546,-2.2291,-2.1951,-2.1716,-2.1609,-2.1301,-2.0967,-2.061,-2.045,-2.0347,-2.0187,-2.0054,-1.992,-1.9746,-1.9469,-1.9013,-1.8399,-1.8173,-1.8094,-1.8051,-1.8019,-1.7955,-1.3945,-1.3888,-1.3204,-1.2856,-1.2727,-1.2848,-1.2824,-1.2718,-1.2815,-1.2888,-1.2888,-1.2888,-1.2888,-1.2888,-1.2872,0.0,-1.2896,-1.31,-1.3271,-1.3476,-1.362,-1.3763,-1.3961,-1.3969,-1.3969,-1.3993,-1.3969,-1.4654,-1.5936,-1.6404,-1.7565,-1.9343,-1.6225,-1.5792,-1.8058,-1.8463,-1.9421,-2.0975,-2.1992,-2.2844,-2.3385,-2.3701,-2.3821,-2.3794,-2.2046,-2.0904,-2.0474,-2.0008,-1.9561,-1.9217,-1.964,-1.9697,-1.915,0.0,0.0,0.0,0.0,0.0,0.0,0.0,0.0,0.0,0.0,0.0,0.0,0.0,0.0,-1.8733,-1.9582,0.0,-2.0906,-2.0934,0.0,0.0,0.0,-2.1369,-2.1383,-2.1897,-2.2297,-2.234,0.0,0.0,-2.3749,-2.4291,-2.4384,-2.3483,-2.3314,-2.3351,-2.3627,-2.3658,-2.3543,-2.3309,-2.3234,-2.299,-2.2613,-2.2351,-2.213,-2.177,-2.1649,-2.1542,-2.1229,-2.0989,-2.0802,-2.0833,-2.0561,-2.0357,-2.0357,-2.0731,-2.0673,-1.9105,-1.8425,-1.8135,-1.8468,-1.8462,-1.8469,-1.4265,-1.4294,-1.4087,-1.3836,-1.3587,-1.3628,-1.362,-1.3587,-1.3628,-1.3644,-1.3644,-1.3652,-1.3644,-1.3644,-1.348,-1.3488,-1.366,-1.3839,-1.398,-1.4029,-1.4164,-1.4343,-1.4513,-1.4521,-1.4586,-1.4738,-1.4578,-1.4683,-1.4995,-1.4968,-1.5209,-1.5712,-1.6085,-1.6826,-1.7768,-1.7899,-1.7859,-1.7734,-1.9346,-2.1486,-2.4193,-2.4359,-2.4279,-2.4102,-2.3667,-2.3138,-2.2571,-2.2261,-2.183,-2.13,-2.1203,-2.0895,-2.0324,-2.0055,0.0,0.0,0.0,0.0,0.0,0.0,0.0,0.0,0.0,-1.736,-1.8296,0.0,-1.9858,0.0,-2.1263,-2.1827,-2.2188,-2.2184,0.0,0.0,-2.267,-2.2757,-2.3003,-2.295,-2.3054,-2.358,-2.4053,-2.4525,-2.5008,-2.5418,-2.567,-2.5676,-2.5043,-2.465,-2.4964,-2.4975,-2.4939,-2.484,-2.4777,-2.477,-2.4511,-2.3935,-2.3147,-2.2365,-2.2218,-2.2111,-2.1817,-2.1724,-2.167,-2.1703,-2.163,-2.1577,-2.1537,-2.1555,-2.1349,-2.0952,-2.0916,-2.0877,-2.0746,-2.0456,-2.022,-1.4667,-1.4667,-1.4667,-1.4554,-1.4404,-1.4205,-1.4091,-1.4026,-1.4107,-1.414,-1.4103,-1.414,-1.414,-1.4131,-1.4006,-1.4014,-1.4111,-1.4326,-1.4416,-1.4424,-1.4594,-1.4724,-1.4822,-1.4822,-1.4909,-1.4998,-1.4871,-1.5202,-1.5905,-1.6514,-1.715,-1.7894,-1.9524,-2.012,-1.9694,-1.9484,-1.9213,-1.8923,-2.0721,-2.2619,-2.4512,-2.4599,-2.4519,-2.4409,-2.4275,-2.3724,-2.2775,-2.3091,-2.277,-2.1663,-2.1998,-2.2013,-2.1514,-2.1414,-2.1238,0.0,0.0,0.0,0.0,0.0,0.0,0.0,0.0,0.0,0.0,0.0,-2.1481,-2.2249,-2.2766,-2.3147,-2.3293,-2.3289,-2.3398,-2.372,-2.3764,-2.3881,-2.425,-2.4218,-2.432,-2.4686,-2.5008,-2.5344,-2.5676,-2.59,-2.6099,-2.6457,-2.6016,-2.5693,-2.5687,-2.5683,-2.5605,-2.5463,-2.5427,-2.5392,-2.5213,-2.4565,-2.3919,-2.3363,-2.311,-2.2926,-2.2632,-2.2492,-2.2338,-2.2205,-2.2071,-2.2024,-2.201,-2.1977,-2.1937,-2.201,-2.2211,-2.2171,-2.1674,-2.128,-2.0961,-1.499,-1.4974,-1.4935,-1.4974,-1.4911,-1.4603,-1.4391,-1.4322,-1.4432,-1.446,-1.4497,-1.446,-1.446,-1.446,-1.4497,-1.4497,-1.4513,-1.4667,-1.4757,-1.4743,-1.4974,-1.5055,-1.5033,-1.508,-1.5072,-1.5072,-1.508,-1.5757,-1.7176,-1.8579,-1.9973,-2.1381,-2.2968,-2.3042,-2.1733,-2.1677,-2.174,-2.1885,-2.368,-2.4599,-2.4599,-2.4599,-2.4599,-2.4586,-2.4432,-2.3739,-2.2496,-2.3491,-2.33,-2.1809,-2.2667,-2.3097,-2.2827,-2.2572,-2.2458,0.0,-2.2431,0.0,0.0,0.0,0.0,0.0,0.0,0.0,0.0,-2.2122,-2.2842,-2.3706,-2.4042,-2.428,-2.432,-2.4324,-2.4393,-2.4715,-2.4793,-2.491,-2.5188,-2.5432,-2.5559,-2.5559,-2.5871,-2.6041,-2.6076,-2.607,-2.6266,-2.653,-2.6559,-2.6421,-2.6222,-2.6158,-2.6031,-2.5711,-2.569,-2.5669,-2.5229,-2.4747,-2.4443,-2.4345,-2.3971,-2.371,-2.3464,-2.3174,-2.2934,-2.2659,-2.2458,-2.2258,-2.2178,-2.2378,-2.2478,-2.2472,-2.2679,-2.2626,-2.1991,-2.1522,-2.1293,-1.4887,-1.4757,-1.4757,-1.4757,-1.4749,-1.4684,-1.4716,-1.4852,-1.4892,-1.4901,-1.4901,-1.4871,-1.4909,-1.4901,-1.4901,-1.4909,-1.4901,-1.4941,-1.5,-1.51,-1.5132,-1.5229,-1.5407,-1.5407,-1.5415,-1.5407,-1.5415,-1.5573,-1.5881,-1.6157,-1.6464,-1.6818,-1.8368,-1.906,-1.9011,0.0,0.0,0.0,-2.3733,-2.4599,-2.4599,-2.4599,-2.4599,-2.4599,-2.4891,0.0,-2.4616,-2.5148,-2.5152,-2.4632,-2.4559,0.0,0.0,0.0,0.0,0.0,0.0,0.0,0.0,0.0,0.0,0.0,-2.3277,-2.3145,-2.2839,-2.3586,-2.4338,-2.4763,-2.4866,-2.513,-2.5593,-2.5383,-2.5388,-2.5696,-2.574,-2.5769,-2.5827,-2.59,-2.593,-2.593,-2.6208,-2.6413,-2.6427,-2.6632,-2.6822,-2.6866,-2.6896,-2.6903,-2.6808,-2.6764,-2.6757,-2.6735,-2.6641,-2.6474,-2.587,-2.5433,-2.5098,-2.4818,-2.4216,-2.3932,-2.4029,-2.3811,-2.3629,-2.3522,-2.3509,-2.3313,-2.3078,-2.3092,-2.306,-2.2832,-2.2867,-2.2853,-2.2679,-2.2385,-2.2138,-1.5187,-1.5106,-1.5106,-1.5067,0.0,-1.5106,-1.5155,-1.5228,-1.508,-1.5006,-1.5015,-1.5057,-1.5098,-1.5106,-1.5195,-1.5236,-1.5236,-1.5236,-1.5285,-1.5335,-1.5335,-1.5383,-1.5512,-1.5512,-1.5512,-1.5512,-1.5512,-1.5512,-1.5592,-1.7192,-1.7972,-1.8012,-2.0433,-2.1679,-2.1795,-2.3355,-2.4074,-2.3845,-2.465,-2.4959,-2.4863,-2.485,-2.4857,-2.4908,-2.5079,0.0,0.0,0.0,0.0,0.0,0.0,0.0,0.0,0.0,0.0,-2.4989,-2.473,-2.4613,-2.4759,-2.4463,-2.4346,-2.454,-2.4667,-2.4657,-2.4287,-2.4759,-2.5183,-2.5505,-2.552,-2.5652,-2.5974,-2.5822,-2.5866,-2.6208,-2.6252,-2.631,-2.6471,-2.65,-2.65,-2.65,-2.6647,-2.6735,-2.6749,-2.6881,-2.6983,-2.6998,-2.6998,-2.6998,-2.6998,-2.6998,-2.6998,-2.6998,-2.6998,-2.6888,-2.6525,-2.6156,-2.586,-2.5582,-2.4977,-2.4562,-2.452,-2.4255,-2.3941,-2.3857,-2.3817,-2.375,-2.3594,-2.3554,-2.35,-2.3375,-2.3193,-2.31,-2.3108,-2.2846,-2.2632,-1.5456,-1.5463,-1.5432,-1.5463,-1.5463,-1.5424,-1.5488,-1.5456,-1.5195,0.0,0.0,-1.5181,-1.5254,-1.5262,-1.5447,-1.5512,-1.5512,-1.5512,-1.5536,-1.5561,-1.5561,-1.5577,-1.557,-1.557,-1.557,-1.561,-1.5882,-1.6042,-1.6161,-1.9134,-2.063,-2.0865,-2.3424,-2.492,-2.5203,-2.5588,-2.5742,-2.5742,-2.5686,-2.555,-2.5397,-2.5421,-2.5412,-2.5478,-2.5538,-2.576,-2.6078,-2.6096,-2.6132,-2.6161,-2.5884,-2.5712,-2.574,-2.5478,-2.5432,-2.5646,-2.5617,-2.574,-2.5953,-2.5734,-2.5602,-2.5661,-2.5676,-2.5646,-2.5588,-2.5632,-2.5778,-2.6076,-2.6149,-2.6179,-2.6179,-2.6193,-2.6296,-2.6559,-2.6588,-2.6705,-2.6939,-2.6998,-2.6954,-2.6998,-2.6969,-2.6998,-2.6983,-2.6983,-2.6998,-2.6998,-2.6998,-2.6998,-2.6998,-2.7056,-2.7152,-2.7115,-2.7188,-2.7188,-2.7086,-2.6771,-2.6559,-2.653,-2.5864,-2.524,-2.4998,-2.4639,-2.4291,-2.4008,-2.3928,-2.3915,-2.3861,-2.3848,-2.3857,-2.3817,-2.3581,-2.3407,-2.338,-2.3166,-2.296,-1.5383,-1.5237,-1.5237,-1.5237,-1.5245,-1.5237,-1.5327,-1.5512,-1.5463,-1.5439,-1.5439,-1.5463,-1.548,-1.548,-1.5464,-1.5512,-1.5512,-1.5512,-1.5593,-1.5772,-1.5772,-1.5821,-1.5926,-1.5934,-1.5926,-1.6049,-1.7412,-1.8176,-1.8379,-2.0149,-2.1114,-2.1154,-2.1596,-2.2647,-2.4065,-2.5859,-2.6777,-2.6777,-2.6287,-2.6177,-2.6554,-2.654,-2.6564,-2.656,-2.69,-2.7102,-2.7164,-2.7242,-2.7376,-2.7586,-2.7093,-2.691,-2.7159,-2.6611,-2.6325,-2.6354,-2.607,-2.5939,-2.6018,-2.5939,-2.6076,-2.6339,-2.6369,-2.6252,-2.5953,-2.6208,-2.6383,-2.6442,-2.6661,-2.6852,-2.6852,-2.6837,-2.6837,-2.691,-2.6925,-2.6976,-2.6998,-2.6998,-2.6998,-2.6998,-2.6998,-2.6998,-2.6998,-2.6998,-2.6998,-2.6998,-2.6998,-2.6998,-2.7027,-2.7269,-2.7393,-2.7452,-2.7642,-2.7751,-2.7655,-2.7219,-2.7023,-2.7297,-2.641,-2.5676,-2.5569,-2.5263,-2.4883,-2.4539,-2.4449,-2.4382,-2.4195,-2.4142,-2.4062,-2.3924,-2.3803,-2.3714,-2.3736,-2.3474,-2.318,-1.5715,-1.5642,-1.5634,-1.5634,-1.5634,-1.5634,-1.5683,-1.5764,-1.5764,-1.5651,-1.5489,-1.5618,-1.5658,-1.5666,-1.5723,-1.5764,-1.5764,-1.5764,-1.5845,-1.5918,-1.5885,-1.6016,-1.6128,-1.6145,-1.6243,-1.645,-1.8144,-1.8966,-1.9215,-2.1722,-2.3248,-2.3563,-2.462,-2.5605,-2.6438,-2.7376,-2.7991,-2.8177,-2.7393,-2.6989,-2.7014,-2.7014,-2.7044,-2.7117,-2.7306,-2.7496,-2.7647,-2.7705,-2.7765,-2.7897,-2.751,-2.7357,-2.7489,-2.7064,-2.6852,-2.7013,-2.6896,-2.6881,-2.702,-2.702,-2.7093,-2.7239,-2.7254,-2.7195,-2.7049,-2.6881,-2.6778,-2.6778,-2.691,-2.6998,-2.6998,-2.6998,-2.6998,-2.6998,-2.6998,-2.6998,-2.6998,-2.6998,-2.6998,-2.6998,-2.6998,-2.6998,-2.6998,-2.6998,-2.6998,-2.6998,-2.6998,-2.6998,-2.7027,-2.7422,-2.7671,-2.7539,-2.7744,-2.7882,-2.7874,-2.7536,-2.7347,-2.7481,-2.6747,-2.6121,-2.5873,-2.5616,-2.5263,-2.4747,-2.4784,-2.478,-2.4486,-2.4399,-2.4369,-2.4289,-2.4088,-2.4022,-2.3968,-2.3768,-2.3455,-1.6007,-1.6007,-1.6007,-1.6007,-1.6007,-1.6007,-1.6007,-1.6007,-1.5999,-1.5869,-1.5731,-1.5796,-1.5837,-1.5853,-1.5942,-1.6023,-1.6056,-1.6064,-1.608,-1.612,-1.6128,-1.6443,-1.6927,-1.6986,-1.7062,-1.7442,-1.925,-2.0007,-2.0049,-2.3015,-2.5013,-2.5795,-2.7649,-2.8612,-2.8612,-2.8679,-2.8896,-2.9151,-2.8534,-2.8061,-2.782,-2.7806,-2.7848,-2.7942,-2.7894,-2.7965,-2.8233,-2.8101,-2.8057,-2.8101,-2.7788,-2.7627,-2.7671,-2.7378,-2.732,-2.7554,-2.7583,-2.7686,-2.7882,-2.7911,-2.7911,-2.7911,-2.7911,-2.7911,-2.7868,-2.7458,-2.7203,-2.7203,-2.7232,-2.7232,-2.7247,-2.7232,-2.7203,-2.7203,-2.7203,-2.7247,-2.7217,-2.7217,-2.7203,-2.7203,-2.7217,-2.7232,-2.7217,-2.7203,-2.7232,-2.7247,-2.7203,-2.7203,-2.7261,-2.7678,-2.7882,-2.7934,-2.8066,-2.8262,-2.8218,-2.8037,-2.7847,-2.7715,-2.7142,-2.6586,-2.622,-2.598,-2.5543,-2.4968,-2.4857,-2.4857,-2.4673,-2.4586,-2.4572,-2.4519,-2.4386,-2.4275,-2.4182,-2.4022,-2.375,-1.6007,-1.6007,-1.6007,-1.6007,-1.6015,-1.6015,-1.6023,-1.6015,-1.6007,-1.608,-1.6194,-1.6081,-1.5983,-1.5983,-1.6007,-1.6104,-1.6276,-1.6276,-1.6365,-1.6503,-1.6535,-1.7417,-1.8759,-1.8927,-1.903,-1.9311,-2.1536,-2.1934,-2.0855,-2.3381,-2.5244,-2.6505,-2.7907,-2.8667,-2.8667,-2.8991,-2.9153,-2.922,-2.9526,-2.9683,-2.9654,-2.9654,-2.9639,-2.969,-2.9343,-2.9251,-2.9232,-2.8695,-2.852,-2.8725,-2.8242,-2.8014,-2.8247,-2.8014,-2.7853,-2.7882,-2.7882,-2.7882,-2.7911,-2.7911,-2.7941,-2.7911,-2.7941,-2.7941,-2.7941,-2.7868,-2.7824,-2.7824,-2.7824,-2.778,-2.7824,-2.7794,-2.7751,-2.7736,-2.7751,-2.7824,-2.778,-2.7824,-2.7824,-2.7824,-2.7751,-2.7824,-2.7751,-2.7736,-2.7765,-2.7721,-2.7707,-2.7707,-2.7736,-2.8043,-2.8408,-2.8681,-2.9003,-2.9164,-2.912,-2.8959,-2.8534,-2.8262,-2.778,-2.7235,-2.6786,-2.6282,-2.5667,-2.5382,-2.4972,-2.4824,-2.4673,-2.4599,-2.4599,-2.4599,-2.4532,-2.4466,-2.4289,-2.4195,-2.4022,-1.6007,-1.6015,-1.6112,-1.6259,-1.6357,-1.6365,-1.6365,-1.6365,-1.6365,-1.6405,-1.6454,-1.6397,-1.6365,-1.6357,-1.6365,-1.6405,-1.6462,-1.6462,-1.6503,-1.6619,-1.6584,-1.7051,-1.7793,-1.8392,-1.8702,-1.9069,-2.1639,-2.2989,-2.3583,-2.6276,-2.8192,-2.8731,-2.9516,-2.9887,-2.9929,-3.0067,-3.0149,-3.0149,-3.034,-3.0437,-3.0393,-3.0097,-2.9906,-2.9892,-2.9774,-2.9701,-2.9687,-2.9452,-2.9339,-2.9481,-2.9222,-2.9134,-2.9266,-2.9149,-2.8988,-2.8798,-2.8608,-2.8505,-2.8505,-2.8467,-2.8505,-2.8505,-2.8505,-2.8505,-2.8467,-2.8505,-2.8505,-2.8423,-2.8131,-2.7911,-2.7926,-2.7911,-2.7911,-2.7911,-2.7911,-2.7911,-2.7911,-2.7911,-2.7911,-2.7911,-2.7911,-2.7911,-2.7911,-2.7911,-2.7911,-2.7911,-2.7911,-2.7941,-2.7941,-2.8189,-2.8511,-2.8856,-2.9203,-2.9393,-2.9339,-2.893,-2.8637,-2.8379,-2.8028,-2.7623,-2.728,-2.7222,-2.6803,-2.601,-2.5672,-2.533,-2.5032,-2.4747,-2.4599,-2.4599,-2.4599,-2.4559,-2.4476,-2.4426,-2.4359,-1.6153,-1.6211,-1.6324,-1.6454,-1.6619,-1.6874,-1.7001,-1.7001,-1.7001,-1.6984,-1.6991,-1.6785,-1.6682,-1.6714,-1.6633,-1.6609,-1.6657,-1.6657,-1.6853,-1.7065,-1.7108,-1.757,-1.8416,-1.9063,-1.9698,-2.0472,-2.26,-2.4232,-2.5513,-2.8236,-2.9788,-2.9914,-3.0499,-3.0776,-3.0776,-3.0776,-3.0776,-3.0776,-3.0776,-3.0776,-3.0717,-3.0364,-3.0129,-3.0155,-3.0082,-3.0038,-3.0038,-2.995,-2.9906,-2.9892,-2.9906,-2.9906,-2.9906,-2.9906,-2.9804,-2.9569,-2.9335,-2.9164,-2.9149,-2.9164,-2.9164,-2.9203,-2.9203,-2.9164,-2.9149,-2.9203,-2.9164,-2.9134,-2.8739,-2.8437,-2.8189,-2.8174,-2.8174,-2.816,-2.8174,-2.8174,-2.8189,-2.8174,-2.8189,-2.8174,-2.8233,-2.8174,-2.8174,-2.8189,-2.8218,-2.8218,-2.8189,-2.8174,-2.8189,-2.8408,-2.8642,-2.8959,-2.9164,-2.9251,-2.935,-2.909,-2.871,-2.8467,-2.8262,-2.7982,-2.7687,-2.781,-2.7543,-2.6439,-2.6364,-2.6097,-2.5585,-2.5141,-2.4679,-2.4626,-2.4613,-2.4613,-2.4559,-2.4586,-2.4586,-1.656,-1.6594,-1.661,-1.6712,-1.6712,-1.7562,-1.7935,-1.7961,-1.7986,-1.804,-1.8017,-1.7268,-1.6933,-1.7126,-1.6961,-1.6724,-1.6828,-1.6887,-1.7438,-1.8313,-1.8375,-1.9821,-2.2341,-2.2514,-2.3105,-2.3964,-2.5056,-2.6091,-2.6813,-2.8221,-2.888,-2.902,-3.0291,-3.0805,-3.0834,-3.0849,-3.079,-3.0849,-3.0849,-3.0819,-3.0805,-3.0817,-3.0788,-3.0759,-3.0495,-3.0361,-3.0346,-3.0068,-2.9921,-2.9921,-2.995,-2.9936,-2.9921,-2.9921,-2.9906,-2.9877,-2.9848,-2.9833,-2.9818,-2.9804,-2.9804,-2.9833,-2.9774,-2.9833,-2.976,-2.976,-2.976,-2.9833,-2.9701,-2.9452,-2.8988,-2.8871,-2.8856,-2.8856,-2.8856,-2.8856,-2.8856,-2.8856,-2.8856,-2.8842,-2.8827,-2.8769,-2.8798,-2.8842,-2.8783,-2.8783,-2.8812,-2.8783,-2.8769,-2.8827,-2.9003,-2.9164,-2.9178,-2.9032,-2.931,-2.9178,-2.9061,-2.8871,-2.8578,-2.8379,-2.8147,-2.784,-2.7331,-2.6875,-2.6634,-2.634,-2.6033,-2.5591,-2.5045,-2.4823,-2.473,-2.4666,-2.4613,-2.4599,-2.4599,-1.792,-1.8504,-1.8547,-1.8567,-1.877,-1.9072,-1.9201,-1.9244,-1.9235,-1.9238,-1.9259,-1.8921,-1.8836,-1.889,-1.8799,-1.8425,-1.793,-1.7887,-1.8444,-1.9335,-1.9423,-2.0404,-2.2083,-2.2772,-2.3803,-2.5129,-2.6121,-2.7199,-2.8502,-2.9957,-3.0709,-3.0752,-3.1192,-3.1446,-3.1446,-3.1446,-3.1446,-3.1446,-3.1446,-3.1446,-3.1432,-3.1446,-3.1446,-3.1417,-3.0934,-3.0656,-3.0656,-3.0539,-3.0481,-3.0481,-3.0466,-3.0481,-3.0451,-3.0317,-3.0214,-3.0199,-3.0024,-2.9906,-2.9906,-2.9906,-2.9906,-2.9906,-2.9906,-2.9921,-2.9906,-2.9906,-2.9906,-2.9906,-2.9906,-2.9818,-2.9862,-2.9687,-2.954,-2.9555,-2.9555,-2.954,-2.9555,-2.9555,-2.9555,-2.9525,-2.9379,-2.9174,-2.8973,-2.89,-2.8886,-2.8886,-2.89,-2.8915,-2.8944,-2.9047,-2.9266,-2.9369,-2.9496,-2.9584,-2.9687,-2.9281,-2.9003,-2.893,-2.8769,-2.8739,-2.8589,-2.8521,-2.8149,-2.7712,-2.73,-2.6819,-2.6544,-2.5949,-2.5451,-2.5024,-2.4917,-2.4799,-2.4626,-2.4666,-2.4639,-1.9038,-1.9641,-1.9694,-1.977,-1.9936,-2.024,-2.0337,-2.0337,-2.0337,-2.0337,-2.038,-2.0491,-2.0318,-2.0153,-2.0785,-2.0785,-1.9979,-1.9379,-1.9675,-2.0925,-2.1012,-2.1867,-2.3363,-2.4135,-2.522,-2.6672,-2.7882,-2.9065,-3.0083,-3.1252,-3.1755,-3.1798,-3.1798,-3.1798,-3.1798,-3.1798,-3.1798,-3.1798,-3.1798,-3.1798,-3.1798,-3.1798,-3.1798,-3.1739,-3.1359,-3.1139,-3.1097,-3.1037,-3.0978,-3.0964,-3.0849,-3.0776,-3.0761,-3.0612,-3.0551,-3.0522,-3.0305,-3.0214,-3.0173,-3.0173,-3.0173,-3.0214,-3.0173,-3.0173,-3.0173,-3.0173,-3.0173,-3.0214,-3.0214,-3.0276,-3.0393,-3.0305,-3.0129,-3.0097,-3.0068,-3.0009,-2.9921,-2.9892,-2.9877,-2.9862,-2.9818,-2.9599,-2.9295,-2.9379,-2.9364,-2.9276,-2.9208,-2.9247,-2.9276,-2.9408,-2.9529,-2.9584,-2.9745,-2.9818,-2.9862,-2.9584,-2.9452,-2.9364,-2.9262,-2.9164,-2.9047,-2.9086,-2.892,-2.8502,-2.8057,-2.7543,-2.6955,-2.637,-2.5848,-2.5391,-2.5197,-2.5144,-2.4933,-2.4773,-2.4746,-1.997,-2.0057,-1.9936,-2.01,-2.0284,-2.0988,-2.1302,-2.1302,-2.1422,-2.1519,-2.1638,-2.1867,-2.164,-2.0968,-2.2923,-2.3652,-2.2944,-2.1358,-2.1531,-2.3202,-2.3331,-2.4489,-2.6491,-2.6656,-2.7588,-2.9205,-3.0895,-3.1597,-3.1626,-3.1828,-3.19,-3.1856,-3.19,-3.1929,-3.1841,-3.19,-3.1856,-3.1885,-3.19,-3.1871,-3.1812,-3.1885,-3.19,-3.1871,-3.1827,-3.1798,-3.1798,-3.149,-3.1315,-3.1285,-3.1037,-3.0805,-3.0834,-3.0761,-3.0761,-3.0788,-3.0788,-3.0746,-3.0732,-3.0744,-3.0673,-3.0715,-3.0732,-3.0715,-3.07,-3.0715,-3.0729,-3.0659,-3.0729,-3.0746,-3.0803,-3.0803,-3.0656,-3.0448,-3.039,-3.0273,-3.0053,-2.9936,-2.9921,-2.998,-3.0126,-3.0214,-3.0053,-2.9994,-2.9994,-2.9833,-2.9774,-2.9774,-2.976,-2.9833,-2.9892,-2.9906,-3.0024,-3.0141,-3.0038,-2.9906,-2.9921,-2.9892,-2.9789,-2.9687,-2.9481,-2.9408,-2.9231,-2.8869,-2.8514,-2.8019,-2.7453,-2.6862,-2.6455,-2.6047,-2.5774,-2.5462,-2.5224,-2.505,-2.4917,-2.1811,-2.1811,-2.1855,-2.1811,-2.1855,-2.2157,-2.2254,-2.2373,-2.3181,-2.3611,-2.3826,-2.4788,-2.5044,-2.4873,-2.5629,-2.5853,-2.5641,-2.4959,-2.5044,-2.561,-2.5696,-2.6546,-2.7939,-2.8408,-2.9432,-3.0866,-3.1757,-3.2134,-3.2178,-3.2354,-3.2515,-3.2515,-3.25,-3.2515,-3.2441,-3.2471,-3.2515,-3.2471,-3.2515,-3.2515,-3.2471,-3.2456,-3.2456,-3.2471,-3.2471,-3.2471,-3.2441,-3.1944,-3.1666,-3.1637,-3.1549,-3.1402,-3.1141,-3.0949,-3.079,-3.0776,-3.0776,-3.0776,-3.079,-3.079,-3.0805,-3.079,-3.079,-3.0776,-3.0776,-3.0805,-3.0805,-3.079,-3.079,-3.0863,-3.1095,-3.1154,-3.1007,-3.07,-3.0671,-3.0642,-3.0495,-3.0495,-3.0422,-3.0287,-3.0331,-3.0243,-3.0024,-3.0068,-3.0111,-2.9994,-2.995,-2.995,-2.995,-3.0141,-3.0229,-3.0243,-3.0375,-3.0437,-3.0364,-3.032,-3.0334,-3.0287,-3.017,-3.0038,-2.9848,-2.9731,-2.9552,-2.9301,-2.8943,-2.8504,-2.7933,-2.749,-2.7106,-2.6683,-2.638,-2.5972,-2.5527,-2.5355,-2.5324,-2.2686,-2.2686,-2.2686,-2.2686,-2.2772,-2.3193,-2.3451,-2.3666,-2.4885,-2.5483,-2.5738,-2.6927,-2.7223,-2.7096,-2.7815,-2.805,-2.779,-2.8199,-2.8549,-2.8489,-2.7885,-2.8495,-2.9663,-3.0225,-3.088,-3.1815,-3.231,-3.2471,-3.2515,-3.2705,-3.2808,-3.2808,-3.2808,-3.2808,-3.2808,-3.2808,-3.2808,-3.2808,-3.2808,-3.2808,-3.2808,-3.2808,-3.2808,-3.2808,-3.2808,-3.2808,-3.2778,-3.2354,-3.2105,-3.1988,-3.1871,-3.1695,-3.149,-3.13,-3.1141,-3.1183,-3.1183,-3.1198,-3.1141,-3.1227,-3.1183,-3.1141,-3.1183,-3.1198,-3.1183,-3.1183,-3.1183,-3.1183,-3.1198,-3.1271,-3.1432,-3.1359,-3.1227,-3.1037,-3.1007,-3.0907,-3.0819,-3.0776,-3.0744,-3.0624,-3.0642,-3.0525,-3.032,-3.0349,-3.032,-3.0276,-3.0217,-3.0217,-3.0302,-3.0434,-3.0507,-3.058,-3.0612,-3.07,-3.0732,-3.0746,-3.0746,-3.0642,-3.0481,-3.0305,-3.0155,-3.0097,-2.9998,-2.9738,-2.9417,-2.9044,-2.8482,-2.8239,-2.7889,-2.7446,-2.6978,-2.6619,-2.6248,-2.6051,-2.5891,-2.2729,-2.2805,-2.2805,-2.302,-2.3279,-2.4341,-2.48,-2.5056,-2.6291,-2.6927,-2.7181,-2.8334,-2.8347,-2.7939,-2.9537,-3.0071,-2.9745,-3.0425,-3.1036,-3.0909,-3.0225,-3.0155,-3.115,-3.167,-3.2062,-3.2354,-3.2646,-3.2778,-3.2764,-3.2793,-3.2808,-3.2808,-3.2808,-3.2808,-3.2808,-3.2808,-3.2808,-3.2808,-3.2808,-3.2808,-3.2808,-3.2808,-3.2808,-3.2808,-3.2808,-3.2808,-3.2793,-3.2734,-3.2617,-3.2324,-3.2032,-3.1856,-3.1827,-3.1812,-3.1724,-3.171,-3.1783,-3.1739,-3.1768,-3.1695,-3.171,-3.1695,-3.1695,-3.1798,-3.171,-3.1666,-3.1666,-3.1681,-3.1695,-3.1739,-3.1695,-3.1549,-3.1373,-3.1329,-3.1227,-3.1066,-3.0819,-3.0776,-3.0788,-3.0846,-3.1051,-3.1139,-3.0759,-3.0978,-3.0949,-3.0832,-3.0715,-3.0685,-3.07,-3.07,-3.0746,-3.0776,-3.0761,-3.0761,-3.0776,-3.0776,-3.0776,-3.0732,-3.0656,-3.0554,-3.0422,-3.0419,-3.0317,-3.0071,-2.987,-2.9479,-2.9199,-2.8939,-2.8528,-2.7985,-2.758,-2.7298,-2.6953,-2.661,-2.6227,-2.3279,-2.4169,-2.4169,-2.4769,-2.5653,-2.6121,-2.6248,-2.6418,-2.7688,-2.8278,-2.8586,-2.9677,-3.0111,-3.0226,-3.0762,-3.1147,-3.1166,-3.1452,-3.1695,-3.1769,-3.1729,-3.1671,-3.1988,-3.2193,-3.2412,-3.2661,-3.2764,-3.2808,-3.2808,-3.2808,-3.2808,-3.2808,-3.2808,-3.2808,-3.2808,-3.2808,-3.2808,-3.2808,-3.2808,-3.2808,-3.2808,-3.2808,-3.2808,-3.2808,-3.2808,-3.2808,-3.2808,-3.2808,-3.2793,-3.269,-3.2339,-3.2149,-3.2134,-3.1959,-3.1856,-3.1856,-3.1827,-3.1812,-3.1827,-3.1827,-3.1812,-3.1798,-3.1871,-3.1798,-3.1798,-3.1798,-3.1798,-3.1798,-3.1798,-3.1827,-3.1798,-3.1724,-3.1666,-3.1607,-3.1315,-3.0993,-3.0905,-3.0776,-3.0776,-3.079,-3.0934,-3.0863,-3.0849,-3.089,-3.0934,-3.0805,-3.0776,-3.0776,-3.0776,-3.0776,-3.0776,-3.0776,-3.0776,-3.0776,-3.0776,-3.0776,-3.0776,-3.0776,-3.0732,-3.0717,-3.0685,-3.0671,-3.0551,-3.0361,-3.0261,-2.9978,-2.9774,-2.9588,-2.9076,-2.8531,-2.8324,-2.8013,-2.7307,-2.6816,-2.651,-2.4885,-2.5568,-2.5568,-2.6036,-2.6842,-2.7392,-2.7646,-2.7899,-2.9048,-2.9719,-3.0014,-3.0603,-3.117,-3.149,-3.152,-3.1695,-3.1973,-3.2002,-3.2076,-3.2237,-3.2398,-3.2471,-3.2485,-3.25,-3.2588,-3.2793,-3.2808,-3.2808,-3.2808,-3.2808,-3.2808,-3.2808,-3.2808,-3.2808,-3.2808,-3.2808,-3.2808,-3.2808,-3.2808,-3.2808,-3.2808,-3.2808,-3.2808,-3.2808,-3.2808,-3.2808,-3.2808,-3.2808,-3.2808,-3.2778,-3.2632,-3.2529,-3.2515,-3.231,-3.2207,-3.2207,-3.2207,-3.2207,-3.2207,-3.2207,-3.2207,-3.2222,-3.2207,-3.2207,-3.2222,-3.2207,-3.2207,-3.2222,-3.2207,-3.2207,-3.2178,-3.2134,-3.1944,-3.1768,-3.1461,-3.1242,-3.1227,-3.1082,-3.0995,-3.0951,-3.0863,-3.0776,-3.079,-3.079,-3.079,-3.0776,-3.0776,-3.0776,-3.0776,-3.0776,-3.0776,-3.0776,-3.0776,-3.0776,-3.0776,-3.0776,-3.0776,-3.0776,-3.0776,-3.0776,-3.0776,-3.0776,-3.0715,-3.0568,-3.0554,-3.0466,-3.0232,-2.9986,-2.9638,-2.9238,-2.9039,-2.8454,-2.7636,-2.706,-2.6753,-2.6885,-2.7012,-2.7012,-2.7096,-2.7477,-2.8502,-2.9006,-2.9216,-3.015,-3.0867,-3.1143,-3.1258,-3.149,-3.1841,-3.1856,-3.2017,-3.2368,-3.2383,-3.2485,-3.2661,-3.2764,-3.2764,-3.2749,-3.2749,-3.2778,-3.2808,-3.2808,-3.2808,-3.2808,-3.2808,-3.2808,-3.2808,-3.2808,-3.2808,-3.2808,-3.2808,-3.2808,-3.2808,-3.2808,-3.2808,-3.2808,-3.2808,-3.2808,-3.2808,-3.2808,-3.2808,-3.2808,-3.2808,-3.2808,-3.2808,-3.2808,-3.2778,-3.2793,-3.2793,-3.2778,-3.2749,-3.272,-3.272,-3.2778,-3.272,-3.2764,-3.2734,-3.2749,-3.2808,-3.2734,-3.2705,-3.2705,-3.269,-3.2808,-3.272,-3.2646,-3.2515,-3.2309,-3.2061,-3.1929,-3.19,-3.1841,-3.1578,-3.1359,-3.1344,-3.1095,-3.0964,-3.092,-3.0849,-3.0849,-3.0936,-3.0878,-3.0776,-3.0776,-3.0776,-3.0776,-3.0776,-3.0776,-3.0776,-3.0776,-3.0776,-3.0776,-3.0776,-3.0776,-3.0776,-3.0776,-3.0776,-3.0776,-3.0732,-3.07,-3.0612,-3.0481,-3.0238,-3.0013,-2.965,-2.926,-2.8494,-2.775,-2.7371,-2.7009,-2.7392,-2.8376,-2.8362,-2.9006,-2.9886,-3.0276,-3.0359,-3.0359,-3.0651,-3.1022,-3.1256,-3.1315,-3.1651,-3.2178,-3.2193,-3.2354,-3.2661,-3.2676,-3.2719,-3.2793,-3.2808,-3.2808,-3.2808,-3.2808,-3.2808,-3.2808,-3.2808,-3.2808,-3.2808,-3.2808,-3.2808,-3.2808,-3.2808,-3.2808,-3.2808,-3.2808,-3.2808,-3.2808,-3.2808,-3.2808,-3.2808,-3.2808,-3.2808,-3.2808,-3.2808,-3.2808,-3.2808,-3.2808,-3.2808,-3.2808,-3.2808,-3.2808,-3.2808,-3.2808,-3.2808,-3.2808,-3.2808,-3.2808,-3.2808,-3.2808,-3.2808,-3.2808,-3.2808,-3.2808,-3.2808,-3.2808,-3.2808,-3.2808,-3.2808,-3.2808,-3.2793,-3.2719,-3.2632,-3.2544,-3.2529,-3.2558,-3.2456,-3.2032,-3.1724,-3.1681,-3.1607,-3.1578,-3.1549,-3.13,-3.1227,-3.1183,-3.1051,-3.0834,-3.0819,-3.0863,-3.0849,-3.0892,-3.0878,-3.0949,-3.0964,-3.1007,-3.1081,-3.1066,-3.0995,-3.0892,-3.0878,-3.0834,-3.0863,-3.0834,-3.0761,-3.0715,-3.0627,-3.0615,-3.043,-2.9953,-2.9424,-2.8695,-2.8053,-2.7644,-2.7186,-2.909,-2.9718,-2.9718,-3.015,-3.0734,-3.0776,-3.0776,-3.0776,-3.0776,-3.1053,-3.1476,-3.1534,-3.19,-3.2529,-3.2558,-3.2661,-3.2778,-3.2808,-3.2808,-3.2808,-3.2808,-3.2808,-3.2808,-3.2808,-3.2808,-3.2808,-3.2808,-3.2808,-3.2808,-3.2808,-3.2808,-3.2808,-3.2808,-3.2808,-3.2808,-3.2808,-3.2808,-3.2808,-3.2808,-3.2808,-3.2808,-3.2808,-3.2808,-3.2808,-3.2808,-3.2808,-3.2808,-3.2808,-3.2808,-3.2808,-3.2808,-3.2808,-3.2808,-3.2808,-3.2808,-3.2808,-3.2808,-3.2808,-3.2808,-3.2808,-3.2808,-3.2808,-3.2808,-3.2808,-3.2808,-3.2808,-3.2808,-3.2808,-3.2808,-3.2808,-3.2808,-3.2808,-3.2808,-3.2808,-3.2808,-3.2808,-3.2734,-3.2324,-3.2017,-3.1988,-3.1871,-3.1798,-3.171,-3.1637,-3.1578,-3.152,-3.1505,-3.1344,-3.1285,-3.1285,-3.1124,-3.111,-3.1095,-3.1095,-3.1124,-3.1227,-3.1388,-3.1417,-3.1446,-3.1285,-3.1154,-3.1081,-3.098,-3.0892,-3.0776,-3.0776,-3.0717,-3.0761,-3.0636,-3.013,-2.9543,-2.892,-2.8261,-2.7648,-2.7135,-3.0776,-3.0776,-3.0776,-3.0776,-3.0776,-3.0776,-3.0776,-3.0776,-3.0776,-3.1126,-3.171,-3.1798,-3.2105,-3.269,-3.2793,-3.2808,-3.2808,-3.2808,-3.2808,-3.2808,-3.2808,-3.2808,-3.2808,-3.2808,-3.2808,-3.2808,-3.2808,-3.2808,-3.2808,-3.2808,-3.2808,-3.2808,-3.2808,-3.2808,-3.2808,-3.2808,-3.2808,-3.2808,-3.2808,-3.2808,-3.2808,-3.2808,-3.2808,-3.2808,-3.2808,-3.2808,-3.2808,-3.2808,-3.2808,-3.2808,-3.2808,-3.2808,-3.2808,-3.2808,-3.2808,-3.2808,-3.2808,-3.2808,-3.2808,-3.2808,-3.2808,-3.2808,-3.2808,-3.2808,-3.2808,-3.2808,-3.2808,-3.2808,-3.2808,-3.2808,-3.2808,-3.2808,-3.2808,-3.2808,-3.2808,-3.2808,-3.2764,-3.2558,-3.2427,-3.2368,-3.228,-3.2163,-3.2046,-3.1959,-3.1915,-3.1871,-3.1841,-3.1798,-3.1739,-3.1637,-3.1461,-3.1388,-3.1388,-3.1388,-3.1402,-3.1446,-3.1607,-3.1666,-3.1724,-3.1607,-3.1432,-3.1388,-3.1271,-3.0892,-3.0776,-3.079,-3.079,-3.0776,-3.0553,-3.0191,-2.9675,-2.9062,-2.8345,-2.7554,-2.7216,-3.0776,-3.0776,-3.0776,-3.0776,-3.0776,-3.0776,-3.0776,-3.0776,-3.0776,-3.1156,-3.1754,-3.1812,-3.2149,-3.2676,-3.2808,-3.2808,-3.2808,-3.2808,-3.2808,-3.2808,-3.2808,-3.2808,-3.2808,-3.2808,-3.2808,-3.2808,-3.2808,-3.2808,-3.2808,-3.2808,-3.2808,-3.2808,-3.2808,-3.2808,-3.2808,-3.2808,-3.2808,-3.2808,-3.2808,-3.2808,-3.2808,-3.2808,-3.2808,-3.2808,-3.2808,-3.2808,-3.2808,-3.2808,-3.2808,-3.2808,-3.2808,-3.2808,-3.2808,-3.2808,-3.2808,-3.2808,-3.2808,-3.2808,-3.2808,-3.2808,-3.2808,-3.2808,-3.2808,-3.2808,-3.2808,-3.2808,-3.2808,-3.2808,-3.2808,-3.2808,-3.2808,-3.2808,-3.2808,-3.2808,-3.2808,-3.2808,-3.2793,-3.2749,-3.269,-3.2646,-3.2617,-3.2573,-3.2398,-3.228,-3.2237,-3.2163,-3.209,-3.2046,-3.1988,-3.1885,-3.1754,-3.1724,-3.1724,-3.171,-3.1724,-3.1754,-3.1827,-3.1841,-3.1871,-3.1885,-3.1754,-3.1724,-3.1549,-3.1227,-3.0922,-3.0876,-3.0861,-3.079,-3.0609,-3.0345,-2.9773,-2.923,-2.8634,-2.8071,-2.7566,-3.0776,-3.0776,-3.0776,-3.0776,-3.0776,-3.0776,-3.0776,-3.0776,-3.079,-3.1183,-3.1637,-3.1827,-3.2149,-3.2676,-3.2808,-3.2808,-3.2808,-3.2808,-3.2808,-3.2808,-3.2808,-3.2808,-3.2808,-3.2808,-3.2808,-3.2808,-3.2808,-3.2808,-3.2808,-3.2808,-3.2808,-3.2808,-3.2808,-3.2808,-3.2808,-3.2808,-3.2808,-3.2808,-3.2808,-3.2808,-3.2808,-3.2808,-3.2808,-3.2808,-3.2808,-3.2808,-3.2808,-3.2808,-3.2808,-3.2808,-3.2808,-3.2808,-3.2808,-3.2808,-3.2808,-3.2808,-3.2808,-3.2808,-3.2808,-3.2808,-3.2808,-3.2808,-3.2808,-3.2808,-3.2808,-3.2808,-3.2808,-3.2808,-3.2808,-3.2808,-3.2808,-3.2808,-3.2808,-3.2808,-3.2808,-3.2808,-3.2808,-3.2808,-3.2808,-3.2808,-3.2749,-3.2705,-3.2734,-3.2602,-3.2544,-3.2471,-3.2368,-3.2295,-3.2237,-3.2149,-3.2046,-3.2046,-3.2046,-3.1988,-3.2017,-3.2105,-3.209,-3.2076,-3.2105,-3.212,-3.209,-3.2061,-3.1841,-3.1534,-3.13,-3.111,-3.0861,-3.079,-3.0665,-3.0499,-3.008,-2.9634,-2.9077,-2.8565,-2.8042,-3.0776,-3.0776,-3.0776,-3.0776,-3.0776,-3.0776,-3.0776,-3.0776,-3.0776,-3.1183,-3.1739,-3.1827,-3.2163,-3.2676,-3.2808,-3.2808,-3.2808,-3.2808,-3.2808,-3.2808,-3.2808,-3.2808,-3.2808,-3.2808,-3.2808,-3.2808,-3.2808,-3.2808,-3.2808,-3.2808,-3.2808,-3.2808,-3.2808,-3.2808,-3.2808,-3.2808,-3.2808,-3.2808,-3.2808,-3.2808,-3.2808,-3.2808,-3.2808,-3.2808,-3.2808,-3.2808,-3.2808,-3.2808,-3.2808,-3.2808,-3.2808,-3.2808,-3.2808,-3.2808,-3.2808,-3.2808,-3.2808,-3.2808,-3.2808,-3.2808,-3.2808,-3.2808,-3.2808,-3.2808,-3.2808,-3.2808,-3.2808,-3.2808,-3.2808,-3.2808,-3.2808,-3.2808,-3.2808,-3.2808,-3.2808,-3.2808,-3.2808,-3.2808,-3.2808,-3.2808,-3.2808,-3.2808,-3.2808,-3.2793,-3.2705,-3.2705,-3.2602,-3.2617,-3.2558,-3.25,-3.2427,-3.2427,-3.2397,-3.2266,-3.231,-3.2515,-3.25,-3.2441,-3.2441,-3.2529,-3.2441,-3.2383,-3.212,-3.1885,-3.1754,-3.1549,-3.1198,-3.0846,-3.0749,-3.0582,-3.0388,-3.0053,-2.9592,-2.898,-2.8425,-3.0776,-3.0776,-3.0776,-3.0776,-3.0776,-3.0776,-3.0776,-3.0776,-3.0776,-3.1198,-3.1798,-3.1827,-3.2163,-3.269,-3.2808,-3.2808,-3.2808,-3.2808,-3.2808,-3.2808,-3.2808,-3.2808,-3.2808,-3.2808,-3.2808,-3.2808,-3.2808,-3.2808,-3.2808,-3.2808,-3.2808,-3.2808,-3.2808,-3.2808,-3.2808,-3.2808,-3.2808,-3.2808,-3.2808,-3.2808,-3.2808,-3.2808,-3.2808,-3.2808,-3.2808,-3.2808,-3.2808,-3.2808,-3.2808,-3.2808,-3.2808,-3.2808,-3.2808,-3.2808,-3.2808,-3.2808,-3.2808,-3.2808,-3.2808,-3.2808,-3.2808,-3.2808,-3.2808,-3.2808,-3.2808,-3.2808,-3.2808,-3.2808,-3.2808,-3.2808,-3.2808,-3.2808,-3.2808,-3.2808,-3.2808,-3.2808,-3.2808,-3.2808,-3.2808,-3.2808,-3.2808,-3.2808,-3.2808,-3.2808,-3.2808,-3.2808,-3.2808,-3.2808,-3.2764,-3.2632,-3.2471,-3.2383,-3.2383,-3.228,-3.2178,-3.2398,-3.2588,-3.2602,-3.272,-3.2778,-3.2705,-3.2602,-3.2544,-3.2295,-3.2149,-3.1871,-3.1446,-3.1124,-3.0878,-3.0665,-3.0457,-3.0304,-3.0123,-2.9481,-2.8756,-3.0776,-3.0776,-3.0776,-3.0776,-3.0776,-3.0776,-3.0776,-3.0776,-3.079,-3.1183,-3.171,-3.1798,-3.2149,-3.272,-3.2808,-3.2808,-3.2808,-3.2808,-3.2808,-3.2808,-3.2808,-3.2808,-3.2808,-3.2808,-3.2808,-3.2808,-3.2808,-3.2808,-3.2808,-3.2808,-3.2808,-3.2808,-3.2808,-3.2808,-3.2808,-3.2808,-3.2808,-3.2808,-3.2808,-3.2808,-3.2808,-3.2808,-3.2808,-3.2808,-3.2808,-3.2808,-3.2808,-3.2808,-3.2808,-3.2808,-3.2808,-3.2808,-3.2808,-3.2808,-3.2808,-3.2808,-3.2808,-3.2808,-3.2808,-3.2808,-3.2808,-3.2808,-3.2808,-3.2808,-3.2808,-3.2808,-3.2808,-3.2808,-3.2808,-3.2808,-3.2808,-3.2808,-3.2808,-3.2808,-3.2808,-3.2808,-3.2808,-3.2808,-3.2808,-3.2808,-3.2808,-3.2808,-3.2808,-3.2808,-3.2808,-3.2808,-3.2808,-3.2808,-3.2705,-3.2558,-3.2353,-3.2148,-3.2149,-3.2178,-3.2032,-3.2046,-3.2353,-3.2441,-3.2705,-3.2764,-3.2793,-3.2749,-3.2676,-3.2573,-3.2354,-3.2032,-3.1651,-3.1302,-3.0997,-3.0782,-3.0499,-3.029,-3.0039,-2.9732,-2.9007,-3.0776,-3.0776,-3.0776,-3.0776,-3.0776,-3.0776,-3.0776,-3.0776,-3.0776,-3.1183,-3.1724,-3.1973,-3.2339,-3.272,-3.2808,-3.2808,-3.2808,-3.2808,-3.2808,-3.2808,-3.2808,-3.2808,-3.2808,-3.2808,-3.2808,-3.2808,-3.2808,-3.2808,-3.2808,-3.2808,-3.2808,-3.2808,-3.2808,-3.2808,-3.2808,-3.2808,-3.2808,-3.2808,-3.2808,-3.2808,-3.2808,-3.2808,-3.2808,-3.2808,-3.2808,-3.2808,-3.2808,-3.2808,-3.2808,-3.2808,-3.2808,-3.2808,-3.2808,-3.2808,-3.2808,-3.2808,-3.2808,-3.2808,-3.2808,-3.2808,-3.2808,-3.2808,-3.2808,-3.2808,-3.2808,-3.2808,-3.2808,-3.2808,-3.2808,-3.2808,-3.2808,-3.2808,-3.2808,-3.2808,-3.2808,-3.2808,-3.2808,-3.2808,-3.2808,-3.2808,-3.2808,-3.2808,-3.2808,-3.2808,-3.2808,-3.2808,-3.2808,-3.2808,-3.2705,-3.2558,-3.2383,-3.2163,-3.228,-3.2295,-3.212,-3.2032,-3.2221,-3.2353,-3.2602,-3.2749,-3.2793,-3.2808,-3.2764,-3.2661,-3.2515,-3.2295,-3.1988,-3.155,-3.1086,-3.0672,-3.0332,-3.0081,-2.9872,-2.9565,-2.9188,-3.0776,-3.0776,-3.0776,-3.0776,-3.0776,-3.0776,-3.0776,-3.0776,-3.0776,-3.1198,-3.1827,-3.2427,-3.2705,-3.2808,-3.2808,-3.2808,-3.2808,-3.2808,-3.2808,-3.2808,-3.2808,-3.2808,-3.2808,-3.2808,-3.2808,-3.2808,-3.2808,-3.2808,-3.2808,-3.2808,-3.2808,-3.2808,-3.2808,-3.2808,-3.2808,-3.2808,-3.2808,-3.2808,-3.2808,-3.2808,-3.2808,-3.2808,-3.2808,-3.2808,-3.2808,-3.2808,-3.2808,-3.2808,-3.2808,-3.2808,-3.2808,-3.2808,-3.2808,-3.2808,-3.2808,-3.2808,-3.2808,-3.2808,-3.2808,-3.2808,-3.2808,-3.2808,-3.2808,-3.2808,-3.2808,-3.2808,-3.2808,-3.2808,-3.2808,-3.2808,-3.2808,-3.2808,-3.2808,-3.2808,-3.2808,-3.2808,-3.2808,-3.2808,-3.2808,-3.2808,-3.2808,-3.2808,-3.2808,-3.2808,-3.2808,-3.2808,-3.2808,-3.2808,-3.2778,-3.2602,-3.2471,-3.2383,-3.2529,-3.2515,-3.2353,-3.2368,-3.2485,-3.2529,-3.2661,-3.2764,-3.2808,-3.2808,-3.2808,-3.2793,-3.2676,-3.2485,-3.2295,-3.1842,-3.1306,-3.059,-3.0137,-2.9956,-2.9621,-2.923,-2.8852,-3.0776,-3.0776,-3.0776,-3.0776,-3.0776,-3.0776,-3.0776,-3.0776,-3.079,-3.1183,-3.1841,-3.25,-3.2808,-3.2808,-3.2808,-3.2808,-3.2808,-3.2808,-3.2808,-3.2808,-3.2808,-3.2808,-3.2808,-3.2808,-3.2808,-3.2808,-3.2808,-3.2808,-3.2808,-3.2808,-3.2808,-3.2808,-3.2808,-3.2808,-3.2808,-3.2808,-3.2808,-3.2808,-3.2808,-3.2808,-3.2808,-3.2808,-3.2808,-3.2808,-3.2808,-3.2808,-3.2808,-3.2808,-3.2808,-3.2808,-3.2808,-3.2808,-3.2808,-3.2808,-3.2808,-3.2808,-3.2808,-3.2808,-3.2808,-3.2808,-3.2808,-3.2808,-3.2808,-3.2808,-3.2808,-3.2808,-3.2808,-3.2808,-3.2808,-3.2808,-3.2808,-3.2808,-3.2808,-3.2808,-3.2808,-3.2808,-3.2808,-3.2808,-3.2808,-3.2808,-3.2808,-3.2808,-3.2808,-3.2808,-3.2808,-3.2808,-3.2808,-3.2808,-3.2778,-3.2661,-3.2515,-3.2471,-3.2544,-3.2427,-3.2222,-3.2412,-3.272,-3.2734,-3.2676,-3.2764,-3.2808,-3.2808,-3.2808,-3.2808,-3.2793,-3.2588,-3.2368,-3.2105,-3.1553,-3.0692,-3.0182,-2.9872,-2.9453,-2.8936,-2.8613,-3.0776,-3.0776,-3.0776,-3.0776,-3.0776,-3.0776,-3.0776,-3.0776,-3.0776,-3.1198,-3.1841,-3.2456,-3.2808,-3.2808,-3.2808,-3.2808,-3.2808,-3.2808,-3.2808,-3.2808,-3.2808,-3.2808,-3.2808,-3.2808,-3.2808,-3.2808,-3.2808,-3.2808,-3.2808,-3.2808,-3.2808,-3.2808,-3.2808,-3.2808,-3.2808,-3.2808,-3.2808,-3.2808,-3.2808,-3.2808,-3.2808,-3.2808,-3.2808,-3.2808,-3.2808,-3.2808,-3.2808,-3.2808,-3.2808,-3.2808,-3.2808,-3.2808,-3.2808,-3.2808,-3.2808,-3.2808,-3.2808,-3.2808,-3.2808,-3.2808,-3.2808,-3.2808,-3.2808,-3.2808,-3.2808,-3.2808,-3.2808,-3.2808,-3.2808,-3.2808,-3.2808,-3.2808,-3.2808,-3.2808,-3.2808,-3.2808,-3.2808,-3.2808,-3.2808,-3.2808,-3.2808,-3.2808,-3.2808,-3.2808,-3.2808,-3.2808,-3.2808,-3.2808,-3.2793,-3.2646,-3.25,-3.2441,-3.2515,-3.2266,-3.2061,-3.2412,-3.2764,-3.2764,-3.2764,-3.2778,-3.2808,-3.2808,-3.2808,-3.2808,-3.2764,-3.2646,-3.2485,-3.228,-3.1612,-3.0766,-3.0212,-2.9579,-2.9034,-2.8558,-2.8487,-3.0776,-3.0776,-3.0776,-3.0776,-3.0776,-3.0776,-3.0776,-3.0805,-3.0863,-3.1242,-3.1856,-3.2529,-3.2808,-3.2808,-3.2808,-3.2808,-3.2808,-3.2808,-3.2808,-3.2808,-3.2808,-3.2808,-3.2808,-3.2808,-3.2808,-3.2808,-3.2808,-3.2808,-3.2808,-3.2808,-3.2808,-3.2808,-3.2808,-3.2808,-3.2808,-3.2808,-3.2808,-3.2808,-3.2808,-3.2808,-3.2808,-3.2808,-3.2808,-3.2808,-3.2808,-3.2808,-3.2808,-3.2808,-3.2808,-3.2808,-3.2808,-3.2808,-3.2808,-3.2808,-3.2808,-3.2808,-3.2808,-3.2808,-3.2808,-3.2808,-3.2808,-3.2808,-3.2808,-3.2808,-3.2808,-3.2808,-3.2808,-3.2808,-3.2808,-3.2808,-3.2808,-3.2808,-3.2808,-3.2808,-3.2808,-3.2808,-3.2808,-3.2808,-3.2808,-3.2808,-3.2808,-3.2808,-3.2808,-3.2808,-3.2808,-3.2808,-3.2808,-3.2808,-3.2808,-3.2734,-3.2602,-3.2544,-3.2588,-3.2515,-3.2368,-3.2559,-3.2793,-3.2793,-3.2793,-3.2808,-3.2808,-3.2808,-3.2808,-3.2808,-3.2793,-3.2749,-3.2602,-3.2485,-3.1729,-3.0881,-2.9775,-2.9103,-2.8556,-2.8263,-2.8263,-3.0776,-3.0776,-3.0776,-3.0776,-3.0776,-3.0776,-3.0776,-3.0863,-3.1256,-3.1593,-3.19,-3.2529,-3.2808,-3.2808,-3.2808,-3.2808,-3.2808,-3.2808,-3.2808,-3.2808,-3.2808,-3.2808,-3.2808,-3.2808,-3.2808,-3.2808,-3.2808,-3.2808,-3.2808,-3.2808,-3.2808,-3.2808,-3.2808,-3.2808,-3.2808,-3.2808,-3.2808,-3.2808,-3.2808,-3.2808,-3.2808,-3.2808,-3.2808,-3.2808,-3.2808,-3.2808,-3.2808,-3.2808,-3.2808,-3.2808,-3.2808,-3.2808,-3.2808,-3.2808,-3.2808,-3.2808,-3.2808,-3.2808,-3.2808,-3.2808,-3.2808,-3.2808,-3.2808,-3.2808,-3.2808,-3.2808,-3.2808,-3.2808,-3.2808,-3.2808,-3.2808,-3.2808,-3.2808,-3.2808,-3.2808,-3.2808,-3.2808,-3.2808,-3.2808,-3.2808,-3.2808,-3.2808,-3.2808,-3.2808,-3.2808,-3.2808,-3.2808,-3.2808,-3.2808,-3.2808,-3.2734,-3.2734,-3.2734,-3.272,-3.2749,-3.2778,-3.2808,-3.2808,-3.2808,-3.2808,-3.2808,-3.2808,-3.2808,-3.2808,-3.2808,-3.2808,-3.2631,-3.2324,-3.1786,-3.0965,-3.0068,-2.9152,-2.8603,-2.8326,-2.8234,-3.0776,-3.0776,-3.0776,-3.0776,-3.0776,-3.0776,-3.0776,-3.0907,-3.149,-3.1798,-3.1944,-3.2515,-3.2808,-3.2808,-3.2808,-3.2808,-3.2808,-3.2808,-3.2808,-3.2808,-3.2808,-3.2808,-3.2808,-3.2808,-3.2808,-3.2808,-3.2808,-3.2808,-3.2808,-3.2808,-3.2808,-3.2808,-3.2808,-3.2808,-3.2808,-3.2808,-3.2808,-3.2808,-3.2808,-3.2808,-3.2808,-3.2808,-3.2808,-3.2808,-3.2808,-3.2808,-3.2808,-3.2808,-3.2808,-3.2808,-3.2808,-3.2808,-3.2808,-3.2808,-3.2808,-3.2808,-3.2808,-3.2808,-3.2808,-3.2808,-3.2808,-3.2808,-3.2808,-3.2808,-3.2808,-3.2808,-3.2808,-3.2808,-3.2808,-3.2808,-3.2808,-3.2808,-3.2808,-3.2808,-3.2808,-3.2808,-3.2808,-3.2808,-3.2808,-3.2808,-3.2808,-3.2808,-3.2808,-3.2808,-3.2808,-3.2808,-3.2808,-3.2808,-3.2808,-3.2808,-3.2808,-3.2808,-3.2808,-3.2778,-3.2778,-3.2793,-3.2808,-3.2808,-3.2808,-3.2808,-3.2808,-3.2808,-3.2808,-3.2808,-3.2763,-3.2719,-3.2498,-3.2147,-3.1666,-3.1188,-3.0572,-2.9703,-2.8813,-2.8484,-2.8353,-3.0776,-3.0776,-3.0776,-3.0776,-3.0776,-3.0776,-3.0776,-3.089,-3.152,-3.1798,-3.1841,-3.2485,-3.2808,-3.2808,-3.2808,-3.2808,-3.2808,-3.2808,-3.2808,-3.2808,-3.2808,-3.2808,-3.2808,-3.2808,-3.2808,-3.2808,-3.2808,-3.2808,-3.2808,-3.2808,-3.2808,-3.2808,-3.2808,-3.2808,-3.2808,-3.2808,-3.2808,-3.2808,-3.2808,-3.2808,-3.2808,-3.2808,-3.2808,-3.2808,-3.2808,-3.2808,-3.2808,-3.2808,-3.2808,-3.2808,-3.2808,-3.2808,-3.2808,-3.2808,-3.2808,-3.2808,-3.2808,-3.2808,-3.2808,-3.2808,-3.2808,-3.2808,-3.2808,-3.2808,-3.2808,-3.2808,-3.2808,-3.2808,-3.2808,-3.2808,-3.2808,-3.2808,-3.2808,-3.2808,-3.2808,-3.2808,-3.2808,-3.2808,-3.2808,-3.2808,-3.2808,-3.2808,-3.2808,-3.2808,-3.2808,-3.2808,-3.2808,-3.2808,-3.2808,-3.2808,-3.2808,-3.2808,-3.2808,-3.2808,-3.2808,-3.2808,-3.2808,-3.2808,-3.2808,-3.2808,-3.2808,-3.2808,-3.2808,-3.2808,-3.2763,-3.2572,-3.2159,-3.1848,-3.1568,-3.1105,-3.0645,-3.0074,-2.9135,-2.8764,-2.8577,-3.0776,-3.0776,-3.0776,-3.0776,-3.0776,-3.0776,-3.0776,-3.0878,-3.1505,-3.1798,-3.1841,-3.2485,-3.2808,-3.2808,-3.2808,-3.2808,-3.2808,-3.2808,-3.2808,-3.2808,-3.2808,-3.2808,-3.2808,-3.2808,-3.2808,-3.2808,-3.2808,-3.2808,-3.2808,-3.2808,-3.2808,-3.2808,-3.2808,-3.2808,-3.2808,-3.2808,-3.2808,-3.2808,-3.2808,-3.2808,-3.2808,-3.2808,-3.2808,-3.2808,-3.2808,-3.2808,-3.2808,-3.2808,-3.2808,-3.2808,-3.2808,-3.2808,-3.2808,-3.2808,-3.2808,-3.2808,-3.2808,-3.2808,-3.2808,-3.2808,-3.2808,-3.2808,-3.2808,-3.2808,-3.2808,-3.2808,-3.2808,-3.2808,-3.2808,-3.2808,-3.2808,-3.2808,-3.2808,-3.2808,-3.2808,-3.2808,-3.2808,-3.2808,-3.2808,-3.2808,-3.2808,-3.2808,-3.2808,-3.2808,-3.2808,-3.2808,-3.2808,-3.2808,-3.2808,-3.2808,-3.2808,-3.2808,-3.2808,-3.2808,-3.2808,-3.2808,-3.2808,-3.2808,-3.2808,-3.2808,-3.2808,-3.2808,-3.2808,-3.2675,-3.2542,-3.2099,-3.1596,-3.1374,-3.1254,-3.0973,-3.0554,-3.0026,-2.9559,-2.9085,-2.8745,-3.0776,-3.0776,-3.0776,-3.0776,-3.0776,-3.0776,-3.0849,-3.1095,-3.1578,-3.1798,-3.1871,-3.2485,-3.2808,-3.2808,-3.2808,-3.2808,-3.2808,-3.2808,-3.2808,-3.2808,-3.2808,-3.2808,-3.2808,-3.2808,-3.2808,-3.2808,-3.2808,-3.2808,-3.2808,-3.2808,-3.2808,-3.2808,-3.2808,-3.2808,-3.2808,-3.2808,-3.2808,-3.2808,-3.2808,-3.2808,-3.2808,-3.2808,-3.2808,-3.2808,-3.2808,-3.2808,-3.2808,-3.2808,-3.2808,-3.2808,-3.2808,-3.2808,-3.2808,-3.2808,-3.2808,-3.2808,-3.2808,-3.2808,-3.2808,-3.2808,-3.2808,-3.2808,-3.2808,-3.2808,-3.2808,-3.2808,-3.2808,-3.2808,-3.2808,-3.2808,-3.2808,-3.2808,-3.2808,-3.2808,-3.2808,-3.2808,-3.2808,-3.2808,-3.2808,-3.2808,-3.2808,-3.2808,-3.2808,-3.2808,-3.2808,-3.2808,-3.2808,-3.2808,-3.2808,-3.2808,-3.2808,-3.2808,-3.2808,-3.2808,-3.2808,-3.2808,-3.2808,-3.2808,-3.2808,-3.2808,-3.2808,-3.2808,-3.2808,-3.2498,-3.2188,-3.1729,-3.1329,-3.1062,-3.0884,-3.0616,-3.0258,-2.9664,-2.93,-2.9084,-2.8819,-3.0776,-3.0776,-3.0776,-3.0776,-3.0776,-3.0776,-3.1007,-3.1344,-3.1651,-3.1827,-3.1973,-3.25,-3.2808,-3.2808,-3.2808,-3.2808,-3.2808,-3.2808,-3.2808,-3.2808,-3.2808,-3.2808,-3.2808,-3.2808,-3.2808,-3.2808,-3.2808,-3.2808,-3.2808,-3.2808,-3.2808,-3.2808,-3.2808,-3.2808,-3.2808,-3.2808,-3.2808,-3.2808,-3.2808,-3.2808,-3.2808,-3.2808,-3.2808,-3.2808,-3.2808,-3.2808,-3.2808,-3.2808,-3.2808,-3.2808,-3.2808,-3.2808,-3.2808,-3.2808,-3.2808,-3.2808,-3.2808,-3.2808,-3.2808,-3.2808,-3.2808,-3.2808,-3.2808,-3.2808,-3.2808,-3.2808,-3.2808,-3.2808,-3.2808,-3.2808,-3.2808,-3.2808,-3.2808,-3.2808,-3.2808,-3.2808,-3.2808,-3.2808,-3.2808,-3.2808,-3.2808,-3.2808,-3.2808,-3.2808,-3.2808,-3.2808,-3.2808,-3.2808,-3.2808,-3.2808,-3.2808,-3.2808,-3.2808,-3.2808,-3.2808,-3.2808,-3.2808,-3.2808,-3.2808,-3.2808,-3.2808,-3.2822,-3.2778,-3.2365,-3.1951,-3.1552,-3.1151,-3.0839,-3.0495,-3.0272,-2.9855,-2.9214,-2.8828,-2.8481,-2.8346,-3.0776,-3.0776,-3.0776,-3.0776,-3.0776,-3.0776,-3.1007,-3.1329,-3.1651,-3.1944,-3.2207,-3.2602,-3.2808,-3.2808,-3.2808,-3.2808,-3.2808,-3.2808,-3.2808,-3.2808,-3.2808,-3.2808,-3.2808,-3.2808,-3.2808,-3.2808,-3.2808,-3.2808,-3.2808,-3.2808,-3.2808,-3.2808,-3.2808,-3.2808,-3.2808,-3.2808,-3.2808,-3.2808,-3.2808,-3.2808,-3.2808,-3.2808,-3.2808,-3.2808,-3.2808,-3.2808,-3.2808,-3.2808,-3.2808,-3.2808,-3.2808,-3.2808,-3.2808,-3.2808,-3.2808,-3.2808,-3.2808,-3.2808,-3.2808,-3.2808,-3.2808,-3.2808,-3.2808,-3.2808,-3.2808,-3.2808,-3.2808,-3.2808,-3.2808,-3.2808,-3.2808,-3.2808,-3.2808,-3.2808,-3.2808,-3.2808,-3.2808,-3.2808,-3.2808,-3.2808,-3.2808,-3.2808,-3.2808,-3.2808,-3.2808,-3.2808,-3.2808,-3.2808,-3.2808,-3.2808,-3.2808,-3.2808,-3.2808,-3.2808,-3.2808,-3.2808,-3.2808,-3.2808,-3.2808,-3.2808,-3.2808,-3.2778,-3.2734,-3.2188,-3.1729,-3.1374,-3.0928,-3.0361,-3.0093,-2.9689,-2.9137,-2.8391,-2.7476,-2.6948,-2.7027,-3.0776,-3.0776,-3.0776,-3.0776,-3.0776,-3.0776,-3.1081,-3.1505,-3.1724,-3.2061,-3.2471,-3.272,-3.2808,-3.2808,-3.2808,-3.2808,-3.2808,-3.2808,-3.2808,-3.2808,-3.2808,-3.2808,-3.2808,-3.2808,-3.2808,-3.2808,-3.2808,-3.2808,-3.2808,-3.2808,-3.2808,-3.2808,-3.2808,-3.2808,-3.2808,-3.2808,-3.2808,-3.2808,-3.2808,-3.2808,-3.2808,-3.2808,-3.2808,-3.2808,-3.2808,-3.2808,-3.2808,-3.2808,-3.2808,-3.2808,-3.2808,-3.2808,-3.2808,-3.2808,-3.2808,-3.2808,-3.2808,-3.2808,-3.2808,-3.2808,-3.2808,-3.2808,-3.2808,-3.2808,-3.2808,-3.2808,-3.2808,-3.2808,-3.2808,-3.2808,-3.2808,-3.2808,-3.2808,-3.2808,-3.2808,-3.2808,-3.2808,-3.2808,-3.2808,-3.2808,-3.2808,-3.2808,-3.2808,-3.2808,-3.2808,-3.2808,-3.2808,-3.2808,-3.2808,-3.2808,-3.2808,-3.2808,-3.2808,-3.2808,-3.2808,-3.2808,-3.2808,-3.2808,-3.2808,-3.2763,-3.2763,-3.2778,-3.2645,-3.2232,-3.1774,-3.1374,-3.0884,-3.0169,-2.9079,-2.8404,-2.7985,-2.7534,-2.6423,-2.5184,-2.4901,-3.0776,-3.0776,-3.0776,-3.0776,-3.0776,-3.0776,-3.1183,-3.1724,-3.1812,-3.2163,-3.2734,-3.2793,-3.2808,-3.2808,-3.2808,-3.2808,-3.2808,-3.2808,-3.2808,-3.2808,-3.2808,-3.2808,-3.2808,-3.2808,-3.2808,-3.2808,-3.2808,-3.2808,-3.2808,-3.2808,-3.2808,-3.2808,-3.2808,-3.2808,-3.2808,-3.2808,-3.2808,-3.2808,-3.2808,-3.2808,-3.2808,-3.2808,-3.2808,-3.2808,-3.2808,-3.2808,-3.2808,-3.2808,-3.2808,-3.2808,-3.2808,-3.2808,-3.2808,-3.2808,-3.2808,-3.2808,-3.2808,-3.2808,-3.2808,-3.2808,-3.2808,-3.2808,-3.2808,-3.2808,-3.2808,-3.2808,-3.2808,-3.2808,-3.2808,-3.2808,-3.2808,-3.2808,-3.2808,-3.2808,-3.2808,-3.2808,-3.2808,-3.2808,-3.2808,-3.2808,-3.2808,-3.2808,-3.2808,-3.2808,-3.2808,-3.2808,-3.2808,-3.2808,-3.2808,-3.2808,-3.2808,-3.2808,-3.2808,-3.2808,-3.2808,-3.2808,-3.2808,-3.2808,-3.2808,-3.2763,-3.2719,-3.2734,-3.2645,-3.2409,-3.201,-3.1374,-3.0602,-2.9842,-2.8706,-2.725,-2.6525,-2.5832,-2.4043,-2.2897,-2.2402,-3.0776,-3.0776,-3.0776,-3.0776,-3.0776,-3.0776,-3.1198,-3.1739,-3.1812,-3.2163,-3.269,-3.2808,-3.2808,-3.2808,-3.2808,-3.2808,-3.2808,-3.2808,-3.2808,-3.2808,-3.2808,-3.2808,-3.2808,-3.2808,-3.2808,-3.2808,-3.2808,-3.2808,-3.2808,-3.2808,-3.2808,-3.2808,-3.2808,-3.2808,-3.2808,-3.2808,-3.2808,-3.2808,-3.2808,-3.2808,-3.2808,-3.2808,-3.2808,-3.2808,-3.2808,-3.2808,-3.2808,-3.2808,-3.2808,-3.2808,-3.2808,-3.2808,-3.2808,-3.2808,-3.2808,-3.2808,-3.2808,-3.2808,-3.2808,-3.2808,-3.2808,-3.2808,-3.2808,-3.2808,-3.2808,-3.2808,-3.2808,-3.2808,-3.2808,-3.2808,-3.2808,-3.2808,-3.2808,-3.2808,-3.2808,-3.2808,-3.2808,-3.2808,-3.2808,-3.2808,-3.2808,-3.2808,-3.2808,-3.2808,-3.2808,-3.2808,-3.2808,-3.2808,-3.2808,-3.2808,-3.2808,-3.2808,-3.2808,-3.2808,-3.2808,-3.2808,-3.2808,-3.2808,-3.2763,-3.2631,-3.2586,-3.2675,-3.2542,-3.2188,-3.1774,-3.1226,-3.0423,-2.9201,-2.7702,-2.6196,-2.5104,-2.3962,-2.2034,-2.0936,-2.0659]},{"header":{"parameterUnit":"m.s-1","parameterCategory":1,"la1":31.0,"la2":29.5877,"lo1":-88.7671,"lo2":-86.6584,"dx":0.0162,"dy":0.0185,"nx":115,"ny":88,"refTime":"2022-11-29T06:00:00:Z","depth":0,"parameterNumber":3,"parameterNumberName":"V-component_of_WINDS"},"data":[0.0,0.0,0.0,0.0,0.0,0.0,0.0,0.0,0.0,0.0,0.0,0.0,0.0,0.0,0.0,0.0,0.0,0.0,0.0,0.0,0.0,0.0,0.0,0.0,0.0,0.0,0.0,0.0,0.0,0.0,0.0,0.0,0.0,0.0,0.0,0.0,0.0,0.0,0.0,0.0,0.0,0.0,0.0,0.0,0.0,0.0,0.0,0.0,0.0,0.0,0.0,0.0,0.0,0.0,0.0,0.0,0.0,0.0,0.0,0.0,0.0,0.0,0.0,0.0,0.0,0.0,0.0,0.0,0.0,0.0,0.0,0.0,0.0,0.0,0.0,0.0,0.0,0.0,0.0,0.0,0.0,0.0,0.0,0.0,0.0,0.0,0.0,0.0,0.0,0.0,0.0,0.0,0.0,0.0,0.0,0.0,0.0,0.0,0.0,0.0,0.0,0.0,0.0,0.0,0.0,0.0,0.0,0.0,0.0,0.0,0.0,0.0,0.0,0.0,0.0,0.0,0.0,0.0,0.0,0.0,0.0,0.0,0.0,0.0,0.0,0.0,0.0,0.0,0.0,0.0,0.0,0.0,0.0,0.0,0.0,0.0,0.0,0.0,0.0,0.0,0.0,0.0,0.0,0.0,0.0,0.0,0.0,0.0,0.0,0.0,0.0,0.0,0.0,0.0,0.0,0.0,0.0,0.0,0.0,0.0,0.0,0.0,0.0,0.0,0.0,0.0,0.0,0.0,0.0,0.0,0.0,0.0,0.0,0.0,0.0,0.0,0.0,0.0,0.0,0.0,0.0,0.0,0.0,0.0,0.0,0.0,0.0,0.0,0.0,0.0,0.0,0.0,0.0,0.0,0.0,0.0,0.0,0.0,0.0,0.0,0.0,0.0,0.0,0.0,0.0,0.0,0.0,0.0,0.0,0.0,0.0,0.0,0.0,0.0,0.0,0.0,0.0,0.0,0.0,0.0,0.0,0.0,0.0,0.0,0.0,0.0,0.0,0.0,0.0,0.0,0.0,0.0,0.0,0.0,0.0,0.0,0.0,0.0,0.0,0.0,0.0,0.0,0.0,0.0,0.0,0.0,0.0,0.0,0.0,0.0,0.0,0.0,0.0,0.0,0.0,0.0,0.0,0.0,0.0,0.0,0.0,0.0,0.0,0.0,0.0,0.0,0.0,0.0,0.0,0.0,0.0,0.0,0.0,0.0,0.0,0.0,0.0,0.0,0.0,0.0,0.0,0.0,0.0,0.0,0.0,0.0,0.0,0.0,0.0,0.0,0.0,0.0,0.0,0.0,0.0,0.0,0.0,0.0,0.0,0.0,0.0,0.0,0.0,0.0,0.0,0.0,0.0,0.0,0.0,0.0,0.0,0.0,0.0,0.0,0.0,0.0,0.0,0.0,0.0,0.0,0.0,0.0,0.0,0.0,0.0,0.0,0.0,0.0,0.0,0.0,0.0,0.0,0.0,0.0,0.0,0.0,0.0,0.0,0.0,0.0,0.0,0.0,0.0,0.0,0.0,0.0,0.0,0.0,0.0,0.0,0.0,0.0,0.0,0.0,0.0,0.0,0.0,0.0,0.0,0.0,0.0,0.0,0.0,0.0,0.0,0.0,0.0,0.0,0.0,0.0,0.0,0.0,0.0,0.0,0.0,0.0,0.0,0.0,0.0,0.0,0.0,0.0,0.0,0.0,0.0,0.0,0.0,0.0,0.0,0.0,0.0,0.0,0.0,0.0,0.0,0.0,0.0,0.0,0.0,0.0,0.0,0.0,0.0,0.0,0.0,0.0,0.0,0.0,0.0,0.0,0.0,0.0,0.0,0.0,0.0,0.0,0.0,0.0,0.0,0.0,0.0,0.0,0.0,0.0,0.0,0.0,0.0,0.0,0.0,0.0,0.0,0.0,0.0,0.0,0.0,0.0,0.0,0.0,0.0,0.0,0.0,0.0,0.0,0.0,0.0,0.0,0.0,0.0,0.0,0.0,0.0,0.0,0.0,0.0,0.0,0.0,0.0,0.0,0.0,0.0,0.0,0.0,0.0,0.0,0.0,0.0,0.0,0.0,0.0,0.0,0.0,0.0,0.0,0.0,0.0,0.0,0.0,0.0,0.0,0.0,0.0,0.0,0.0,0.0,0.0,0.0,0.0,0.0,0.0,0.0,0.0,0.0,0.0,0.0,0.0,0.0,0.0,0.0,0.0,0.0,0.0,0.0,0.0,0.0,0.0,0.0,0.0,0.0,0.0,0.0,0.0,0.0,0.0,0.0,0.0,0.0,0.0,0.0,0.0,0.0,0.0,0.0,0.0,0.0,0.0,0.0,0.0,0.0,0.0,0.0,0.0,0.0,0.0,0.0,0.0,0.0,0.0,0.0,0.0,0.0,0.0,0.0,0.0,0.0,0.0,0.0,0.0,0.0,0.0,0.0,0.0,0.0,0.0,0.0,0.0,0.0,0.0,0.0,0.0,0.0,0.0,0.0,0.0,0.0,0.0,0.0,0.0,0.0,0.0,0.0,0.0,0.0,0.0,0.0,0.0,0.0,0.0,0.0,0.0,0.0,0.0,0.0,0.0,0.0,0.0,0.0,0.0,0.0,0.0,0.0,0.0,0.0,0.0,0.0,0.0,0.0,0.0,0.0,0.0,0.0,0.0,0.0,0.0,0.0,0.0,0.0,0.0,0.0,0.0,0.0,0.0,0.0,0.0,0.0,0.0,0.0,0.0,0.0,0.0,0.0,0.0,0.0,0.0,0.0,0.0,0.0,0.0,0.0,0.0,0.0,0.0,0.0,0.0,0.0,0.0,0.0,0.0,0.0,0.0,0.0,0.0,0.0,0.0,0.0,0.0,0.0,0.0,0.0,0.0,0.0,0.0,0.0,0.0,0.0,0.0,0.0,0.0,0.0,0.0,0.0,0.0,0.0,0.0,0.0,0.0,0.0,0.0,0.0,0.0,0.0,0.0,0.0,0.0,0.0,0.0,0.0,0.0,0.0,0.0,0.0,0.0,0.0,0.0,0.0,0.0,0.0,0.0,0.0,0.0,0.0,0.0,0.0,0.0,0.0,0.0,0.0,0.0,0.0,0.0,0.0,0.0,0.0,0.0,0.0,0.0,0.0,0.0,0.0,0.0,0.0,0.0,0.0,0.0,0.0,0.0,0.0,0.0,0.0,0.0,0.0,0.0,0.0,0.0,0.0,0.0,0.0,0.0,0.0,0.0,0.0,0.0,0.0,0.0,0.0,0.0,0.0,0.0,0.0,0.0,0.0,0.0,0.0,0.0,0.0,0.0,0.0,0.0,0.0,0.0,0.0,0.0,0.0,0.0,0.0,0.0,0.0,0.0,0.0,0.0,0.0,0.0,0.0,0.0,0.0,0.0,0.0,0.0,0.0,0.0,0.0,0.0,0.0,0.0,0.0,0.0,0.0,0.0,0.0,0.0,0.0,0.0,0.0,0.0,0.0,0.0,0.0,0.0,0.0,0.0,0.0,0.0,0.0,0.0,0.0,0.0,0.0,0.0,0.0,0.0,0.0,0.0,0.0,0.0,0.0,0.0,0.0,0.0,0.0,0.0,0.0,0.0,0.0,0.0,0.0,0.0,0.0,0.0,0.0,0.0,0.0,0.0,0.0,0.0,0.0,0.0,0.0,0.0,0.0,0.0,0.0,0.0,0.0,0.0,0.0,0.0,0.0,0.0,0.0,0.0,0.0,0.0,0.0,0.0,0.0,0.0,0.0,0.0,0.0,0.0,0.0,0.0,0.0,0.0,0.0,0.0,0.0,0.0,0.0,0.0,0.0,0.0,0.0,0.0,0.0,0.0,0.0,0.0,0.0,0.0,0.0,0.0,0.0,0.0,0.0,0.0,0.0,0.0,0.0,0.0,0.0,0.0,0.0,0.0,0.0,0.0,0.0,0.0,0.0,0.0,0.0,0.0,0.0,0.0,0.0,0.0,0.0,0.0,0.0,0.0,0.0,0.0,0.0,0.0,0.0,0.0,0.0,0.0,0.0,0.0,0.0,0.0,0.0,0.0,0.0,0.0,0.0,0.0,0.0,0.0,0.0,0.0,0.0,0.0,0.0,0.0,0.0,0.0,0.0,0.0,0.0,0.0,0.0,0.0,0.0,0.0,0.0,0.0,0.0,0.0,0.0,0.0,0.0,0.0,0.0,0.0,0.0,0.0,0.0,0.0,0.0,0.0,0.0,0.0,0.0,0.0,0.0,0.0,0.0,0.0,0.0,0.0,0.0,2.5845,0.0,0.0,0.0,2.5262,0.0,0.0,0.0,0.0,0.0,0.0,0.0,0.0,0.0,0.0,0.0,0.0,0.0,0.0,0.0,0.0,0.0,0.0,0.0,0.0,0.0,0.0,0.0,0.0,0.0,0.0,0.0,0.0,0.0,0.0,0.0,0.0,0.0,0.0,0.0,0.0,0.0,0.0,0.0,0.0,0.0,0.0,0.0,0.0,0.0,0.0,0.0,0.0,0.0,0.0,0.0,0.0,0.0,0.0,0.0,0.0,0.0,0.0,0.0,0.0,0.0,0.0,0.0,0.0,0.0,0.0,0.0,0.0,0.0,0.0,0.0,0.0,0.0,0.0,0.0,0.0,0.0,0.0,0.0,0.0,0.0,0.0,0.0,0.0,0.0,0.0,0.0,0.0,0.0,0.0,0.0,0.0,0.0,0.0,0.0,0.0,0.0,0.0,0.0,0.0,0.0,0.0,0.0,0.0,0.0,0.0,0.0,0.0,0.0,0.0,2.6353,2.6666,2.5691,2.5292,2.5589,0.0,0.0,0.0,0.0,0.0,0.0,0.0,0.0,0.0,0.0,0.0,0.0,0.0,0.0,0.0,0.0,0.0,0.0,0.0,0.0,0.0,0.0,0.0,0.0,0.0,0.0,0.0,0.0,0.0,0.0,0.0,0.0,0.0,0.0,0.0,0.0,0.0,0.0,0.0,0.0,0.0,0.0,0.0,0.0,0.0,0.0,0.0,0.0,0.0,0.0,0.0,0.0,0.0,0.0,0.0,0.0,0.0,0.0,0.0,0.0,0.0,0.0,0.0,0.0,0.0,0.0,0.0,0.0,0.0,0.0,0.0,0.0,0.0,0.0,0.0,0.0,0.0,0.0,0.0,0.0,0.0,0.0,0.0,0.0,0.0,0.0,0.0,0.0,0.0,0.0,0.0,0.0,0.0,0.0,0.0,0.0,0.0,0.0,0.0,0.0,0.0,0.0,0.0,0.0,0.0,0.0,0.0,0.0,0.0,0.0,0.0,0.0,2.6297,2.6023,2.6004,0.0,0.0,0.0,0.0,0.0,0.0,0.0,0.0,0.0,0.0,0.0,0.0,0.0,0.0,0.0,0.0,0.0,0.0,0.0,0.0,0.0,0.0,0.0,0.0,0.0,0.0,0.0,0.0,0.0,0.0,0.0,0.0,0.0,0.0,0.0,0.0,0.0,0.0,0.0,0.0,0.0,0.0,0.0,0.0,0.0,0.0,0.0,0.0,0.0,0.0,0.0,0.0,0.0,0.0,0.0,0.0,0.0,0.0,0.0,0.0,0.0,0.0,0.0,0.0,0.0,0.0,0.0,0.0,0.0,0.0,0.0,0.0,0.0,0.0,0.0,0.0,0.0,0.0,0.0,0.0,0.0,0.0,0.0,0.0,0.0,0.0,0.0,0.0,0.0,0.0,0.0,0.0,0.0,0.0,0.0,0.0,0.0,0.0,0.0,0.0,0.0,0.0,0.0,0.0,0.0,0.0,0.0,0.0,0.0,0.0,2.6933,2.7045,2.6993,0.0,2.6985,0.0,0.0,0.0,0.0,0.0,0.0,0.0,0.0,0.0,0.0,0.0,0.0,0.0,0.0,0.0,0.0,0.0,0.0,0.0,0.0,0.0,0.0,0.0,0.0,0.0,0.0,0.0,0.0,0.0,0.0,0.0,0.0,0.0,0.0,0.0,0.0,0.0,0.0,0.0,0.0,0.0,0.0,0.0,0.0,0.0,0.0,0.0,0.0,0.0,0.0,0.0,0.0,0.0,0.0,0.0,0.0,0.0,0.0,0.0,0.0,0.0,0.0,0.0,0.0,0.0,0.0,0.0,0.0,0.0,0.0,0.0,0.0,0.0,0.0,0.0,0.0,0.0,0.0,0.0,0.0,0.0,0.0,0.0,0.0,0.0,0.0,0.0,0.0,0.0,0.0,0.0,0.0,0.0,0.0,0.0,0.0,0.0,0.0,0.0,0.0,0.0,0.0,0.0,0.0,0.0,0.0,0.0,0.0,0.0,0.0,2.7144,2.7287,2.7365,2.7427,0.0,0.0,0.0,0.0,0.0,0.0,0.0,0.0,0.0,0.0,0.0,0.0,0.0,0.0,0.0,0.0,0.0,0.0,0.0,0.0,0.0,0.0,0.0,0.0,0.0,0.0,0.0,0.0,0.0,0.0,0.0,0.0,0.0,0.0,0.0,0.0,0.0,0.0,0.0,0.0,0.0,0.0,0.0,0.0,0.0,0.0,0.0,0.0,0.0,0.0,0.0,0.0,0.0,0.0,0.0,0.0,0.0,0.0,0.0,0.0,0.0,0.0,0.0,0.0,0.0,0.0,0.0,0.0,0.0,0.0,0.0,0.0,0.0,0.0,0.0,0.0,0.0,0.0,0.0,0.0,0.0,0.0,0.0,0.0,0.0,0.0,0.0,0.0,0.0,0.0,0.0,0.0,0.0,0.0,0.0,0.0,0.0,0.0,0.0,0.0,0.0,0.0,0.0,0.0,0.0,0.0,0.0,0.0,0.0,0.0,2.761,2.7774,2.7954,2.8074,2.8013,2.7773,0.0,0.0,0.0,0.0,0.0,0.0,0.0,0.0,0.0,0.0,0.0,0.0,0.0,0.0,0.0,0.0,0.0,0.0,0.0,0.0,0.0,0.0,0.0,0.0,0.0,0.0,0.0,0.0,0.0,0.0,0.0,0.0,0.0,0.0,0.0,0.0,0.0,0.0,0.0,0.0,0.0,0.0,0.0,0.0,0.0,0.0,0.0,0.0,0.0,0.0,0.0,0.0,0.0,0.0,0.0,0.0,0.0,0.0,0.0,0.0,0.0,0.0,0.0,0.0,0.0,0.0,0.0,0.0,0.0,0.0,0.0,0.0,0.0,0.0,0.0,0.0,0.0,0.0,0.0,0.0,0.0,0.0,0.0,0.0,0.0,0.0,0.0,0.0,0.0,0.0,0.0,0.0,0.0,0.0,0.0,0.0,0.0,0.0,0.0,0.0,0.0,0.0,0.0,0.0,0.0,0.0,0.0,0.0,2.8599,2.8812,2.9045,2.9283,2.9382,2.9024,0.0,0.0,0.0,0.0,0.0,0.0,0.0,0.0,0.0,0.0,0.0,0.0,0.0,0.0,0.0,0.0,0.0,0.0,0.0,0.0,0.0,0.0,0.0,0.0,0.0,0.0,0.0,0.0,0.0,0.0,0.0,0.0,0.0,0.0,0.0,0.0,0.0,0.0,0.0,0.0,0.0,0.0,0.0,0.0,0.0,0.0,0.0,0.0,0.0,0.0,0.0,0.0,0.0,0.0,0.0,0.0,0.0,0.0,0.0,0.0,0.0,0.0,0.0,0.0,0.0,0.0,0.0,0.0,0.0,0.0,0.0,0.0,0.0,0.0,0.0,0.0,0.0,0.0,0.0,0.0,0.0,0.0,0.0,0.0,0.0,0.0,0.0,0.0,0.0,0.0,0.0,0.0,0.0,0.0,0.0,0.0,0.0,0.0,0.0,0.0,0.0,0.0,0.0,0.0,0.0,0.0,0.0,0.0,0.0,2.9644,2.9972,2.9976,2.9668,2.9665,2.9298,0.0,0.0,0.0,0.0,0.0,0.0,0.0,0.0,0.0,0.0,0.0,0.0,0.0,0.0,0.0,0.0,0.0,0.0,0.0,0.0,0.0,0.0,0.0,0.0,0.0,0.0,0.0,0.0,0.0,0.0,0.0,0.0,0.0,0.0,0.0,0.0,0.0,0.0,0.0,0.0,0.0,0.0,0.0,0.0,0.0,0.0,0.0,0.0,0.0,0.0,0.0,0.0,0.0,0.0,0.0,0.0,0.0,0.0,0.0,0.0,0.0,0.0,0.0,0.0,0.0,0.0,0.0,0.0,0.0,0.0,0.0,0.0,0.0,0.0,0.0,0.0,0.0,0.0,0.0,0.0,0.0,0.0,0.0,0.0,0.0,0.0,0.0,0.0,0.0,0.0,0.0,0.0,0.0,0.0,0.0,0.0,0.0,0.0,0.0,0.0,0.0,0.0,0.0,0.0,0.0,0.0,0.0,0.0,0.0,3.0898,3.1434,3.1365,3.0724,3.0433,2.9905,0.0,0.0,0.0,0.0,0.0,0.0,0.0,0.0,0.0,0.0,0.0,0.0,0.0,0.0,0.0,0.0,0.0,0.0,0.0,0.0,0.0,0.0,0.0,0.0,0.0,0.0,0.0,0.0,0.0,0.0,0.0,0.0,0.0,0.0,0.0,0.0,0.0,0.0,0.0,0.0,0.0,0.0,0.0,0.0,0.0,0.0,0.0,0.0,0.0,0.0,0.0,0.0,0.0,0.0,0.0,0.0,0.0,0.0,0.0,0.0,0.0,0.0,0.0,0.0,0.0,0.0,0.0,0.0,0.0,0.0,0.0,0.0,0.0,0.0,0.0,0.0,0.0,0.0,0.0,0.0,0.0,0.0,0.0,0.0,0.0,0.0,0.0,0.0,0.0,0.0,0.0,0.0,0.0,0.0,0.0,0.0,0.0,0.0,0.0,0.0,0.0,0.0,0.0,0.0,0.0,0.0,0.0,0.0,3.133,3.2377,3.3149,3.3141,3.2504,3.1686,3.0886,0.0,0.0,0.0,0.0,0.0,0.0,0.0,0.0,0.0,0.0,0.0,0.0,0.0,0.0,0.0,0.0,0.0,0.0,0.0,0.0,0.0,0.0,0.0,0.0,0.0,0.0,0.0,0.0,0.0,0.0,0.0,0.0,0.0,0.0,0.0,0.0,0.0,0.0,0.0,0.0,0.0,0.0,0.0,0.0,0.0,0.0,0.0,0.0,0.0,0.0,0.0,0.0,0.0,0.0,0.0,0.0,0.0,0.0,0.0,0.0,0.0,0.0,0.0,0.0,0.0,0.0,0.0,0.0,0.0,0.0,0.0,0.0,0.0,0.0,0.0,0.0,0.0,0.0,0.0,0.0,0.0,0.0,0.0,0.0,0.0,0.0,0.0,0.0,0.0,0.0,0.0,0.0,0.0,0.0,0.0,0.0,0.0,0.0,0.0,0.0,0.0,0.0,0.0,0.0,0.0,0.0,0.0,0.0,0.0,3.3305,3.3554,3.3332,3.2593,3.2337,3.156,0.0,0.0,0.0,0.0,0.0,0.0,0.0,0.0,0.0,0.0,0.0,0.0,0.0,0.0,0.0,0.0,0.0,0.0,0.0,0.0,0.0,0.0,0.0,0.0,0.0,0.0,0.0,0.0,0.0,0.0,0.0,0.0,0.0,0.0,0.0,0.0,0.0,0.0,0.0,0.0,0.0,0.0,0.0,0.0,0.0,0.0,0.0,0.0,0.0,0.0,0.0,0.0,0.0,0.0,0.0,0.0,0.0,0.0,0.0,0.0,0.0,0.0,0.0,0.0,0.0,0.0,0.0,0.0,0.0,0.0,0.0,0.0,0.0,0.0,0.0,0.0,0.0,0.0,0.0,0.0,0.0,0.0,0.0,0.0,0.0,0.0,0.0,0.0,0.0,0.0,0.0,0.0,0.0,0.0,0.0,0.0,0.0,0.0,0.0,0.0,0.0,0.0,0.0,0.0,0.0,0.0,0.0,0.0,0.0,3.4172,3.3879,3.3503,3.3066,3.2773,3.2002,3.0687,0.0,0.0,0.0,0.0,0.0,0.0,0.0,0.0,0.0,0.0,0.0,0.0,0.0,0.0,0.0,0.0,0.0,0.0,0.0,0.0,0.0,0.0,0.0,0.0,0.0,0.0,0.0,0.0,0.0,0.0,0.0,0.0,0.0,0.0,0.0,0.0,0.0,0.0,0.0,0.0,0.0,0.0,0.0,0.0,0.0,0.0,0.0,0.0,0.0,0.0,0.0,0.0,0.0,0.0,0.0,0.0,0.0,0.0,0.0,0.0,0.0,0.0,0.0,0.0,0.0,0.0,0.0,0.0,0.0,0.0,0.0,0.0,0.0,0.0,0.0,0.0,0.0,0.0,0.0,0.0,0.0,0.0,0.0,0.0,0.0,0.0,0.0,0.0,0.0,0.0,0.0,0.0,0.0,0.0,0.0,0.0,0.0,0.0,0.0,0.0,0.0,0.0,0.0,0.0,0.0,0.0,0.0,0.0,3.5151,3.4351,3.3954,3.3844,3.314,3.2302,0.0,0.0,0.0,0.0,0.0,0.0,0.0,0.0,0.0,0.0,0.0,0.0,0.0,0.0,0.0,0.0,0.0,0.0,0.0,0.0,0.0,0.0,0.0,0.0,0.0,0.0,0.0,0.0,0.0,0.0,0.0,0.0,0.0,0.0,0.0,0.0,0.0,0.0,0.0,0.0,0.0,0.0,0.0,0.0,0.0,0.0,0.0,0.0,0.0,0.0,0.0,0.0,0.0,0.0,0.0,0.0,0.0,0.0,0.0,0.0,0.0,0.0,0.0,0.0,0.0,0.0,0.0,0.0,0.0,0.0,0.0,0.0,0.0,0.0,0.0,0.0,0.0,0.0,0.0,0.0,0.0,0.0,0.0,0.0,0.0,0.0,0.0,0.0,0.0,0.0,0.0,0.0,0.0,0.0,0.0,0.0,0.0,0.0,0.0,0.0,0.0,0.0,0.0,0.0,0.0,0.0,0.0,0.0,0.0,3.6751,3.6053,3.5341,3.4711,3.4491,3.3426,0.0,0.0,0.0,0.0,0.0,0.0,0.0,0.0,0.0,0.0,0.0,0.0,0.0,0.0,0.0,0.0,0.0,0.0,0.0,0.0,0.0,0.0,0.0,0.0,0.0,0.0,0.0,0.0,0.0,0.0,0.0,0.0,0.0,0.0,0.0,0.0,0.0,0.0,0.0,0.0,0.0,0.0,0.0,0.0,0.0,0.0,0.0,0.0,0.0,0.0,0.0,0.0,0.0,0.0,0.0,0.0,0.0,0.0,0.0,0.0,0.0,0.0,0.0,0.0,0.0,0.0,0.0,0.0,0.0,0.0,0.0,0.0,0.0,0.0,0.0,0.0,0.0,0.0,0.0,0.0,0.0,0.0,0.0,0.0,0.0,0.0,0.0,0.0,0.0,0.0,0.0,0.0,0.0,0.0,0.0,0.0,0.0,0.0,0.0,0.0,0.0,0.0,0.0,0.0,0.0,0.0,0.0,0.0,3.703,3.7999,3.8212,3.7764,3.6582,3.5548,3.4204,0.0,0.0,0.0,0.0,0.0,0.0,0.0,0.0,0.0,0.0,0.0,0.0,0.0,0.0,0.0,0.0,0.0,0.0,0.0,0.0,0.0,0.0,0.0,0.0,0.0,0.0,0.0,0.0,0.0,0.0,0.0,0.0,0.0,0.0,0.0,0.0,0.0,0.0,0.0,0.0,0.0,0.0,0.0,0.0,0.0,0.0,0.0,0.0,0.0,0.0,0.0,0.0,0.0,0.0,0.0,0.0,0.0,0.0,0.0,0.0,0.0,0.0,0.0,0.0,0.0,0.0,0.0,0.0,0.0,0.0,0.0,0.0,0.0,0.0,0.0,0.0,0.0,0.0,0.0,0.0,0.0,0.0,0.0,0.0,0.0,0.0,0.0,0.0,0.0,0.0,0.0,0.0,0.0,0.0,0.0,0.0,0.0,0.0,0.0,0.0,0.0,0.0,0.0,0.0,0.0,0.0,0.0,0.0,3.8872,3.9203,4.0435,4.0443,3.9085,3.6699,3.4864,0.0,0.0,0.0,0.0,0.0,0.0,0.0,0.0,0.0,0.0,0.0,0.0,0.0,0.0,0.0,0.0,0.0,0.0,0.0,0.0,0.0,0.0,0.0,0.0,0.0,0.0,0.0,0.0,0.0,0.0,0.0,0.0,0.0,0.0,0.0,0.0,0.0,0.0,0.0,0.0,0.0,0.0,0.0,0.0,0.0,0.0,0.0,0.0,0.0,0.0,0.0,0.0,0.0,0.0,0.0,0.0,0.0,0.0,0.0,0.0,0.0,0.0,0.0,0.0,0.0,0.0,0.0,0.0,0.0,0.0,0.0,0.0,0.0,0.0,0.0,0.0,0.0,0.0,0.0,0.0,0.0,0.0,0.0,0.0,0.0,0.0,0.0,0.0,0.0,0.0,0.0,0.0,0.0,0.0,0.0,0.0,0.0,0.0,0.0,0.0,0.0,0.0,0.0,0.0,0.0,0.0,0.0,0.0,3.9937,4.2368,4.1589,4.125,4.1507,3.9203,3.6626,0.0,0.0,0.0,0.0,0.0,0.0,0.0,0.0,0.0,0.0,0.0,0.0,0.0,0.0,0.0,0.0,0.0,0.0,0.0,0.0,0.0,0.0,0.0,0.0,0.0,0.0,0.0,0.0,0.0,0.0,0.0,0.0,0.0,0.0,0.0,0.0,0.0,0.0,0.0,0.0,0.0,0.0,0.0,0.0,0.0,0.0,0.0,0.0,2.6614,0.0,0.0,0.0,0.0,0.0,0.0,0.0,0.0,0.0,0.0,0.0,0.0,0.0,0.0,0.0,0.0,0.0,0.0,0.0,0.0,0.0,0.0,0.0,0.0,0.0,0.0,0.0,0.0,0.0,0.0,0.0,0.0,0.0,0.0,0.0,0.0,0.0,0.0,0.0,0.0,0.0,0.0,0.0,0.0,0.0,0.0,0.0,0.0,0.0,0.0,0.0,0.0,0.0,0.0,0.0,0.0,0.0,0.0,0.0,4.1413,4.3396,4.3424,4.3204,4.2837,4.1625,3.9056,0.0,0.0,0.0,0.0,0.0,0.0,0.0,0.0,0.0,0.0,0.0,0.0,0.0,0.0,0.0,0.0,0.0,0.0,0.0,0.0,0.0,0.0,0.0,0.0,0.0,0.0,0.0,0.0,0.0,0.0,0.0,0.0,0.0,0.0,0.0,0.0,0.0,0.0,0.0,0.0,0.0,0.0,0.0,0.0,0.0,0.0,0.0,0.0,0.0,0.0,0.0,0.0,0.0,0.0,0.0,0.0,0.0,0.0,0.0,0.0,0.0,0.0,0.0,0.0,0.0,0.0,0.0,0.0,0.0,0.0,0.0,0.0,0.0,0.0,0.0,0.0,0.0,0.0,0.0,0.0,0.0,0.0,0.0,0.0,0.0,0.0,0.0,0.0,0.0,0.0,0.0,0.0,0.0,0.0,0.0,0.0,0.0,0.0,0.0,0.0,0.0,0.0,0.0,0.0,0.0,0.0,0.0,4.1258,4.2983,4.4057,4.5259,4.5232,4.391,4.3616,4.1303,3.6677,0.0,0.0,0.0,0.0,0.0,0.0,0.0,0.0,0.0,0.0,0.0,0.0,0.0,0.0,0.0,0.0,0.0,0.0,0.0,0.0,0.0,0.0,0.0,0.0,0.0,0.0,0.0,0.0,0.0,0.0,0.0,0.0,0.0,0.0,0.0,0.0,0.0,0.0,2.7232,2.8734,0.0,0.0,0.0,0.0,0.0,0.0,0.0,0.0,2.9582,0.0,0.0,0.0,0.0,0.0,0.0,0.0,0.0,0.0,0.0,0.0,0.0,0.0,0.0,0.0,0.0,0.0,0.0,0.0,0.0,0.0,0.0,0.0,0.0,0.0,0.0,0.0,0.0,0.0,0.0,0.0,0.0,0.0,0.0,0.0,0.0,0.0,0.0,0.0,0.0,0.0,0.0,0.0,0.0,0.0,0.0,0.0,0.0,0.0,0.0,0.0,0.0,0.0,0.0,0.0,0.0,3.9724,4.2074,4.435,4.6415,4.6094,4.5773,4.5489,4.4204,4.1568,3.7529,0.0,0.0,0.0,0.0,0.0,0.0,0.0,0.0,0.0,0.0,0.0,0.0,0.0,0.0,0.0,0.0,0.0,0.0,0.0,0.0,0.0,0.0,0.0,0.0,0.0,0.0,0.0,0.0,0.0,0.0,0.0,0.0,0.0,0.0,0.0,0.0,0.0,0.0,0.0,3.0803,3.1961,0.0,0.0,0.0,0.0,0.0,0.0,0.0,0.0,3.066,0.0,0.0,0.0,0.0,0.0,0.0,0.0,0.0,0.0,0.0,0.0,0.0,0.0,0.0,0.0,0.0,0.0,0.0,0.0,0.0,0.0,0.0,0.0,0.0,0.0,0.0,0.0,0.0,0.0,0.0,0.0,0.0,0.0,0.0,0.0,0.0,0.0,0.0,0.0,0.0,0.0,0.0,0.0,0.0,0.0,0.0,0.0,0.0,0.0,0.0,0.0,0.0,0.0,0.0,0.0,4.1156,4.3929,4.6131,4.7672,4.7792,4.7388,4.6535,4.501,4.2508,0.0,0.0,0.0,0.0,0.0,0.0,0.0,0.0,0.0,0.0,0.0,0.0,0.0,0.0,0.0,0.0,0.0,0.0,0.0,0.0,0.0,0.0,0.0,0.0,0.0,0.0,0.0,0.0,0.0,0.0,0.0,0.0,0.0,0.0,0.0,0.0,0.0,0.0,0.0,0.0,3.281,3.3609,3.5199,0.0,0.0,0.0,0.0,0.0,0.0,3.333,3.2624,0.0,0.0,0.0,0.0,0.0,0.0,0.0,0.0,0.0,0.0,0.0,0.0,0.0,0.0,0.0,0.0,0.0,0.0,0.0,0.0,0.0,0.0,0.0,0.0,0.0,0.0,0.0,0.0,0.0,0.0,0.0,0.0,0.0,0.0,0.0,0.0,0.0,0.0,0.0,0.0,0.0,0.0,0.0,0.0,0.0,0.0,0.0,0.0,0.0,0.0,0.0,0.0,0.0,0.0,0.0,4.2323,4.5617,4.7736,4.8526,4.9417,4.9123,4.7636,4.5965,4.3552,0.0,0.0,0.0,0.0,0.0,0.0,0.0,0.0,0.0,0.0,0.0,0.0,0.0,0.0,0.0,0.0,0.0,0.0,0.0,0.0,0.0,0.0,0.0,0.0,0.0,0.0,0.0,0.0,0.0,0.0,0.0,0.0,0.0,0.0,0.0,0.0,0.0,0.0,0.0,0.0,0.0,3.5163,3.7064,3.7111,0.0,0.0,0.0,0.0,3.608,3.5113,0.0,0.0,0.0,0.0,0.0,0.0,0.0,0.0,0.0,0.0,0.0,0.0,0.0,0.0,0.0,0.0,0.0,0.0,0.0,0.0,0.0,0.0,0.0,0.0,0.0,0.0,0.0,0.0,0.0,0.0,0.0,0.0,0.0,0.0,0.0,0.0,0.0,0.0,0.0,0.0,0.0,0.0,0.0,0.0,0.0,0.0,0.0,0.0,0.0,0.0,0.0,0.0,0.0,0.0,0.0,0.0,4.2359,4.6177,4.8563,4.9334,5.0215,5.0225,4.9317,4.7123,4.4407,0.0,0.0,0.0,0.0,0.0,0.0,0.0,0.0,0.0,0.0,0.0,0.0,0.0,0.0,0.0,0.0,0.0,0.0,0.0,0.0,0.0,0.0,0.0,0.0,0.0,0.0,0.0,0.0,0.0,0.0,0.0,0.0,0.0,0.0,0.0,0.0,0.0,0.0,0.0,0.0,0.0,3.6488,3.9521,3.8674,3.8265,0.0,0.0,3.7714,3.764,3.634,0.0,0.0,0.0,0.0,0.0,0.0,0.0,0.0,0.0,0.0,0.0,0.0,0.0,0.0,0.0,0.0,0.0,0.0,0.0,0.0,0.0,0.0,0.0,0.0,0.0,0.0,0.0,0.0,0.0,0.0,0.0,0.0,0.0,0.0,0.0,0.0,0.0,0.0,0.0,0.0,0.0,0.0,0.0,0.0,0.0,0.0,0.0,0.0,0.0,0.0,0.0,0.0,0.0,0.0,0.0,4.2066,4.3754,4.7682,5.0002,5.0499,5.1359,5.1147,4.9899,4.8167,4.5852,0.0,0.0,0.0,0.0,0.0,0.0,0.0,0.0,0.0,0.0,0.0,0.0,0.0,0.0,0.0,0.0,0.0,0.0,0.0,0.0,0.0,0.0,0.0,0.0,0.0,0.0,0.0,0.0,0.0,0.0,0.0,0.0,0.0,0.0,0.0,0.0,0.0,0.0,0.0,0.0,0.0,0.0,4.0525,4.0326,0.0,0.0,0.0,3.9754,3.9272,0.0,0.0,0.0,0.0,0.0,0.0,0.0,0.0,0.0,0.0,0.0,0.0,0.0,0.0,0.0,0.0,0.0,0.0,0.0,0.0,0.0,0.0,0.0,0.0,0.0,0.0,0.0,0.0,0.0,0.0,0.0,0.0,0.0,0.0,0.0,0.0,0.0,0.0,0.0,0.0,0.0,0.0,0.0,0.0,0.0,0.0,0.0,0.0,0.0,0.0,0.0,0.0,0.0,0.0,0.0,0.0,0.0,4.503,4.881,5.1035,5.1491,5.2241,5.1991,5.0611,4.9309,0.0,0.0,0.0,0.0,0.0,0.0,0.0,0.0,0.0,0.0,0.0,0.0,0.0,0.0,0.0,0.0,0.0,0.0,0.0,0.0,0.0,0.0,0.0,0.0,0.0,0.0,0.0,2.7279,0.0,0.0,0.0,0.0,0.0,0.0,0.0,0.0,0.0,0.0,0.0,0.0,0.0,0.0,4.008,4.1604,4.2142,4.2604,0.0,0.0,4.2146,4.151,4.037,3.9371,0.0,0.0,0.0,0.0,0.0,0.0,0.0,0.0,0.0,0.0,0.0,0.0,0.0,0.0,0.0,0.0,0.0,0.0,0.0,0.0,0.0,0.0,0.0,0.0,0.0,0.0,0.0,0.0,0.0,0.0,0.0,0.0,0.0,0.0,0.0,0.0,0.0,0.0,0.0,0.0,0.0,0.0,0.0,0.0,0.0,0.0,0.0,0.0,0.0,0.0,0.0,0.0,0.0,0.0,4.3461,4.5847,4.9114,5.1199,5.1965,5.2752,5.2752,5.1891,5.0685,4.9168,0.0,0.0,0.0,0.0,0.0,0.0,0.0,0.0,0.0,0.0,0.0,0.0,0.0,0.0,0.0,0.0,0.0,0.0,0.0,0.0,0.0,0.0,0.0,0.0,0.0,0.0,0.0,0.0,0.0,0.0,0.0,0.0,0.0,0.0,0.0,0.0,0.0,0.0,0.0,0.0,0.0,4.172,4.3381,4.4304,4.5034,0.0,4.5293,4.4747,4.4665,4.2672,4.116,4.1163,0.0,0.0,0.0,0.0,0.0,0.0,0.0,0.0,0.0,0.0,0.0,0.0,0.0,0.0,0.0,0.0,0.0,0.0,0.0,0.0,0.0,0.0,0.0,0.0,0.0,0.0,0.0,0.0,0.0,0.0,0.0,0.0,0.0,0.0,0.0,0.0,0.0,0.0,0.0,0.0,0.0,0.0,0.0,0.0,0.0,0.0,0.0,0.0,0.0,0.0,0.0,0.0,0.0,4.5716,4.7361,5.0564,5.2484,5.3016,5.3571,5.3627,5.307,5.2261,5.0732,0.0,0.0,0.0,0.0,0.0,0.0,0.0,0.0,0.0,0.0,0.0,0.0,0.0,0.0,0.0,0.0,0.0,0.0,0.0,0.0,0.0,0.0,0.0,0.0,0.0,0.0,0.0,0.0,3.3655,3.4148,3.4127,0.0,0.0,0.0,0.0,0.0,0.0,0.0,0.0,0.0,0.0,4.3988,4.5606,4.6166,0.0,0.0,4.7675,4.6984,4.6496,4.517,4.4036,4.3562,4.1506,0.0,0.0,0.0,0.0,0.0,0.0,0.0,0.0,0.0,0.0,0.0,0.0,0.0,0.0,0.0,0.0,0.0,0.0,0.0,0.0,0.0,0.0,0.0,0.0,0.0,0.0,0.0,0.0,0.0,0.0,0.0,0.0,0.0,0.0,0.0,0.0,0.0,0.0,0.0,0.0,0.0,0.0,0.0,0.0,0.0,0.0,0.0,0.0,0.0,0.0,0.0,0.0,4.7549,4.91,5.176,5.3377,5.3896,5.4437,5.4558,5.4286,5.359,5.2364,0.0,0.0,0.0,0.0,0.0,0.0,0.0,0.0,0.0,0.0,0.0,0.0,0.0,0.0,0.0,0.0,0.0,0.0,0.0,0.0,0.0,0.0,0.0,0.0,0.0,0.0,0.0,0.0,3.5487,3.5738,3.5745,0.0,0.0,0.0,0.0,0.0,0.0,0.0,0.0,0.0,0.0,4.6278,4.7645,4.8133,4.8769,4.9863,4.9578,4.899,4.8438,4.7619,4.682,4.601,0.0,0.0,0.0,0.0,0.0,0.0,0.0,0.0,0.0,0.0,0.0,0.0,0.0,0.0,0.0,0.0,0.0,0.0,0.0,0.0,0.0,0.0,0.0,0.0,0.0,0.0,0.0,3.8139,0.0,0.0,3.5876,0.0,0.0,0.0,0.0,0.0,0.0,0.0,0.0,0.0,0.0,0.0,0.0,0.0,0.0,0.0,0.0,0.0,0.0,0.0,0.0,0.0,0.0,4.8597,5.1025,5.2538,5.3655,5.4442,5.5177,5.5603,5.5555,5.4633,5.4011,5.3684,0.0,0.0,0.0,0.0,0.0,0.0,0.0,0.0,0.0,0.0,0.0,0.0,0.0,0.0,0.0,0.0,0.0,0.0,0.0,0.0,0.0,0.0,0.0,0.0,0.0,0.0,3.5138,3.653,3.7492,0.0,0.0,0.0,0.0,0.0,0.0,0.0,0.0,0.0,4.548,4.7195,4.8563,4.9454,5.0261,5.0765,5.0839,5.0802,5.0765,5.0765,5.0078,4.9272,0.0,0.0,0.0,0.0,0.0,0.0,0.0,0.0,0.0,0.0,0.0,0.0,0.0,0.0,0.0,0.0,0.0,0.0,0.0,0.0,0.0,0.0,0.0,0.0,0.0,0.0,0.0,4.1706,4.1028,0.0,0.0,0.0,0.0,0.0,0.0,0.0,0.0,0.0,0.0,0.0,4.8517,4.8582,0.0,0.0,0.0,0.0,0.0,0.0,0.0,0.0,0.0,0.0,0.0,0.0,5.1821,5.2977,5.4909,5.6323,5.7138,5.69,5.6862,5.7164,5.5855,5.4135,5.2028,0.0,0.0,0.0,0.0,0.0,0.0,0.0,0.0,0.0,0.0,0.0,0.0,0.0,0.0,0.0,0.0,0.0,0.0,0.0,0.0,0.0,0.0,0.0,0.0,0.0,3.7434,0.0,0.0,0.0,0.0,0.0,0.0,0.0,0.0,0.0,0.0,0.0,4.6801,4.8169,4.9738,5.1242,5.2601,5.3041,5.3371,0.0,0.0,0.0,0.0,0.0,0.0,0.0,0.0,0.0,0.0,0.0,0.0,0.0,0.0,4.3627,4.1808,4.0637,3.9991,4.0301,0.0,0.0,0.0,0.0,0.0,0.0,0.0,0.0,0.0,0.0,0.0,0.0,0.0,0.0,4.5501,4.5066,4.5439,0.0,0.0,0.0,0.0,0.0,0.0,0.0,0.0,5.0862,5.1744,5.2137,5.2171,5.213,0.0,5.1606,4.9856,0.0,0.0,0.0,0.0,0.0,0.0,0.0,0.0,5.4116,5.4764,5.6584,5.7817,5.8349,5.8395,5.85,5.8791,5.7511,5.5552,5.2858,5.2056,5.0414,0.0,0.0,0.0,0.0,0.0,0.0,0.0,0.0,0.0,0.0,0.0,0.0,0.0,0.0,0.0,0.0,0.0,0.0,0.0,0.0,0.0,0.0,0.0,4.1111,0.0,0.0,0.0,0.0,0.0,0.0,0.0,0.0,0.0,4.5397,4.7498,4.9591,5.0692,5.1987,5.3408,5.5023,0.0,0.0,0.0,0.0,0.0,0.0,0.0,5.3775,5.2978,5.172,5.0675,5.0174,4.969,4.9186,4.867,0.0,0.0,4.511,4.3865,4.3246,4.3553,4.322,4.3058,4.3585,4.3912,4.4321,0.0,0.0,0.0,0.0,5.0222,0.0,0.0,0.0,5.026,5.026,0.0,5.019,0.0,0.0,0.0,0.0,4.936,5.1787,0.0,0.0,5.5479,5.6567,5.6315,5.6511,5.6492,5.6185,5.5591,5.485,5.3974,5.1956,0.0,0.0,0.0,0.0,0.0,0.0,5.5491,5.6333,5.7559,5.8139,5.8297,5.9745,6.0493,6.0394,5.9593,5.8145,5.6172,5.503,5.3815,5.2225,4.9279,0.0,0.0,0.0,0.0,0.0,0.0,0.0,0.0,0.0,0.0,0.0,0.0,0.0,0.0,0.0,0.0,0.0,0.0,0.0,0.0,4.3407,0.0,0.0,0.0,0.0,0.0,0.0,0.0,0.0,0.0,0.0,4.8945,5.0038,5.1552,5.3093,0.0,0.0,0.0,0.0,5.6957,5.6994,5.6957,5.6712,5.5952,5.5768,5.5475,5.4693,0.0,0.0,5.1242,5.0949,5.0986,5.0912,5.0345,4.9034,4.6918,4.6507,4.6242,4.5593,4.5659,4.5605,4.5658,4.6496,4.7127,5.6312,0.0,0.0,0.0,0.0,5.39,5.3894,5.3938,5.4473,5.4415,5.3836,5.4381,0.0,0.0,0.0,0.0,0.0,0.0,5.6434,5.6549,5.8428,5.9564,6.0027,6.0084,6.0414,6.0905,5.9885,5.9526,5.979,5.8678,5.6878,5.4528,0.0,0.0,0.0,0.0,5.8519,5.8942,5.9993,6.1144,6.2348,6.2813,6.2438,6.1263,6.0457,5.8951,5.668,5.5744,5.4583,5.3027,5.1563,0.0,0.0,0.0,0.0,0.0,0.0,0.0,0.0,0.0,0.0,0.0,0.0,0.0,0.0,0.0,0.0,0.0,0.0,0.0,4.6047,4.6712,4.7139,0.0,0.0,0.0,0.0,0.0,0.0,0.0,0.0,0.0,5.4795,5.4855,5.4964,0.0,0.0,5.8077,5.9066,5.9809,6.0236,6.0199,6.0236,0.0,5.9917,5.8914,5.8095,5.7838,5.6664,5.5427,5.441,5.4226,5.4032,5.3482,5.3188,5.2621,5.145,5.0289,4.9795,5.012,5.0712,5.1129,5.1241,5.1445,5.1612,6.1172,5.9262,5.7925,5.716,5.6925,5.7237,5.7199,5.6925,5.7734,5.7796,5.7336,5.7832,5.7468,5.6511,5.7014,0.0,0.0,0.0,5.9568,5.995,6.1294,6.2326,6.3083,6.3121,6.3388,6.3832,6.3138,6.2811,6.2766,6.2589,6.1283,5.8962,0.0,5.9253,5.9525,6.0097,6.051,6.0821,6.1653,6.2724,6.4075,6.4402,6.409,6.3099,6.2106,6.0787,5.9039,5.7847,5.671,5.549,5.3865,5.2036,0.0,0.0,0.0,0.0,0.0,0.0,0.0,0.0,0.0,0.0,0.0,3.8261,3.9698,0.0,0.0,0.0,4.6966,4.8766,5.0352,5.0446,0.0,0.0,0.0,0.0,0.0,0.0,0.0,5.4635,5.54,5.6285,5.774,5.8067,5.8068,5.7838,5.8726,5.9688,6.0467,0.0,6.1458,6.1508,6.152,6.1422,6.1141,6.0309,5.9563,5.9269,5.8425,5.7508,5.6723,5.6282,5.5904,5.5464,5.5097,5.473,5.4252,5.3855,5.323,5.2411,5.2407,5.2641,5.2986,5.3368,5.376,6.5605,6.5337,6.2288,6.0485,5.9713,6.0446,6.0332,5.9675,6.0453,6.0797,6.0797,6.0797,6.0797,6.0797,6.0721,0.0,6.0835,6.1631,6.2433,6.3228,6.4076,6.4924,6.5681,6.5719,6.5719,6.5834,6.5719,6.5089,6.4063,6.459,6.4567,6.4016,6.3305,6.2609,6.1953,6.1834,6.1949,6.2348,6.2866,6.3517,6.436,6.5118,6.5448,6.5375,6.4253,6.3277,6.2432,6.0899,5.9648,5.8815,5.624,5.4395,5.3429,0.0,0.0,0.0,0.0,0.0,0.0,0.0,0.0,0.0,0.0,0.0,0.0,0.0,0.0,4.8249,5.0517,0.0,5.4109,5.4182,0.0,0.0,0.0,5.5396,5.5433,5.5946,5.6334,5.6443,0.0,0.0,5.8782,6.0122,6.0926,6.0484,6.034,6.0535,6.135,6.1631,6.1633,6.1931,6.1834,6.1591,6.1398,6.0995,6.0493,5.971,5.938,5.9086,5.8327,5.7666,5.7152,5.7141,5.6492,5.6025,5.6025,5.7053,5.6991,5.3487,5.2485,5.2296,5.3256,5.4001,5.4701,6.7293,6.7247,6.6453,6.5268,6.3923,6.4114,6.4076,6.3923,6.4114,6.4191,6.4191,6.4229,6.4191,6.4191,6.3587,6.3625,6.4267,6.5108,6.5597,6.5826,6.6636,6.7477,6.8279,6.8317,6.8623,6.915,6.8585,6.8163,6.7815,6.7341,6.7046,6.689,6.636,6.5651,6.4755,6.4678,6.4811,6.5048,6.5442,6.6005,6.6809,6.704,6.6819,6.6219,6.5919,6.5113,6.3739,6.2647,6.1432,6.0045,5.8752,5.7118,5.4998,5.4181,0.0,0.0,0.0,0.0,0.0,0.0,0.0,0.0,0.0,4.5972,4.7664,0.0,5.0493,0.0,5.3466,5.4797,5.6419,5.5958,0.0,0.0,5.6732,5.695,5.7566,5.7251,5.742,5.8639,5.9628,6.0701,6.1897,6.2911,6.3736,6.4154,6.3271,6.288,6.368,6.443,6.4863,6.4817,6.4758,6.4844,6.4483,6.3698,6.2533,6.1239,6.1043,6.075,5.9942,5.9685,5.9538,5.9526,5.9428,5.9281,5.9171,5.9123,5.8657,5.7762,5.7859,5.8247,5.8584,5.8271,5.8106,6.9005,6.9005,6.9005,6.847,6.7584,6.6827,6.6292,6.5987,6.6369,6.6522,6.6529,6.6522,6.6522,6.6483,6.6071,6.6109,6.6567,6.74,6.7821,6.7859,6.8661,6.9273,6.9731,6.9731,6.9952,7.0372,6.996,6.9649,6.9412,6.8787,6.8309,6.8118,6.7669,6.725,6.6887,6.6175,6.6051,6.6541,6.6863,6.7235,6.7691,6.77,6.748,6.7063,6.6696,6.6189,6.5447,6.4424,6.3419,6.236,6.0957,5.937,5.7639,5.6801,5.5781,0.0,0.0,0.0,0.0,0.0,0.0,0.0,0.0,0.0,0.0,0.0,5.3758,5.568,5.6525,5.7382,5.8292,5.7915,5.7913,5.8709,5.8818,5.9108,5.9928,5.9941,6.0194,6.11,6.1897,6.273,6.3649,6.4106,6.47,6.5482,6.4901,6.44,6.4486,6.4992,6.5316,6.5372,6.5386,6.54,6.5469,6.4838,6.408,6.3328,6.3171,6.2989,6.2181,6.1692,6.1374,6.1006,6.0639,6.0407,6.037,6.0382,6.0272,6.037,6.0921,6.1019,6.016,5.9679,5.9502,7.0334,7.0258,7.0266,7.0258,7.0151,6.8699,6.7706,6.7201,6.7897,6.8211,6.8203,6.8211,6.8211,6.8211,6.8203,6.8203,6.8279,6.9005,6.9425,6.9548,7.0258,7.064,7.0724,7.0754,7.0716,7.0716,7.0754,7.0527,7.0194,6.9796,6.9369,6.8989,6.8519,6.8493,6.8797,6.7339,6.6785,6.7354,6.7572,6.77,6.77,6.77,6.77,6.7664,6.7013,6.6806,6.7111,6.6106,6.5345,6.4828,6.2916,6.1468,6.0651,5.8993,5.8032,0.0,5.7037,0.0,0.0,0.0,0.0,0.0,0.0,0.0,0.0,5.51,5.6536,5.8673,5.9506,6.0,6.0194,6.0109,6.0375,6.1172,6.1267,6.1557,6.2245,6.2947,6.3359,6.3359,6.4033,6.4555,6.4541,6.4627,6.5011,6.5663,6.5736,6.5497,6.4903,6.4845,6.4938,6.4855,6.4905,6.5165,6.5086,6.5104,6.5051,6.5005,6.4977,6.5031,6.4248,6.3563,6.2903,6.2254,6.1704,6.1153,6.0933,6.1484,6.1863,6.1741,6.2205,6.2059,6.0419,5.9841,5.9923,7.0037,6.9425,6.9425,6.9425,6.9387,6.9082,6.9234,6.9685,6.9876,6.9914,6.9914,6.996,6.9952,6.9914,6.9914,6.9952,6.9914,7.0105,7.0572,7.1229,7.1382,7.1841,7.2482,7.2482,7.252,7.2482,7.252,7.2487,7.238,7.2319,7.2209,7.2128,7.1668,7.1446,7.1419,0.0,0.0,0.0,6.7843,6.77,6.77,6.77,6.77,6.77,6.7469,0.0,6.7403,6.704,6.6496,6.5773,6.4715,0.0,0.0,0.0,0.0,0.0,0.0,0.0,0.0,0.0,0.0,0.0,5.7793,5.7467,5.6706,5.8469,6.0145,6.1195,6.1448,6.21,6.3345,6.2925,6.2838,6.3599,6.3708,6.378,6.3925,6.4106,6.4178,6.4178,6.4867,6.5374,6.541,6.5917,6.6388,6.6496,6.6569,6.6482,6.6351,6.6243,6.633,6.6381,6.625,6.6149,6.5674,6.5719,6.5597,6.5077,6.5094,6.5199,6.4914,6.4869,6.4811,6.4517,6.4481,6.4053,6.3515,6.3552,6.3356,6.2732,6.2719,6.2683,6.2205,6.1606,6.1238,7.145,7.1068,7.1068,7.1077,0.0,7.1068,7.1298,7.1642,7.0754,7.0411,7.0449,7.0839,7.103,7.1068,7.1489,7.168,7.168,7.168,7.1909,7.2338,7.2338,7.2567,7.2979,7.2979,7.2979,7.2979,7.2979,7.2979,7.2962,7.2481,7.2251,7.2241,7.1554,7.1186,7.115,7.0695,7.004,6.9252,6.9011,6.8692,6.8311,6.8274,6.8064,6.7629,6.7524,0.0,0.0,0.0,0.0,0.0,0.0,0.0,0.0,0.0,0.0,6.1946,6.1208,6.0919,6.1281,6.0642,6.0353,6.0738,6.115,6.1027,6.0208,6.1281,6.2331,6.3128,6.3164,6.349,6.4287,6.4011,6.412,6.4867,6.4975,6.512,6.5518,6.5591,6.5591,6.5591,6.5953,6.617,6.6207,6.6533,6.6786,6.6822,6.6822,6.6822,6.6822,6.6822,6.6822,6.6822,6.6822,6.6656,6.6381,6.6401,6.6391,6.5996,6.6144,6.6133,6.569,6.5747,6.5778,6.5435,6.5325,6.5141,6.4824,6.4714,6.4567,6.4114,6.3723,6.3466,6.338,6.2768,6.2181,7.2911,7.275,7.2796,7.275,7.275,7.2758,7.2864,7.2911,7.1489,0.0,0.0,7.1612,7.1956,7.1994,7.2673,7.2979,7.2979,7.2979,7.3093,7.3208,7.3208,7.3284,7.3446,7.3446,7.3446,7.3437,7.3339,7.3304,7.3278,7.2356,7.1944,7.1876,7.1166,7.0739,7.068,7.0541,7.0485,7.0485,7.0215,6.9724,6.9073,6.9022,6.8651,6.7917,6.7853,6.7769,6.7605,6.7431,6.7417,6.749,6.5921,6.5065,6.5137,6.356,6.2947,6.3577,6.3504,6.3708,6.4337,6.3794,6.3468,6.3613,6.3649,6.3577,6.3432,6.354,6.3903,6.4541,6.4722,6.4794,6.4794,6.483,6.5084,6.5736,6.5808,6.6098,6.6677,6.6822,6.6714,6.6822,6.675,6.6822,6.6786,6.6786,6.6822,6.6822,6.6822,6.6822,6.6822,6.6967,6.7097,6.7112,6.7293,6.7293,6.725,6.7208,6.7208,6.7135,6.7269,6.7172,6.6637,6.6563,6.6399,6.5962,6.5742,6.5705,6.5558,6.5521,6.5435,6.5325,6.4787,6.431,6.4237,6.3649,6.2976,7.2567,7.1879,7.1879,7.1879,7.1917,7.1879,7.2299,7.2979,7.275,7.2635,7.2635,7.275,7.2826,7.2826,7.2949,7.2979,7.2979,7.2979,7.3361,7.4002,7.4002,7.4431,7.5127,7.5165,7.5127,7.5101,7.4676,7.4454,7.4404,7.3904,7.3634,7.3622,7.3494,7.3218,7.2846,7.2271,7.1977,7.1977,7.0659,6.9783,6.9515,6.9478,6.9427,6.9304,6.9172,6.9135,6.9069,6.8282,6.8186,6.8817,6.7374,6.6815,6.7431,6.5968,6.5156,6.5229,6.4627,6.4301,6.4396,6.4301,6.4541,6.5192,6.5265,6.4975,6.4337,6.4867,6.5301,6.5446,6.5989,6.646,6.646,6.6424,6.6424,6.6605,6.6641,6.6663,6.6822,6.6822,6.6822,6.6822,6.6822,6.6822,6.6822,6.6822,6.6822,6.6822,6.6822,6.6822,6.6895,6.7387,6.78,6.7945,6.8416,6.8793,6.8663,6.8333,6.7949,6.7881,6.7477,6.7216,6.7047,6.7122,6.7222,6.7307,6.7173,6.699,6.6476,6.6329,6.6109,6.5618,6.5288,6.5154,6.5105,6.4494,6.3686,7.4134,7.379,7.3752,7.3752,7.3752,7.3752,7.3981,7.4363,7.4363,7.3828,7.3064,7.3476,7.3667,7.3705,7.4172,7.4363,7.4363,7.4363,7.4545,7.4889,7.4936,7.5348,7.6083,7.6159,7.6418,7.6773,7.631,7.6069,7.6007,7.5288,7.4872,7.4732,7.4391,7.4099,7.3889,7.3588,7.3398,7.3285,7.1829,7.077,7.0259,7.0259,6.9996,6.9507,6.9433,6.9358,6.9298,6.8896,6.8829,6.9155,6.809,6.7604,6.793,6.688,6.646,6.6858,6.6569,6.6533,6.6982,6.6982,6.7163,6.7525,6.7562,6.7417,6.7054,6.6533,6.6279,6.6279,6.6605,6.6822,6.6822,6.6822,6.6822,6.6822,6.6822,6.6822,6.6822,6.6822,6.6822,6.6822,6.6822,6.6822,6.6822,6.6822,6.6822,6.6822,6.6822,6.6822,6.6895,6.7873,6.8488,6.8162,6.8669,6.9119,6.9207,6.8585,6.8114,6.8017,6.747,6.717,6.7182,6.728,6.7456,6.7647,6.7633,6.751,6.716,6.715,6.6953,6.6733,6.6182,6.5999,6.5852,6.5301,6.4334,7.5509,7.5509,7.5509,7.5509,7.5509,7.5509,7.5509,7.5509,7.5471,7.486,7.401,7.4316,7.4507,7.4584,7.5204,7.5586,7.5739,7.5777,7.5853,7.6044,7.6083,7.6335,7.6749,7.6816,7.7159,7.7675,7.7207,7.7014,7.7003,7.6169,7.5578,7.5314,7.4695,7.4415,7.4415,7.4348,7.4306,7.4122,7.3021,7.2158,7.1539,7.1502,7.115,7.0484,7.0251,7.0096,6.9989,6.9663,6.9554,6.9663,6.8778,6.838,6.8488,6.7764,6.7619,6.8199,6.8271,6.8525,6.9119,6.9192,6.9192,6.9192,6.9192,6.9192,6.9083,6.8069,6.7329,6.7329,6.7402,6.7402,6.7438,6.7402,6.7329,6.7329,6.7329,6.7438,6.7366,6.7366,6.7329,6.7329,6.7366,6.7402,6.7366,6.7329,6.7402,6.7438,6.7329,6.7329,6.7474,6.8612,6.9119,6.914,6.9466,7.0061,6.9952,6.9394,6.8923,6.8597,6.7817,6.7491,6.7425,6.735,6.7308,6.7565,6.7606,6.7606,6.7674,6.7664,6.7627,6.748,6.7113,6.6696,6.6439,6.5999,6.5141,7.5509,7.5509,7.5509,7.5509,7.5548,7.5548,7.5586,7.5548,7.5509,7.5853,7.6188,7.5653,7.5395,7.5395,7.5509,7.5968,7.657,7.657,7.6991,7.764,7.7793,7.7561,7.7207,7.7166,7.7221,7.7272,7.6681,7.665,7.6991,7.618,7.5583,7.5109,7.4641,7.4436,7.4436,7.431,7.4247,7.4179,7.3889,7.37,7.3627,7.3627,7.3591,7.3486,7.2742,7.24,7.2239,7.1024,7.0589,7.1096,6.9901,6.9445,7.0025,6.9445,6.9047,6.9119,6.9119,6.9119,6.9192,6.9192,6.9264,6.9192,6.9264,6.9264,6.9264,6.9083,6.8974,6.8974,6.8974,6.8866,6.8974,6.8902,6.8793,6.8757,6.8793,6.8974,6.8866,6.8974,6.8974,6.8974,6.8793,6.8974,6.8793,6.8757,6.8829,6.8721,6.8685,6.8685,6.8757,6.9518,7.0423,7.0987,7.1784,7.2183,7.2074,7.1675,7.0625,7.0061,6.8866,6.8158,6.8,6.7694,6.7303,6.7661,6.7689,6.7743,6.7674,6.77,6.77,6.77,6.7517,6.7333,6.6733,6.6476,6.5999,7.5509,7.5548,7.6006,7.6494,7.6953,7.6991,7.6991,7.6991,7.6991,7.7182,7.7411,7.7144,7.6991,7.6953,7.6991,7.7182,7.7449,7.7449,7.764,7.7975,7.8022,7.8122,7.8437,7.8298,7.8466,7.886,7.8194,7.7767,7.7589,7.6719,7.6161,7.5959,7.5657,7.5511,7.5495,7.5482,7.5449,7.5449,7.533,7.5334,7.5225,7.4375,7.3905,7.3868,7.3579,7.3398,7.3362,7.2782,7.2617,7.2855,7.2327,7.211,7.2436,7.2146,7.1748,7.1277,7.0806,7.0553,7.0553,7.0568,7.0553,7.0553,7.0553,7.0553,7.0568,7.0553,7.0553,7.046,6.9735,6.9192,6.9228,6.9192,6.9192,6.9192,6.9192,6.9192,6.9192,6.9192,6.9192,6.9192,6.9192,6.9192,6.9192,6.9192,6.9192,6.9192,6.9192,6.9264,6.9264,6.988,7.0677,7.1422,7.2167,7.2637,7.2617,7.1603,7.0879,7.0351,6.9481,6.8802,6.8813,6.8668,6.8371,6.8092,6.8095,6.7973,6.7625,6.7647,6.77,6.77,6.77,6.759,6.7247,6.7223,6.704,7.6197,7.6265,7.68,7.7411,7.7975,7.792,7.7893,7.7893,7.7893,7.8016,7.8255,7.8339,7.8481,7.8634,7.8252,7.8137,7.8366,7.8366,7.8444,7.8598,7.8589,7.8847,7.9175,7.9022,7.9188,7.9516,7.8978,7.8493,7.8086,7.7185,7.6725,7.6676,7.6445,7.6292,7.6292,7.6292,7.6292,7.6292,7.6292,7.6292,7.6147,7.5152,7.4573,7.452,7.4339,7.4231,7.4231,7.4013,7.3905,7.3868,7.3905,7.3905,7.3905,7.3905,7.3651,7.3072,7.2493,7.2183,7.2146,7.2183,7.2183,7.2167,7.2167,7.2183,7.2146,7.2167,7.2183,7.211,7.1132,7.0496,6.988,6.9844,6.9844,6.9808,6.9844,6.9844,6.988,6.9844,6.988,6.9844,6.9989,6.9844,6.9844,6.988,6.9952,6.9952,6.988,6.9844,6.988,7.0423,7.1003,7.1675,7.2183,7.24,7.2529,7.2001,7.106,7.0568,7.0061,6.9585,6.9618,6.9485,6.9255,6.8764,6.8793,6.8769,6.8545,6.8376,6.7921,6.7774,6.7737,6.7737,6.759,6.7664,6.7664,7.7908,7.786,7.7937,7.7995,7.7995,7.7808,7.7683,7.7797,7.7711,7.814,7.8826,7.9114,7.9665,8.0143,7.8741,7.8472,7.9169,7.9236,7.9477,7.9921,7.9987,7.9681,7.9052,7.9003,7.8791,7.8534,7.8275,7.7977,7.7732,7.7273,7.6988,7.6977,7.6654,7.6364,7.6437,7.6473,7.6328,7.6473,7.6473,7.6401,7.6364,7.6275,7.6203,7.613,7.5478,7.5027,7.4991,7.4303,7.3941,7.3941,7.4013,7.3977,7.3941,7.3941,7.3905,7.3832,7.376,7.3724,7.3687,7.3651,7.3651,7.3724,7.3579,7.3724,7.3543,7.3543,7.3543,7.3724,7.3398,7.2782,7.1748,7.1458,7.1422,7.1422,7.1422,7.1422,7.1422,7.1422,7.1422,7.1386,7.135,7.1205,7.1277,7.1386,7.1241,7.1241,7.1313,7.1241,7.1205,7.135,7.1784,7.2183,7.2219,7.1857,7.2545,7.2219,7.1929,7.1458,7.0734,7.0351,7.0107,6.9893,6.9717,6.9559,6.961,6.9638,6.9628,6.9251,6.8577,6.8201,6.7944,6.7884,6.7737,6.77,6.77,7.8007,7.8392,7.8382,7.8659,7.9132,7.906,7.9029,7.9018,7.898,7.9181,7.9457,7.9578,7.9799,8.0027,7.9447,7.9414,7.9847,7.9857,7.9891,7.9961,7.994,7.9614,7.9125,7.8929,7.8624,7.821,7.7926,7.7887,7.8044,7.8041,7.8084,7.8068,7.7935,7.7833,7.7833,7.7833,7.7833,7.7833,7.7833,7.7833,7.7796,7.7833,7.7833,7.776,7.6565,7.5877,7.5877,7.5587,7.5442,7.5442,7.5406,7.5442,7.537,7.4919,7.4665,7.4629,7.4194,7.3905,7.3905,7.3905,7.3905,7.3905,7.3905,7.3941,7.3905,7.3905,7.3905,7.3905,7.3905,7.3687,7.3796,7.3362,7.2999,7.3036,7.3036,7.2999,7.3036,7.3036,7.3036,7.2963,7.2601,7.2094,7.1712,7.1531,7.1494,7.1494,7.1531,7.1567,7.1639,7.1893,7.2436,7.269,7.2891,7.3108,7.3362,7.2472,7.1784,7.1603,7.1205,7.1132,7.0982,7.0925,7.078,7.0239,7.0316,7.0208,7.0062,6.9868,6.9219,6.8752,6.8458,6.8251,6.7774,6.7884,6.7811,7.8546,7.8961,7.8988,7.9291,7.9773,7.9696,7.9712,7.9712,7.9712,7.9712,7.9701,7.9592,7.9636,7.9718,7.9475,7.9475,7.9762,7.995,7.9838,7.9479,7.9456,7.9184,7.8715,7.8482,7.8345,7.8152,7.806,7.8128,7.837,7.8584,7.8719,7.8702,7.8702,7.8702,7.8702,7.8702,7.8702,7.8702,7.8702,7.8702,7.8702,7.8702,7.8702,7.8557,7.7615,7.7072,7.7089,7.6818,7.6674,7.6637,7.6473,7.6292,7.6256,7.5768,7.5498,7.5426,7.5008,7.4665,7.4682,7.4682,7.4682,7.4665,7.4682,7.4682,7.4682,7.4682,7.4682,7.4665,7.4665,7.4935,7.5225,7.5008,7.4573,7.4375,7.4303,7.4158,7.3941,7.3868,7.3832,7.3796,7.3687,7.3144,7.2509,7.2601,7.2565,7.2348,7.2291,7.2275,7.2348,7.2674,7.3088,7.3108,7.3506,7.3687,7.3796,7.3108,7.2782,7.2565,7.2311,7.2183,7.1893,7.1877,7.1691,7.1102,7.0774,7.0599,7.0449,7.0295,6.9947,6.9408,6.9229,6.9082,6.8618,6.8178,6.8104,7.9724,7.9702,7.9773,7.9691,7.9685,7.9543,7.95,7.95,7.9427,7.9442,7.9369,7.9184,7.9206,7.9467,7.8804,7.8588,7.8879,7.9364,7.9317,7.8803,7.8765,7.8413,7.776,7.7827,7.8041,7.8243,7.8557,7.8698,7.8771,7.89,7.8955,7.8847,7.8955,7.9028,7.881,7.8955,7.8847,7.8919,7.8955,7.8883,7.8738,7.8919,7.8955,7.8883,7.8774,7.8702,7.8702,7.7941,7.7507,7.7434,7.6818,7.6364,7.6437,7.6256,7.6256,7.6203,7.6203,7.622,7.6183,7.6094,7.6038,7.6022,7.6183,7.6022,7.5985,7.6022,7.6058,7.6002,7.6058,7.622,7.6239,7.6239,7.5877,7.5244,7.51,7.481,7.4267,7.3977,7.3941,7.4086,7.4448,7.4665,7.4267,7.4122,7.4122,7.3724,7.3579,7.3579,7.3543,7.3724,7.3868,7.3905,7.4194,7.4484,7.4231,7.3905,7.3941,7.3868,7.3615,7.3362,7.2855,7.2674,7.2577,7.2133,7.1812,7.1587,7.1053,7.0902,7.0638,7.0248,7.0099,6.9839,6.9302,6.8825,6.8458,7.9321,7.9321,7.9309,7.9321,7.9309,7.9225,7.9239,7.9165,7.8891,7.8763,7.8699,7.8319,7.8238,7.8292,7.8007,7.7974,7.8044,7.8265,7.8238,7.8095,7.8067,7.7782,7.7417,7.7787,7.8199,7.861,7.9223,7.9535,7.9643,8.0078,8.035,8.035,8.0314,8.035,8.0295,8.0368,8.035,8.0368,8.035,8.035,8.0368,8.0332,8.0332,8.0368,8.0368,8.0368,8.0295,7.9064,7.8376,7.8303,7.8086,7.7724,7.7198,7.6601,7.6328,7.6292,7.6292,7.6292,7.6328,7.6328,7.6364,7.6328,7.6328,7.6292,7.6292,7.6364,7.6364,7.6328,7.6328,7.6509,7.6963,7.7108,7.6746,7.5985,7.5913,7.5841,7.5478,7.5478,7.5297,7.4846,7.4955,7.4738,7.4194,7.4303,7.4412,7.4122,7.4013,7.4013,7.4013,7.4484,7.4701,7.4738,7.5063,7.5334,7.5152,7.5044,7.508,7.4846,7.4556,7.4231,7.376,7.347,7.3374,7.3096,7.2776,7.2362,7.183,7.1499,7.1311,7.1012,7.0791,7.0401,6.9898,6.9545,6.9224,7.9116,7.9116,7.9116,7.9116,7.9091,7.8929,7.8852,7.8788,7.8329,7.8137,7.8053,7.7651,7.7548,7.7592,7.7338,7.746,7.7803,7.7739,7.7777,7.8007,7.7935,7.7631,7.7401,7.8357,7.8898,7.9242,7.9969,8.0368,8.035,8.0821,8.1074,8.1074,8.1074,8.1074,8.1074,8.1074,8.1074,8.1074,8.1074,8.1074,8.1074,8.1074,8.1074,8.1074,8.1074,8.1074,8.1002,8.0078,7.9462,7.9173,7.8883,7.8448,7.7941,7.747,7.7198,7.7181,7.7181,7.7217,7.7198,7.7289,7.7181,7.7198,7.7181,7.7217,7.7181,7.7181,7.7181,7.7181,7.7217,7.7398,7.7796,7.7615,7.7289,7.6818,7.6746,7.6618,7.6401,7.6292,7.6094,7.5679,7.5841,7.5551,7.5044,7.5116,7.5044,7.4935,7.479,7.479,7.4882,7.5208,7.5389,7.557,7.5768,7.5985,7.6183,7.622,7.622,7.5841,7.5442,7.5008,7.452,7.4375,7.4247,7.372,7.3386,7.303,7.2538,7.2382,7.2182,7.185,7.1443,7.1077,7.0674,7.0497,7.0181,7.9104,7.9041,7.9041,7.8979,7.8903,7.8541,7.8356,7.8275,7.7869,7.7651,7.7563,7.7191,7.7227,7.7417,7.6947,7.7202,7.7997,7.786,7.8039,7.8467,7.8482,7.8174,7.8078,7.9132,7.9732,8.0078,8.0676,8.1002,8.0966,8.1038,8.1074,8.1074,8.1074,8.1074,8.1074,8.1074,8.1074,8.1074,8.1074,8.1074,8.1074,8.1074,8.1074,8.1074,8.1074,8.1074,8.1038,8.0893,8.0604,8.0006,7.9281,7.8847,7.8774,7.8738,7.8521,7.8484,7.8666,7.8557,7.8629,7.8448,7.8484,7.8448,7.8448,7.8702,7.8484,7.8376,7.8376,7.8412,7.8448,7.8557,7.8448,7.8086,7.7651,7.7543,7.7289,7.6891,7.6401,7.6292,7.6203,7.6348,7.6855,7.7072,7.613,7.6674,7.6601,7.6311,7.6022,7.5949,7.5985,7.5985,7.622,7.6292,7.6256,7.6256,7.6292,7.6292,7.6292,7.6183,7.5877,7.5623,7.5297,7.5172,7.4919,7.4428,7.4046,7.3656,7.3305,7.3114,7.2772,7.2313,7.1966,7.1698,7.1494,7.1289,7.0973,7.8903,7.8594,7.8594,7.8407,7.8081,7.7926,7.7883,7.7826,7.7383,7.7169,7.7097,7.6684,7.6934,7.7476,7.735,7.77,7.8366,7.8462,7.8448,7.8755,7.9277,7.9384,7.9299,7.968,8.0223,8.0712,8.0966,8.1074,8.1074,8.1074,8.1074,8.1074,8.1074,8.1074,8.1074,8.1074,8.1074,8.1074,8.1074,8.1074,8.1074,8.1074,8.1074,8.1074,8.1074,8.1074,8.1074,8.1074,8.1038,8.0785,8.0042,7.9571,7.9535,7.91,7.8847,7.8847,7.8774,7.8738,7.8774,7.8774,7.8738,7.8702,7.8883,7.8702,7.8702,7.8702,7.8702,7.8702,7.8702,7.8774,7.8702,7.8521,7.8376,7.8231,7.7507,7.671,7.6492,7.6292,7.6292,7.6328,7.6565,7.6509,7.6473,7.6456,7.6565,7.6364,7.6292,7.6292,7.6292,7.6292,7.6292,7.6292,7.6292,7.6292,7.6292,7.6292,7.6292,7.6292,7.6183,7.6147,7.5949,7.5913,7.5498,7.5027,7.4899,7.455,7.4042,7.3696,7.3228,7.2896,7.26,7.2386,7.2195,7.1963,7.1618,7.8329,7.8109,7.8109,7.7954,7.768,7.7488,7.7398,7.7307,7.6925,7.6919,7.7056,7.695,7.727,7.7941,7.8014,7.8448,7.9136,7.9209,7.939,7.9788,8.0187,8.0368,8.0404,8.044,8.0658,8.1038,8.1074,8.1074,8.1074,8.1074,8.1074,8.1074,8.1074,8.1074,8.1074,8.1074,8.1074,8.1074,8.1074,8.1074,8.1074,8.1074,8.1074,8.1074,8.1074,8.1074,8.1074,8.1074,8.1074,8.1002,8.064,8.0386,8.035,7.9969,7.9716,7.9716,7.9716,7.9716,7.9716,7.9716,7.9716,7.9752,7.9716,7.9716,7.9752,7.9716,7.9716,7.9752,7.9716,7.9716,7.9643,7.9409,7.9064,7.8629,7.7869,7.7326,7.7289,7.7053,7.6835,7.6727,7.6509,7.6292,7.6328,7.6328,7.6328,7.6292,7.6292,7.6292,7.6292,7.6292,7.6292,7.6292,7.6292,7.6292,7.6292,7.6292,7.6292,7.6292,7.6292,7.6292,7.6292,7.6292,7.6022,7.5659,7.5623,7.5406,7.4826,7.4336,7.4055,7.3752,7.3368,7.3052,7.2823,7.2497,7.2153,7.7666,7.7622,7.7622,7.7592,7.7458,7.7129,7.694,7.6861,7.6541,7.676,7.7323,7.7487,7.7941,7.881,7.8847,7.9245,7.9988,8.0024,8.0404,8.0712,8.0966,8.0966,8.0929,8.0929,8.1002,8.1074,8.1074,8.1074,8.1074,8.1074,8.1074,8.1074,8.1074,8.1074,8.1074,8.1074,8.1074,8.1074,8.1074,8.1074,8.1074,8.1074,8.1074,8.1074,8.1074,8.1074,8.1074,8.1074,8.1074,8.1074,8.1074,8.1002,8.1038,8.1038,8.1002,8.0929,8.0857,8.0857,8.1002,8.0857,8.0966,8.0893,8.0929,8.1074,8.0893,8.0821,8.0821,8.0785,8.1074,8.0857,8.0802,8.035,7.9843,7.9354,7.9028,7.8955,7.881,7.8159,7.7615,7.7579,7.6963,7.6637,7.6529,7.6473,7.6473,7.669,7.6546,7.6292,7.6292,7.6292,7.6292,7.6292,7.6292,7.6292,7.6292,7.6292,7.6292,7.6292,7.6292,7.6292,7.6292,7.6292,7.6292,7.6183,7.5985,7.5768,7.5442,7.5077,7.4872,7.4555,7.4163,7.3749,7.3365,7.2965,7.26,7.7488,7.7175,7.7138,7.694,7.6603,7.6492,7.6459,7.6459,7.6342,7.6782,7.7362,7.7507,7.834,7.9643,7.968,8.0078,8.0712,8.0748,8.0984,8.1038,8.1074,8.1074,8.1074,8.1074,8.1074,8.1074,8.1074,8.1074,8.1074,8.1074,8.1074,8.1074,8.1074,8.1074,8.1074,8.1074,8.1074,8.1074,8.1074,8.1074,8.1074,8.1074,8.1074,8.1074,8.1074,8.1074,8.1074,8.1074,8.1074,8.1074,8.1074,8.1074,8.1074,8.1074,8.1074,8.1074,8.1074,8.1074,8.1074,8.1074,8.1074,8.1074,8.1074,8.1074,8.1074,8.1074,8.1074,8.1074,8.1074,8.1074,8.1038,8.0984,8.064,8.0423,8.0386,8.0459,8.0332,7.9281,7.8521,7.8412,7.8231,7.8159,7.8086,7.747,7.7289,7.7181,7.6855,7.6437,7.6401,7.6509,7.6473,7.6582,7.6546,7.6601,7.6637,7.6746,7.6927,7.6891,7.6835,7.6582,7.6546,7.6437,7.6509,7.6437,7.6256,7.6022,7.5804,7.5893,7.5673,7.5317,7.4938,7.4509,7.4044,7.3571,7.3076,7.6909,7.6668,7.6668,7.6541,7.6309,7.6292,7.6292,7.6292,7.6292,7.698,7.7905,7.805,7.8955,8.0386,8.0459,8.0712,8.1002,8.1074,8.1074,8.1074,8.1074,8.1074,8.1074,8.1074,8.1074,8.1074,8.1074,8.1074,8.1074,8.1074,8.1074,8.1074,8.1074,8.1074,8.1074,8.1074,8.1074,8.1074,8.1074,8.1074,8.1074,8.1074,8.1074,8.1074,8.1074,8.1074,8.1074,8.1074,8.1074,8.1074,8.1074,8.1074,8.1074,8.1074,8.1074,8.1074,8.1074,8.1074,8.1074,8.1074,8.1074,8.1074,8.1074,8.1074,8.1074,8.1074,8.1074,8.1074,8.1074,8.1074,8.1074,8.1074,8.1074,8.1074,8.1074,8.1074,8.0893,8.0006,7.9245,7.9173,7.8883,7.8702,7.8484,7.8303,7.8159,7.8014,7.7977,7.7579,7.7434,7.7434,7.7036,7.7,7.6963,7.6963,7.7036,7.7289,7.7688,7.776,7.7833,7.7434,7.7108,7.6927,7.6799,7.6582,7.6292,7.6292,7.6147,7.6256,7.6306,7.6003,7.5604,7.5218,7.4716,7.4195,7.3677,7.6292,7.6292,7.6292,7.6292,7.6292,7.6292,7.6292,7.6292,7.6292,7.7161,7.8484,7.8702,7.9462,8.0785,8.1038,8.1074,8.1074,8.1074,8.1074,8.1074,8.1074,8.1074,8.1074,8.1074,8.1074,8.1074,8.1074,8.1074,8.1074,8.1074,8.1074,8.1074,8.1074,8.1074,8.1074,8.1074,8.1074,8.1074,8.1074,8.1074,8.1074,8.1074,8.1074,8.1074,8.1074,8.1074,8.1074,8.1074,8.1074,8.1074,8.1074,8.1074,8.1074,8.1074,8.1074,8.1074,8.1074,8.1074,8.1074,8.1074,8.1074,8.1074,8.1074,8.1074,8.1074,8.1074,8.1074,8.1074,8.1074,8.1074,8.1074,8.1074,8.1074,8.1074,8.1074,8.1074,8.0966,8.0459,8.0133,7.9988,7.9771,7.9607,7.9318,7.91,7.8992,7.8883,7.881,7.8702,7.8557,7.8303,7.7869,7.7688,7.7688,7.7688,7.7724,7.7833,7.8231,7.8376,7.8521,7.8231,7.7796,7.7688,7.7398,7.6582,7.6292,7.6328,7.6328,7.6292,7.6339,7.6399,7.6308,7.5833,7.5311,7.4814,7.4397,7.6292,7.6292,7.6292,7.6292,7.6292,7.6292,7.6292,7.6292,7.6292,7.7234,7.8593,7.8738,7.9571,8.0748,8.1074,8.1074,8.1074,8.1074,8.1074,8.1074,8.1074,8.1074,8.1074,8.1074,8.1074,8.1074,8.1074,8.1074,8.1074,8.1074,8.1074,8.1074,8.1074,8.1074,8.1074,8.1074,8.1074,8.1074,8.1074,8.1074,8.1074,8.1074,8.1074,8.1074,8.1074,8.1074,8.1074,8.1074,8.1074,8.1074,8.1074,8.1074,8.1074,8.1074,8.1074,8.1074,8.1074,8.1074,8.1074,8.1074,8.1074,8.1074,8.1074,8.1074,8.1074,8.1074,8.1074,8.1074,8.1074,8.1074,8.1074,8.1074,8.1074,8.1074,8.1074,8.1074,8.1038,8.0929,8.0785,8.0676,8.0604,8.0495,8.0187,7.9897,7.9788,7.9607,7.9426,7.9318,7.9173,7.8919,7.8593,7.8521,7.8521,7.8484,7.8521,7.8593,7.8774,7.881,7.8883,7.8919,7.8593,7.8521,7.8086,7.7289,7.6654,7.642,7.6384,7.6328,7.6359,7.6422,7.6437,7.6396,7.5953,7.5455,7.5225,7.6292,7.6292,7.6292,7.6292,7.6292,7.6292,7.6292,7.6292,7.6328,7.7181,7.8303,7.8774,7.9571,8.0748,8.1074,8.1074,8.1074,8.1074,8.1074,8.1074,8.1074,8.1074,8.1074,8.1074,8.1074,8.1074,8.1074,8.1074,8.1074,8.1074,8.1074,8.1074,8.1074,8.1074,8.1074,8.1074,8.1074,8.1074,8.1074,8.1074,8.1074,8.1074,8.1074,8.1074,8.1074,8.1074,8.1074,8.1074,8.1074,8.1074,8.1074,8.1074,8.1074,8.1074,8.1074,8.1074,8.1074,8.1074,8.1074,8.1074,8.1074,8.1074,8.1074,8.1074,8.1074,8.1074,8.1074,8.1074,8.1074,8.1074,8.1074,8.1074,8.1074,8.1074,8.1074,8.1074,8.1074,8.1074,8.1074,8.1074,8.0929,8.0821,8.0893,8.0694,8.0549,8.0368,8.0114,7.9933,7.9788,7.9571,7.9318,7.9318,7.9318,7.9173,7.9245,7.9462,7.9426,7.939,7.9462,7.9499,7.9426,7.9354,7.881,7.805,7.747,7.7,7.6384,7.6328,7.6378,7.6445,7.6485,7.645,7.637,7.6147,7.5883,7.6292,7.6292,7.6292,7.6292,7.6292,7.6292,7.6292,7.6292,7.6292,7.7181,7.8557,7.8774,7.9607,8.0748,8.1074,8.1074,8.1074,8.1074,8.1074,8.1074,8.1074,8.1074,8.1074,8.1074,8.1074,8.1074,8.1074,8.1074,8.1074,8.1074,8.1074,8.1074,8.1074,8.1074,8.1074,8.1074,8.1074,8.1074,8.1074,8.1074,8.1074,8.1074,8.1074,8.1074,8.1074,8.1074,8.1074,8.1074,8.1074,8.1074,8.1074,8.1074,8.1074,8.1074,8.1074,8.1074,8.1074,8.1074,8.1074,8.1074,8.1074,8.1074,8.1074,8.1074,8.1074,8.1074,8.1074,8.1074,8.1074,8.1074,8.1074,8.1074,8.1074,8.1074,8.1074,8.1074,8.1074,8.1074,8.1074,8.1074,8.1074,8.1074,8.1074,8.1038,8.0821,8.0821,8.0567,8.0604,8.0459,8.0314,8.0133,8.0133,8.006,7.9861,7.9969,8.035,8.0314,8.0169,8.0295,8.0386,8.0295,8.0151,7.9499,7.8919,7.8593,7.8086,7.7217,7.6348,7.6345,7.6412,7.6531,7.6538,7.6466,7.6491,7.6407,7.6292,7.6292,7.6292,7.6292,7.6292,7.6292,7.6292,7.6292,7.6292,7.7217,7.8702,7.8774,7.9607,8.0785,8.1074,8.1074,8.1074,8.1074,8.1074,8.1074,8.1074,8.1074,8.1074,8.1074,8.1074,8.1074,8.1074,8.1074,8.1074,8.1074,8.1074,8.1074,8.1074,8.1074,8.1074,8.1074,8.1074,8.1074,8.1074,8.1074,8.1074,8.1074,8.1074,8.1074,8.1074,8.1074,8.1074,8.1074,8.1074,8.1074,8.1074,8.1074,8.1074,8.1074,8.1074,8.1074,8.1074,8.1074,8.1074,8.1074,8.1074,8.1074,8.1074,8.1074,8.1074,8.1074,8.1074,8.1074,8.1074,8.1074,8.1074,8.1074,8.1074,8.1074,8.1074,8.1074,8.1074,8.1074,8.1074,8.1074,8.1074,8.1074,8.1074,8.1074,8.1074,8.1074,8.1074,8.1074,8.0966,8.064,8.0241,8.0024,8.0024,7.9897,7.9643,8.0187,8.0531,8.0567,8.0857,8.1002,8.0821,8.0567,8.0423,7.9933,7.9571,7.8883,7.7833,7.7036,7.6546,7.6378,7.6462,7.6564,7.6594,7.6676,7.6784,7.6292,7.6292,7.6292,7.6292,7.6292,7.6292,7.6292,7.6292,7.6328,7.7181,7.8484,7.8702,7.9571,8.0857,8.1074,8.1074,8.1074,8.1074,8.1074,8.1074,8.1074,8.1074,8.1074,8.1074,8.1074,8.1074,8.1074,8.1074,8.1074,8.1074,8.1074,8.1074,8.1074,8.1074,8.1074,8.1074,8.1074,8.1074,8.1074,8.1074,8.1074,8.1074,8.1074,8.1074,8.1074,8.1074,8.1074,8.1074,8.1074,8.1074,8.1074,8.1074,8.1074,8.1074,8.1074,8.1074,8.1074,8.1074,8.1074,8.1074,8.1074,8.1074,8.1074,8.1074,8.1074,8.1074,8.1074,8.1074,8.1074,8.1074,8.1074,8.1074,8.1074,8.1074,8.1074,8.1074,8.1074,8.1074,8.1074,8.1074,8.1074,8.1074,8.1074,8.1074,8.1074,8.1074,8.1074,8.1074,8.0821,8.0459,7.9952,7.9445,7.9571,7.9643,7.9281,7.9318,7.9952,8.0169,8.0821,8.0966,8.1038,8.0929,8.0748,8.0495,8.0078,7.9281,7.834,7.7596,7.6961,7.6668,7.6445,7.6528,7.6627,7.6705,7.6815,7.6292,7.6292,7.6292,7.6292,7.6292,7.6292,7.6292,7.6292,7.6292,7.7181,7.8521,7.9136,8.0042,8.0857,8.1074,8.1074,8.1074,8.1074,8.1074,8.1074,8.1074,8.1074,8.1074,8.1074,8.1074,8.1074,8.1074,8.1074,8.1074,8.1074,8.1074,8.1074,8.1074,8.1074,8.1074,8.1074,8.1074,8.1074,8.1074,8.1074,8.1074,8.1074,8.1074,8.1074,8.1074,8.1074,8.1074,8.1074,8.1074,8.1074,8.1074,8.1074,8.1074,8.1074,8.1074,8.1074,8.1074,8.1074,8.1074,8.1074,8.1074,8.1074,8.1074,8.1074,8.1074,8.1074,8.1074,8.1074,8.1074,8.1074,8.1074,8.1074,8.1074,8.1074,8.1074,8.1074,8.1074,8.1074,8.1074,8.1074,8.1074,8.1074,8.1074,8.1074,8.1074,8.1074,8.1074,8.1074,8.0821,8.0459,8.0024,7.9607,7.9897,7.9933,7.9499,7.9281,7.9626,7.9952,8.0567,8.0929,8.1038,8.1074,8.0966,8.0712,8.0476,7.9933,7.9173,7.8212,7.7304,7.6881,7.6512,7.661,7.6692,7.6769,7.6913,7.6292,7.6292,7.6292,7.6292,7.6292,7.6292,7.6292,7.6292,7.6292,7.7217,7.8774,8.0133,8.0821,8.1074,8.1074,8.1074,8.1074,8.1074,8.1074,8.1074,8.1074,8.1074,8.1074,8.1074,8.1074,8.1074,8.1074,8.1074,8.1074,8.1074,8.1074,8.1074,8.1074,8.1074,8.1074,8.1074,8.1074,8.1074,8.1074,8.1074,8.1074,8.1074,8.1074,8.1074,8.1074,8.1074,8.1074,8.1074,8.1074,8.1074,8.1074,8.1074,8.1074,8.1074,8.1074,8.1074,8.1074,8.1074,8.1074,8.1074,8.1074,8.1074,8.1074,8.1074,8.1074,8.1074,8.1074,8.1074,8.1074,8.1074,8.1074,8.1074,8.1074,8.1074,8.1074,8.1074,8.1074,8.1074,8.1074,8.1074,8.1074,8.1074,8.1074,8.1074,8.1074,8.1074,8.1074,8.1074,8.1002,8.0694,8.0368,8.0151,8.0513,8.0476,7.9952,7.9988,8.0278,8.0386,8.0712,8.0966,8.1074,8.1074,8.1074,8.1038,8.0748,8.0404,7.9933,7.8936,7.7973,7.704,7.663,7.666,7.679,7.6897,7.704,7.6292,7.6292,7.6292,7.6292,7.6292,7.6292,7.6292,7.6292,7.6328,7.7181,7.881,8.0314,8.1074,8.1074,8.1074,8.1074,8.1074,8.1074,8.1074,8.1074,8.1074,8.1074,8.1074,8.1074,8.1074,8.1074,8.1074,8.1074,8.1074,8.1074,8.1074,8.1074,8.1074,8.1074,8.1074,8.1074,8.1074,8.1074,8.1074,8.1074,8.1074,8.1074,8.1074,8.1074,8.1074,8.1074,8.1074,8.1074,8.1074,8.1074,8.1074,8.1074,8.1074,8.1074,8.1074,8.1074,8.1074,8.1074,8.1074,8.1074,8.1074,8.1074,8.1074,8.1074,8.1074,8.1074,8.1074,8.1074,8.1074,8.1074,8.1074,8.1074,8.1074,8.1074,8.1074,8.1074,8.1074,8.1074,8.1074,8.1074,8.1074,8.1074,8.1074,8.1074,8.1074,8.1074,8.1074,8.1074,8.1002,8.0839,8.0476,8.0241,8.0549,8.0259,7.9752,8.0223,8.0857,8.0893,8.0875,8.0966,8.1074,8.1074,8.1074,8.1074,8.1038,8.0658,8.0114,7.9462,7.859,7.7545,7.699,7.6692,7.6854,7.7009,7.7171,7.6292,7.6292,7.6292,7.6292,7.6292,7.6292,7.6292,7.6292,7.6292,7.7217,7.881,8.0332,8.1074,8.1074,8.1074,8.1074,8.1074,8.1074,8.1074,8.1074,8.1074,8.1074,8.1074,8.1074,8.1074,8.1074,8.1074,8.1074,8.1074,8.1074,8.1074,8.1074,8.1074,8.1074,8.1074,8.1074,8.1074,8.1074,8.1074,8.1074,8.1074,8.1074,8.1074,8.1074,8.1074,8.1074,8.1074,8.1074,8.1074,8.1074,8.1074,8.1074,8.1074,8.1074,8.1074,8.1074,8.1074,8.1074,8.1074,8.1074,8.1074,8.1074,8.1074,8.1074,8.1074,8.1074,8.1074,8.1074,8.1074,8.1074,8.1074,8.1074,8.1074,8.1074,8.1074,8.1074,8.1074,8.1074,8.1074,8.1074,8.1074,8.1074,8.1074,8.1074,8.1074,8.1074,8.1074,8.1074,8.1038,8.0802,8.044,8.0295,8.035,7.9861,7.9354,8.0223,8.0966,8.0966,8.0966,8.1002,8.1074,8.1074,8.1074,8.1074,8.0966,8.0802,8.0404,7.9897,7.8987,7.7978,7.744,7.6931,7.7013,7.715,7.7217,7.6292,7.6292,7.6292,7.6292,7.6292,7.6292,7.6292,7.6364,7.6509,7.7326,7.8847,8.0386,8.1074,8.1074,8.1074,8.1074,8.1074,8.1074,8.1074,8.1074,8.1074,8.1074,8.1074,8.1074,8.1074,8.1074,8.1074,8.1074,8.1074,8.1074,8.1074,8.1074,8.1074,8.1074,8.1074,8.1074,8.1074,8.1074,8.1074,8.1074,8.1074,8.1074,8.1074,8.1074,8.1074,8.1074,8.1074,8.1074,8.1074,8.1074,8.1074,8.1074,8.1074,8.1074,8.1074,8.1074,8.1074,8.1074,8.1074,8.1074,8.1074,8.1074,8.1074,8.1074,8.1074,8.1074,8.1074,8.1074,8.1074,8.1074,8.1074,8.1074,8.1074,8.1074,8.1074,8.1074,8.1074,8.1074,8.1074,8.1074,8.1074,8.1074,8.1074,8.1074,8.1074,8.1074,8.1074,8.1074,8.1074,8.0893,8.0567,8.0549,8.0531,8.035,8.0114,8.0585,8.1038,8.1038,8.1038,8.1074,8.1074,8.1074,8.1074,8.1074,8.1038,8.0929,8.0694,8.0404,7.9529,7.8647,7.7693,7.7196,7.7275,7.7258,7.7258,7.6292,7.6292,7.6292,7.6292,7.6292,7.6292,7.6292,7.6509,7.7362,7.8195,7.8955,8.0386,8.1074,8.1074,8.1074,8.1074,8.1074,8.1074,8.1074,8.1074,8.1074,8.1074,8.1074,8.1074,8.1074,8.1074,8.1074,8.1074,8.1074,8.1074,8.1074,8.1074,8.1074,8.1074,8.1074,8.1074,8.1074,8.1074,8.1074,8.1074,8.1074,8.1074,8.1074,8.1074,8.1074,8.1074,8.1074,8.1074,8.1074,8.1074,8.1074,8.1074,8.1074,8.1074,8.1074,8.1074,8.1074,8.1074,8.1074,8.1074,8.1074,8.1074,8.1074,8.1074,8.1074,8.1074,8.1074,8.1074,8.1074,8.1074,8.1074,8.1074,8.1074,8.1074,8.1074,8.1074,8.1074,8.1074,8.1074,8.1074,8.1074,8.1074,8.1074,8.1074,8.1074,8.1074,8.1074,8.1074,8.1074,8.1074,8.0893,8.0893,8.0893,8.0857,8.0929,8.1002,8.1074,8.1074,8.1074,8.1074,8.1074,8.1074,8.1074,8.1074,8.1074,8.1074,8.0893,8.0637,8.0179,7.9369,7.8585,7.797,7.7924,7.7693,7.731,7.6292,7.6292,7.6292,7.6292,7.6292,7.6292,7.6292,7.6618,7.7941,7.8702,7.9064,8.035,8.1074,8.1074,8.1074,8.1074,8.1074,8.1074,8.1074,8.1074,8.1074,8.1074,8.1074,8.1074,8.1074,8.1074,8.1074,8.1074,8.1074,8.1074,8.1074,8.1074,8.1074,8.1074,8.1074,8.1074,8.1074,8.1074,8.1074,8.1074,8.1074,8.1074,8.1074,8.1074,8.1074,8.1074,8.1074,8.1074,8.1074,8.1074,8.1074,8.1074,8.1074,8.1074,8.1074,8.1074,8.1074,8.1074,8.1074,8.1074,8.1074,8.1074,8.1074,8.1074,8.1074,8.1074,8.1074,8.1074,8.1074,8.1074,8.1074,8.1074,8.1074,8.1074,8.1074,8.1074,8.1074,8.1074,8.1074,8.1074,8.1074,8.1074,8.1074,8.1074,8.1074,8.1074,8.1074,8.1074,8.1074,8.1074,8.1074,8.1074,8.1074,8.1002,8.1002,8.1038,8.1074,8.1074,8.1074,8.1074,8.1074,8.1074,8.1074,8.1074,8.1092,8.111,8.1072,8.0834,8.0646,8.033,7.9772,7.9182,7.8762,7.8259,7.7766,7.6292,7.6292,7.6292,7.6292,7.6292,7.6292,7.6292,7.6456,7.8014,7.8702,7.881,8.0404,8.1074,8.1074,8.1074,8.1074,8.1074,8.1074,8.1074,8.1074,8.1074,8.1074,8.1074,8.1074,8.1074,8.1074,8.1074,8.1074,8.1074,8.1074,8.1074,8.1074,8.1074,8.1074,8.1074,8.1074,8.1074,8.1074,8.1074,8.1074,8.1074,8.1074,8.1074,8.1074,8.1074,8.1074,8.1074,8.1074,8.1074,8.1074,8.1074,8.1074,8.1074,8.1074,8.1074,8.1074,8.1074,8.1074,8.1074,8.1074,8.1074,8.1074,8.1074,8.1074,8.1074,8.1074,8.1074,8.1074,8.1074,8.1074,8.1074,8.1074,8.1074,8.1074,8.1074,8.1074,8.1074,8.1074,8.1074,8.1074,8.1074,8.1074,8.1074,8.1074,8.1074,8.1074,8.1074,8.1074,8.1074,8.1074,8.1074,8.1074,8.1074,8.1074,8.1074,8.1074,8.1074,8.1074,8.1074,8.1074,8.1074,8.1074,8.1074,8.1074,8.1092,8.1127,8.125,8.1372,8.1439,8.1032,8.0622,8.017,7.9643,7.9029,7.8516,7.6292,7.6292,7.6292,7.6292,7.6292,7.6292,7.6292,7.6546,7.7977,7.8702,7.881,8.0404,8.1074,8.1074,8.1074,8.1074,8.1074,8.1074,8.1074,8.1074,8.1074,8.1074,8.1074,8.1074,8.1074,8.1074,8.1074,8.1074,8.1074,8.1074,8.1074,8.1074,8.1074,8.1074,8.1074,8.1074,8.1074,8.1074,8.1074,8.1074,8.1074,8.1074,8.1074,8.1074,8.1074,8.1074,8.1074,8.1074,8.1074,8.1074,8.1074,8.1074,8.1074,8.1074,8.1074,8.1074,8.1074,8.1074,8.1074,8.1074,8.1074,8.1074,8.1074,8.1074,8.1074,8.1074,8.1074,8.1074,8.1074,8.1074,8.1074,8.1074,8.1074,8.1074,8.1074,8.1074,8.1074,8.1074,8.1074,8.1074,8.1074,8.1074,8.1074,8.1074,8.1074,8.1074,8.1074,8.1074,8.1074,8.1074,8.1074,8.1074,8.1074,8.1074,8.1074,8.1074,8.1074,8.1074,8.1074,8.1074,8.1074,8.1074,8.1074,8.1128,8.1181,8.1358,8.1512,8.1598,8.1686,8.1751,8.145,8.098,8.0528,7.991,7.9244,7.6292,7.6292,7.6292,7.6292,7.6292,7.6292,7.6473,7.6963,7.8159,7.8702,7.8883,8.0404,8.1074,8.1074,8.1074,8.1074,8.1074,8.1074,8.1074,8.1074,8.1074,8.1074,8.1074,8.1074,8.1074,8.1074,8.1074,8.1074,8.1074,8.1074,8.1074,8.1074,8.1074,8.1074,8.1074,8.1074,8.1074,8.1074,8.1074,8.1074,8.1074,8.1074,8.1074,8.1074,8.1074,8.1074,8.1074,8.1074,8.1074,8.1074,8.1074,8.1074,8.1074,8.1074,8.1074,8.1074,8.1074,8.1074,8.1074,8.1074,8.1074,8.1074,8.1074,8.1074,8.1074,8.1074,8.1074,8.1074,8.1074,8.1074,8.1074,8.1074,8.1074,8.1074,8.1074,8.1074,8.1074,8.1074,8.1074,8.1074,8.1074,8.1074,8.1074,8.1074,8.1074,8.1074,8.1074,8.1074,8.1074,8.1074,8.1074,8.1074,8.1074,8.1074,8.1074,8.1074,8.1074,8.1074,8.1074,8.1074,8.1074,8.1074,8.1074,8.1199,8.1322,8.146,8.1615,8.1717,8.1785,8.1885,8.2018,8.1778,8.1328,8.0866,8.0131,7.6292,7.6292,7.6292,7.6292,7.6292,7.6292,7.6746,7.7579,7.834,7.8774,7.9136,8.044,8.1074,8.1074,8.1074,8.1074,8.1074,8.1074,8.1074,8.1074,8.1074,8.1074,8.1074,8.1074,8.1074,8.1074,8.1074,8.1074,8.1074,8.1074,8.1074,8.1074,8.1074,8.1074,8.1074,8.1074,8.1074,8.1074,8.1074,8.1074,8.1074,8.1074,8.1074,8.1074,8.1074,8.1074,8.1074,8.1074,8.1074,8.1074,8.1074,8.1074,8.1074,8.1074,8.1074,8.1074,8.1074,8.1074,8.1074,8.1074,8.1074,8.1074,8.1074,8.1074,8.1074,8.1074,8.1074,8.1074,8.1074,8.1074,8.1074,8.1074,8.1074,8.1074,8.1074,8.1074,8.1074,8.1074,8.1074,8.1074,8.1074,8.1074,8.1074,8.1074,8.1074,8.1074,8.1074,8.1074,8.1074,8.1074,8.1074,8.1074,8.1074,8.1074,8.1074,8.1074,8.1074,8.1074,8.1074,8.1074,8.1074,8.1111,8.1128,8.1252,8.1374,8.1529,8.1683,8.1802,8.1972,8.2055,8.2166,8.2355,8.2118,8.1701,8.1169,7.6292,7.6292,7.6292,7.6292,7.6292,7.6292,7.6746,7.7543,7.834,7.9064,7.9716,8.0567,8.1074,8.1074,8.1074,8.1074,8.1074,8.1074,8.1074,8.1074,8.1074,8.1074,8.1074,8.1074,8.1074,8.1074,8.1074,8.1074,8.1074,8.1074,8.1074,8.1074,8.1074,8.1074,8.1074,8.1074,8.1074,8.1074,8.1074,8.1074,8.1074,8.1074,8.1074,8.1074,8.1074,8.1074,8.1074,8.1074,8.1074,8.1074,8.1074,8.1074,8.1074,8.1074,8.1074,8.1074,8.1074,8.1074,8.1074,8.1074,8.1074,8.1074,8.1074,8.1074,8.1074,8.1074,8.1074,8.1074,8.1074,8.1074,8.1074,8.1074,8.1074,8.1074,8.1074,8.1074,8.1074,8.1074,8.1074,8.1074,8.1074,8.1074,8.1074,8.1074,8.1074,8.1074,8.1074,8.1074,8.1074,8.1074,8.1074,8.1074,8.1074,8.1074,8.1074,8.1074,8.1074,8.1074,8.1074,8.1074,8.1074,8.1128,8.1146,8.1322,8.146,8.1598,8.1768,8.2022,8.2121,8.2267,8.2423,8.26,8.2868,8.2631,8.2112,7.6292,7.6292,7.6292,7.6292,7.6292,7.6292,7.6927,7.7977,7.8521,7.9354,8.0368,8.0857,8.1074,8.1074,8.1074,8.1074,8.1074,8.1074,8.1074,8.1074,8.1074,8.1074,8.1074,8.1074,8.1074,8.1074,8.1074,8.1074,8.1074,8.1074,8.1074,8.1074,8.1074,8.1074,8.1074,8.1074,8.1074,8.1074,8.1074,8.1074,8.1074,8.1074,8.1074,8.1074,8.1074,8.1074,8.1074,8.1074,8.1074,8.1074,8.1074,8.1074,8.1074,8.1074,8.1074,8.1074,8.1074,8.1074,8.1074,8.1074,8.1074,8.1074,8.1074,8.1074,8.1074,8.1074,8.1074,8.1074,8.1074,8.1074,8.1074,8.1074,8.1074,8.1074,8.1074,8.1074,8.1074,8.1074,8.1074,8.1074,8.1074,8.1074,8.1074,8.1074,8.1074,8.1074,8.1074,8.1074,8.1074,8.1074,8.1074,8.1074,8.1074,8.1074,8.1074,8.1074,8.1074,8.1074,8.1074,8.1092,8.1092,8.1128,8.1182,8.1305,8.1443,8.1598,8.1785,8.2051,8.2402,8.2637,8.2739,8.289,8.3169,8.3512,8.323,7.6292,7.6292,7.6292,7.6292,7.6292,7.6292,7.7181,7.8521,7.8738,7.9607,8.0893,8.1038,8.1074,8.1074,8.1074,8.1074,8.1074,8.1074,8.1074,8.1074,8.1074,8.1074,8.1074,8.1074,8.1074,8.1074,8.1074,8.1074,8.1074,8.1074,8.1074,8.1074,8.1074,8.1074,8.1074,8.1074,8.1074,8.1074,8.1074,8.1074,8.1074,8.1074,8.1074,8.1074,8.1074,8.1074,8.1074,8.1074,8.1074,8.1074,8.1074,8.1074,8.1074,8.1074,8.1074,8.1074,8.1074,8.1074,8.1074,8.1074,8.1074,8.1074,8.1074,8.1074,8.1074,8.1074,8.1074,8.1074,8.1074,8.1074,8.1074,8.1074,8.1074,8.1074,8.1074,8.1074,8.1074,8.1074,8.1074,8.1074,8.1074,8.1074,8.1074,8.1074,8.1074,8.1074,8.1074,8.1074,8.1074,8.1074,8.1074,8.1074,8.1074,8.1074,8.1074,8.1074,8.1074,8.1074,8.1074,8.1092,8.111,8.1146,8.1182,8.1234,8.1392,8.1598,8.1849,8.2129,8.2491,8.2943,8.3177,8.3354,8.3847,8.4167,8.4341,7.6292,7.6292,7.6292,7.6292,7.6292,7.6292,7.7217,7.8557,7.8738,7.9607,8.0785,8.1074,8.1074,8.1074,8.1074,8.1074,8.1074,8.1074,8.1074,8.1074,8.1074,8.1074,8.1074,8.1074,8.1074,8.1074,8.1074,8.1074,8.1074,8.1074,8.1074,8.1074,8.1074,8.1074,8.1074,8.1074,8.1074,8.1074,8.1074,8.1074,8.1074,8.1074,8.1074,8.1074,8.1074,8.1074,8.1074,8.1074,8.1074,8.1074,8.1074,8.1074,8.1074,8.1074,8.1074,8.1074,8.1074,8.1074,8.1074,8.1074,8.1074,8.1074,8.1074,8.1074,8.1074,8.1074,8.1074,8.1074,8.1074,8.1074,8.1074,8.1074,8.1074,8.1074,8.1074,8.1074,8.1074,8.1074,8.1074,8.1074,8.1074,8.1074,8.1074,8.1074,8.1074,8.1074,8.1074,8.1074,8.1074,8.1074,8.1074,8.1074,8.1074,8.1074,8.1074,8.1074,8.1074,8.1074,8.1092,8.1146,8.1163,8.1128,8.1181,8.1322,8.1443,8.1613,8.1915,8.2318,8.2793,8.3241,8.3577,8.3911,8.4438,8.4757,8.4825]}]]